<?xml version="1.0" encoding="UTF-8" standalone="no" ?>
<gpx xmlns="http://www.topografix.com/GPX/1/1" xmlns:xsi="http://www.w3.org/2001/XMLSchema-instance" xsi:schemaLocation="http://www.topografix.com/GPX/1/1 http://www.topografix.com/GPX/1/1/gpx.xsd" version="1.1" creator="VisuGPX - https://www.visugpx.com">
  <metadata>
    <name>HERCHIES 5 FEV</name>
    <desc><![CDATA[Très belle marche dans l’entité de Jurbise  près de mons .marche adeps]]></desc>
  </metadata>
  <trk>
    <name><![CDATA[2017-02-05 14:21:52]]></name>
    <trkseg>
      <trkpt lat="50.52675" lon="3.8572">
        <ele>72.72</ele>
        <time>2017-02-05T08:40:01Z</time>
      </trkpt>
      <trkpt lat="50.52676" lon="3.8572">
        <ele>72.72</ele>
        <time>2017-02-05T08:40:02Z</time>
      </trkpt>
      <trkpt lat="50.52666" lon="3.85732">
        <ele>73.68</ele>
        <time>2017-02-05T08:40:23Z</time>
      </trkpt>
      <trkpt lat="50.52672" lon="3.85725">
        <ele>73.68</ele>
        <time>2017-02-05T08:40:44Z</time>
      </trkpt>
      <trkpt lat="50.52672" lon="3.85726">
        <ele>75.12</ele>
        <time>2017-02-05T08:40:48Z</time>
      </trkpt>
      <trkpt lat="50.52675" lon="3.85735">
        <ele>74.64</ele>
        <time>2017-02-05T08:41:16Z</time>
      </trkpt>
      <trkpt lat="50.52668" lon="3.85716">
        <ele>74.64</ele>
        <time>2017-02-05T08:41:45Z</time>
      </trkpt>
      <trkpt lat="50.52666" lon="3.85718">
        <ele>74.16</ele>
        <time>2017-02-05T08:42:18Z</time>
      </trkpt>
      <trkpt lat="50.52667" lon="3.85722">
        <ele>74.16</ele>
        <time>2017-02-05T08:42:51Z</time>
      </trkpt>
      <trkpt lat="50.52669" lon="3.85719">
        <ele>74.64</ele>
        <time>2017-02-05T08:43:19Z</time>
      </trkpt>
      <trkpt lat="50.52668" lon="3.85714">
        <ele>73.2</ele>
        <time>2017-02-05T08:43:41Z</time>
      </trkpt>
      <trkpt lat="50.52674" lon="3.85719">
        <ele>73.2</ele>
        <time>2017-02-05T08:44:07Z</time>
      </trkpt>
      <trkpt lat="50.5267" lon="3.85722">
        <ele>73.2</ele>
        <time>2017-02-05T08:44:36Z</time>
      </trkpt>
      <trkpt lat="50.5267" lon="3.85717">
        <ele>73.2</ele>
        <time>2017-02-05T08:45:01Z</time>
      </trkpt>
      <trkpt lat="50.52664" lon="3.85724">
        <ele>72.72</ele>
        <time>2017-02-05T08:45:28Z</time>
      </trkpt>
      <trkpt lat="50.52664" lon="3.8572">
        <ele>72.72</ele>
        <time>2017-02-05T08:45:57Z</time>
      </trkpt>
      <trkpt lat="50.52669" lon="3.85717">
        <ele>72.72</ele>
        <time>2017-02-05T08:46:30Z</time>
      </trkpt>
      <trkpt lat="50.52666" lon="3.8572">
        <ele>73.68</ele>
        <time>2017-02-05T08:47:01Z</time>
      </trkpt>
      <trkpt lat="50.52663" lon="3.85727">
        <ele>73.68</ele>
        <time>2017-02-05T08:47:26Z</time>
      </trkpt>
      <trkpt lat="50.5267" lon="3.85727">
        <ele>73.68</ele>
        <time>2017-02-05T08:47:50Z</time>
      </trkpt>
      <trkpt lat="50.52664" lon="3.8572">
        <ele>74.16</ele>
        <time>2017-02-05T08:48:19Z</time>
      </trkpt>
      <trkpt lat="50.52676" lon="3.85729">
        <ele>74.16</ele>
        <time>2017-02-05T08:48:42Z</time>
      </trkpt>
      <trkpt lat="50.5267" lon="3.85736">
        <ele>74.16</ele>
        <time>2017-02-05T08:49:04Z</time>
      </trkpt>
      <trkpt lat="50.5267" lon="3.8573">
        <ele>74.16</ele>
        <time>2017-02-05T08:49:25Z</time>
      </trkpt>
      <trkpt lat="50.5267" lon="3.85735">
        <ele>74.16</ele>
        <time>2017-02-05T08:49:52Z</time>
      </trkpt>
      <trkpt lat="50.52662" lon="3.85737">
        <ele>74.16</ele>
        <time>2017-02-05T08:50:05Z</time>
      </trkpt>
      <trkpt lat="50.52654" lon="3.85744">
        <ele>74.16</ele>
        <time>2017-02-05T08:50:20Z</time>
      </trkpt>
      <trkpt lat="50.52654" lon="3.85745">
        <ele>74.16</ele>
        <time>2017-02-05T08:50:39Z</time>
      </trkpt>
      <trkpt lat="50.52647" lon="3.8575">
        <ele>74.16</ele>
        <time>2017-02-05T08:50:52Z</time>
      </trkpt>
      <trkpt lat="50.5265" lon="3.85758">
        <ele>74.16</ele>
        <time>2017-02-05T08:51:04Z</time>
      </trkpt>
      <trkpt lat="50.52647" lon="3.85761">
        <ele>72.72</ele>
        <time>2017-02-05T08:51:08Z</time>
      </trkpt>
      <trkpt lat="50.52646" lon="3.85765">
        <ele>72.72</ele>
        <time>2017-02-05T08:51:11Z</time>
      </trkpt>
      <trkpt lat="50.52646" lon="3.85768">
        <ele>72.72</ele>
        <time>2017-02-05T08:51:14Z</time>
      </trkpt>
      <trkpt lat="50.52648" lon="3.85769">
        <ele>72.24</ele>
        <time>2017-02-05T08:51:16Z</time>
      </trkpt>
      <trkpt lat="50.52659" lon="3.85772">
        <ele>72.24</ele>
        <time>2017-02-05T08:51:28Z</time>
      </trkpt>
      <trkpt lat="50.52674" lon="3.85778">
        <ele>72.24</ele>
        <time>2017-02-05T08:51:35Z</time>
      </trkpt>
      <trkpt lat="50.52691" lon="3.85779">
        <ele>72.24</ele>
        <time>2017-02-05T08:51:49Z</time>
      </trkpt>
      <trkpt lat="50.52701" lon="3.85775">
        <ele>72.24</ele>
        <time>2017-02-05T08:51:59Z</time>
      </trkpt>
      <trkpt lat="50.52712" lon="3.85772">
        <ele>72.24</ele>
        <time>2017-02-05T08:52:11Z</time>
      </trkpt>
      <trkpt lat="50.52715" lon="3.8577">
        <ele>72.24</ele>
        <time>2017-02-05T08:52:18Z</time>
      </trkpt>
      <trkpt lat="50.52723" lon="3.85768">
        <ele>72.24</ele>
        <time>2017-02-05T08:52:31Z</time>
      </trkpt>
      <trkpt lat="50.52734" lon="3.85764">
        <ele>73.2</ele>
        <time>2017-02-05T08:52:41Z</time>
      </trkpt>
      <trkpt lat="50.52743" lon="3.85763">
        <ele>73.2</ele>
        <time>2017-02-05T08:52:51Z</time>
      </trkpt>
      <trkpt lat="50.52747" lon="3.85759">
        <ele>73.2</ele>
        <time>2017-02-05T08:52:57Z</time>
      </trkpt>
      <trkpt lat="50.5276" lon="3.85746">
        <ele>73.2</ele>
        <time>2017-02-05T08:53:10Z</time>
      </trkpt>
      <trkpt lat="50.52763" lon="3.85742">
        <ele>73.2</ele>
        <time>2017-02-05T08:53:13Z</time>
      </trkpt>
      <trkpt lat="50.52773" lon="3.85719">
        <ele>72.72</ele>
        <time>2017-02-05T08:53:28Z</time>
      </trkpt>
      <trkpt lat="50.52775" lon="3.85716">
        <ele>72.72</ele>
        <time>2017-02-05T08:53:31Z</time>
      </trkpt>
      <trkpt lat="50.5279" lon="3.85701">
        <ele>73.2</ele>
        <time>2017-02-05T08:53:42Z</time>
      </trkpt>
      <trkpt lat="50.52794" lon="3.85686">
        <ele>73.2</ele>
        <time>2017-02-05T08:53:50Z</time>
      </trkpt>
      <trkpt lat="50.52799" lon="3.85675">
        <ele>73.2</ele>
        <time>2017-02-05T08:53:57Z</time>
      </trkpt>
      <trkpt lat="50.52801" lon="3.85674">
        <ele>73.2</ele>
        <time>2017-02-05T08:53:59Z</time>
      </trkpt>
      <trkpt lat="50.52803" lon="3.85674">
        <ele>73.2</ele>
        <time>2017-02-05T08:54:00Z</time>
      </trkpt>
      <trkpt lat="50.52815" lon="3.85647">
        <ele>73.68</ele>
        <time>2017-02-05T08:54:17Z</time>
      </trkpt>
      <trkpt lat="50.52818" lon="3.85643">
        <ele>73.68</ele>
        <time>2017-02-05T08:54:21Z</time>
      </trkpt>
      <trkpt lat="50.52819" lon="3.85639">
        <ele>73.68</ele>
        <time>2017-02-05T08:54:22Z</time>
      </trkpt>
      <trkpt lat="50.5283" lon="3.85626">
        <ele>73.68</ele>
        <time>2017-02-05T08:54:35Z</time>
      </trkpt>
      <trkpt lat="50.52829" lon="3.85626">
        <ele>73.68</ele>
        <time>2017-02-05T08:54:47Z</time>
      </trkpt>
      <trkpt lat="50.52824" lon="3.85629">
        <ele>73.68</ele>
        <time>2017-02-05T08:55:08Z</time>
      </trkpt>
      <trkpt lat="50.52823" lon="3.85627">
        <ele>73.2</ele>
        <time>2017-02-05T08:55:25Z</time>
      </trkpt>
      <trkpt lat="50.52823" lon="3.85626">
        <ele>73.2</ele>
        <time>2017-02-05T08:55:45Z</time>
      </trkpt>
      <trkpt lat="50.52827" lon="3.85629">
        <ele>73.2</ele>
        <time>2017-02-05T08:56:08Z</time>
      </trkpt>
      <trkpt lat="50.52828" lon="3.85627">
        <ele>72.72</ele>
        <time>2017-02-05T08:56:29Z</time>
      </trkpt>
      <trkpt lat="50.52827" lon="3.85626">
        <ele>72.72</ele>
        <time>2017-02-05T08:56:41Z</time>
      </trkpt>
      <trkpt lat="50.52826" lon="3.85627">
        <ele>72.72</ele>
        <time>2017-02-05T08:56:58Z</time>
      </trkpt>
      <trkpt lat="50.52824" lon="3.85626">
        <ele>72.72</ele>
        <time>2017-02-05T08:57:17Z</time>
      </trkpt>
      <trkpt lat="50.52824" lon="3.85624">
        <ele>72.72</ele>
        <time>2017-02-05T08:57:41Z</time>
      </trkpt>
      <trkpt lat="50.52826" lon="3.85624">
        <ele>72.72</ele>
        <time>2017-02-05T08:58:09Z</time>
      </trkpt>
      <trkpt lat="50.52827" lon="3.85629">
        <ele>72.24</ele>
        <time>2017-02-05T08:58:32Z</time>
      </trkpt>
      <trkpt lat="50.52822" lon="3.85632">
        <ele>72.24</ele>
        <time>2017-02-05T08:59:02Z</time>
      </trkpt>
      <trkpt lat="50.52834" lon="3.85617">
        <ele>72.24</ele>
        <time>2017-02-05T08:59:17Z</time>
      </trkpt>
      <trkpt lat="50.52846" lon="3.85602">
        <ele>72.24</ele>
        <time>2017-02-05T08:59:30Z</time>
      </trkpt>
      <trkpt lat="50.5286" lon="3.85585">
        <ele>72.24</ele>
        <time>2017-02-05T08:59:43Z</time>
      </trkpt>
      <trkpt lat="50.52865" lon="3.85575">
        <ele>72.24</ele>
        <time>2017-02-05T08:59:49Z</time>
      </trkpt>
      <trkpt lat="50.52869" lon="3.85561">
        <ele>72.24</ele>
        <time>2017-02-05T08:59:57Z</time>
      </trkpt>
      <trkpt lat="50.52872" lon="3.85557">
        <ele>72.24</ele>
        <time>2017-02-05T09:00:04Z</time>
      </trkpt>
      <trkpt lat="50.52873" lon="3.85534">
        <ele>72.72</ele>
        <time>2017-02-05T09:00:13Z</time>
      </trkpt>
      <trkpt lat="50.5287" lon="3.85504">
        <ele>72.72</ele>
        <time>2017-02-05T09:00:27Z</time>
      </trkpt>
      <trkpt lat="50.52865" lon="3.8548">
        <ele>72.72</ele>
        <time>2017-02-05T09:00:38Z</time>
      </trkpt>
      <trkpt lat="50.52858" lon="3.8545">
        <ele>72.72</ele>
        <time>2017-02-05T09:00:52Z</time>
      </trkpt>
      <trkpt lat="50.52851" lon="3.85424">
        <ele>72.72</ele>
        <time>2017-02-05T09:01:05Z</time>
      </trkpt>
      <trkpt lat="50.5285" lon="3.85423">
        <ele>72.72</ele>
        <time>2017-02-05T09:01:07Z</time>
      </trkpt>
      <trkpt lat="50.52849" lon="3.85419">
        <ele>72.72</ele>
        <time>2017-02-05T09:01:09Z</time>
      </trkpt>
      <trkpt lat="50.52843" lon="3.85392">
        <ele>72.72</ele>
        <time>2017-02-05T09:01:23Z</time>
      </trkpt>
      <trkpt lat="50.52843" lon="3.85381">
        <ele>72.72</ele>
        <time>2017-02-05T09:01:37Z</time>
      </trkpt>
      <trkpt lat="50.52842" lon="3.85372">
        <ele>72.72</ele>
        <time>2017-02-05T09:01:52Z</time>
      </trkpt>
      <trkpt lat="50.52844" lon="3.85351">
        <ele>72.72</ele>
        <time>2017-02-05T09:02:04Z</time>
      </trkpt>
      <trkpt lat="50.52841" lon="3.85324">
        <ele>72.72</ele>
        <time>2017-02-05T09:02:19Z</time>
      </trkpt>
      <trkpt lat="50.52836" lon="3.85291">
        <ele>72.72</ele>
        <time>2017-02-05T09:02:36Z</time>
      </trkpt>
      <trkpt lat="50.52832" lon="3.85263">
        <ele>72.72</ele>
        <time>2017-02-05T09:02:48Z</time>
      </trkpt>
      <trkpt lat="50.52832" lon="3.8524">
        <ele>72.72</ele>
        <time>2017-02-05T09:02:59Z</time>
      </trkpt>
      <trkpt lat="50.52831" lon="3.85237">
        <ele>72.72</ele>
        <time>2017-02-05T09:03:00Z</time>
      </trkpt>
      <trkpt lat="50.52831" lon="3.85234">
        <ele>72.72</ele>
        <time>2017-02-05T09:03:01Z</time>
      </trkpt>
      <trkpt lat="50.52834" lon="3.85223">
        <ele>72.72</ele>
        <time>2017-02-05T09:03:08Z</time>
      </trkpt>
      <trkpt lat="50.52835" lon="3.85221">
        <ele>72.72</ele>
        <time>2017-02-05T09:03:09Z</time>
      </trkpt>
      <trkpt lat="50.52835" lon="3.85219">
        <ele>72.72</ele>
        <time>2017-02-05T09:03:10Z</time>
      </trkpt>
      <trkpt lat="50.52838" lon="3.85215">
        <ele>72.72</ele>
        <time>2017-02-05T09:03:13Z</time>
      </trkpt>
      <trkpt lat="50.52854" lon="3.852">
        <ele>72.72</ele>
        <time>2017-02-05T09:03:27Z</time>
      </trkpt>
      <trkpt lat="50.52866" lon="3.8518">
        <ele>72.72</ele>
        <time>2017-02-05T09:03:39Z</time>
      </trkpt>
      <trkpt lat="50.52867" lon="3.85178">
        <ele>72.72</ele>
        <time>2017-02-05T09:03:40Z</time>
      </trkpt>
      <trkpt lat="50.52867" lon="3.85176">
        <ele>72.72</ele>
        <time>2017-02-05T09:03:41Z</time>
      </trkpt>
      <trkpt lat="50.52868" lon="3.85174">
        <ele>72.72</ele>
        <time>2017-02-05T09:03:42Z</time>
      </trkpt>
      <trkpt lat="50.52869" lon="3.85173">
        <ele>72.72</ele>
        <time>2017-02-05T09:03:43Z</time>
      </trkpt>
      <trkpt lat="50.52874" lon="3.8516">
        <ele>72.72</ele>
        <time>2017-02-05T09:03:50Z</time>
      </trkpt>
      <trkpt lat="50.52875" lon="3.85158">
        <ele>72.72</ele>
        <time>2017-02-05T09:03:51Z</time>
      </trkpt>
      <trkpt lat="50.52878" lon="3.85153">
        <ele>72.72</ele>
        <time>2017-02-05T09:03:54Z</time>
      </trkpt>
      <trkpt lat="50.52879" lon="3.85152">
        <ele>72.72</ele>
        <time>2017-02-05T09:03:55Z</time>
      </trkpt>
      <trkpt lat="50.52884" lon="3.85141">
        <ele>72.24</ele>
        <time>2017-02-05T09:04:03Z</time>
      </trkpt>
      <trkpt lat="50.52886" lon="3.85138">
        <ele>72.24</ele>
        <time>2017-02-05T09:04:05Z</time>
      </trkpt>
      <trkpt lat="50.52888" lon="3.85137">
        <ele>72.24</ele>
        <time>2017-02-05T09:04:06Z</time>
      </trkpt>
      <trkpt lat="50.5289" lon="3.85135">
        <ele>72.24</ele>
        <time>2017-02-05T09:04:07Z</time>
      </trkpt>
      <trkpt lat="50.52891" lon="3.85134">
        <ele>72.24</ele>
        <time>2017-02-05T09:04:08Z</time>
      </trkpt>
      <trkpt lat="50.52892" lon="3.85132">
        <ele>72.24</ele>
        <time>2017-02-05T09:04:09Z</time>
      </trkpt>
      <trkpt lat="50.5291" lon="3.85108">
        <ele>72.72</ele>
        <time>2017-02-05T09:04:25Z</time>
      </trkpt>
      <trkpt lat="50.52923" lon="3.8509">
        <ele>72.72</ele>
        <time>2017-02-05T09:04:37Z</time>
      </trkpt>
      <trkpt lat="50.52943" lon="3.85083">
        <ele>72.72</ele>
        <time>2017-02-05T09:04:53Z</time>
      </trkpt>
      <trkpt lat="50.52962" lon="3.85089">
        <ele>72.72</ele>
        <time>2017-02-05T09:05:07Z</time>
      </trkpt>
      <trkpt lat="50.52984" lon="3.85095">
        <ele>73.2</ele>
        <time>2017-02-05T09:05:23Z</time>
      </trkpt>
      <trkpt lat="50.52991" lon="3.85093">
        <ele>73.2</ele>
        <time>2017-02-05T09:05:29Z</time>
      </trkpt>
      <trkpt lat="50.53007" lon="3.8508">
        <ele>73.2</ele>
        <time>2017-02-05T09:05:43Z</time>
      </trkpt>
      <trkpt lat="50.53026" lon="3.85055">
        <ele>73.2</ele>
        <time>2017-02-05T09:06:00Z</time>
      </trkpt>
      <trkpt lat="50.5304" lon="3.85036">
        <ele>73.68</ele>
        <time>2017-02-05T09:06:13Z</time>
      </trkpt>
      <trkpt lat="50.53055" lon="3.8502">
        <ele>73.68</ele>
        <time>2017-02-05T09:06:26Z</time>
      </trkpt>
      <trkpt lat="50.53073" lon="3.85001">
        <ele>73.68</ele>
        <time>2017-02-05T09:06:42Z</time>
      </trkpt>
      <trkpt lat="50.53084" lon="3.85013">
        <ele>74.16</ele>
        <time>2017-02-05T09:06:54Z</time>
      </trkpt>
      <trkpt lat="50.53087" lon="3.85019">
        <ele>74.16</ele>
        <time>2017-02-05T09:06:58Z</time>
      </trkpt>
      <trkpt lat="50.53096" lon="3.85044">
        <ele>74.16</ele>
        <time>2017-02-05T09:07:12Z</time>
      </trkpt>
      <trkpt lat="50.53107" lon="3.85065">
        <ele>74.16</ele>
        <time>2017-02-05T09:07:26Z</time>
      </trkpt>
      <trkpt lat="50.53118" lon="3.85098">
        <ele>74.64</ele>
        <time>2017-02-05T09:07:42Z</time>
      </trkpt>
      <trkpt lat="50.53119" lon="3.851">
        <ele>74.16</ele>
        <time>2017-02-05T09:07:43Z</time>
      </trkpt>
      <trkpt lat="50.5312" lon="3.85102">
        <ele>74.16</ele>
        <time>2017-02-05T09:07:44Z</time>
      </trkpt>
      <trkpt lat="50.5313" lon="3.85128">
        <ele>74.16</ele>
        <time>2017-02-05T09:07:59Z</time>
      </trkpt>
      <trkpt lat="50.53142" lon="3.85155">
        <ele>74.16</ele>
        <time>2017-02-05T09:08:15Z</time>
      </trkpt>
      <trkpt lat="50.53144" lon="3.85158">
        <ele>74.16</ele>
        <time>2017-02-05T09:08:17Z</time>
      </trkpt>
      <trkpt lat="50.53145" lon="3.8516">
        <ele>74.16</ele>
        <time>2017-02-05T09:08:18Z</time>
      </trkpt>
      <trkpt lat="50.53157" lon="3.85182">
        <ele>74.16</ele>
        <time>2017-02-05T09:08:33Z</time>
      </trkpt>
      <trkpt lat="50.53158" lon="3.85184">
        <ele>74.16</ele>
        <time>2017-02-05T09:08:34Z</time>
      </trkpt>
      <trkpt lat="50.53158" lon="3.85185">
        <ele>74.16</ele>
        <time>2017-02-05T09:08:35Z</time>
      </trkpt>
      <trkpt lat="50.53159" lon="3.85187">
        <ele>74.16</ele>
        <time>2017-02-05T09:08:36Z</time>
      </trkpt>
      <trkpt lat="50.5316" lon="3.85189">
        <ele>74.16</ele>
        <time>2017-02-05T09:08:37Z</time>
      </trkpt>
      <trkpt lat="50.53161" lon="3.85191">
        <ele>74.16</ele>
        <time>2017-02-05T09:08:38Z</time>
      </trkpt>
      <trkpt lat="50.53162" lon="3.85193">
        <ele>74.16</ele>
        <time>2017-02-05T09:08:39Z</time>
      </trkpt>
      <trkpt lat="50.53163" lon="3.85195">
        <ele>74.16</ele>
        <time>2017-02-05T09:08:40Z</time>
      </trkpt>
      <trkpt lat="50.53174" lon="3.85219">
        <ele>74.16</ele>
        <time>2017-02-05T09:08:53Z</time>
      </trkpt>
      <trkpt lat="50.5319" lon="3.85245">
        <ele>74.16</ele>
        <time>2017-02-05T09:09:11Z</time>
      </trkpt>
      <trkpt lat="50.53204" lon="3.85269">
        <ele>74.16</ele>
        <time>2017-02-05T09:09:25Z</time>
      </trkpt>
      <trkpt lat="50.53218" lon="3.853">
        <ele>74.16</ele>
        <time>2017-02-05T09:09:42Z</time>
      </trkpt>
      <trkpt lat="50.53223" lon="3.85312">
        <ele>74.16</ele>
        <time>2017-02-05T09:09:49Z</time>
      </trkpt>
      <trkpt lat="50.53224" lon="3.85314">
        <ele>74.16</ele>
        <time>2017-02-05T09:09:50Z</time>
      </trkpt>
      <trkpt lat="50.53224" lon="3.85315">
        <ele>74.16</ele>
        <time>2017-02-05T09:09:51Z</time>
      </trkpt>
      <trkpt lat="50.53225" lon="3.85317">
        <ele>74.16</ele>
        <time>2017-02-05T09:09:52Z</time>
      </trkpt>
      <trkpt lat="50.53226" lon="3.85318">
        <ele>74.16</ele>
        <time>2017-02-05T09:09:53Z</time>
      </trkpt>
      <trkpt lat="50.53237" lon="3.8534">
        <ele>74.16</ele>
        <time>2017-02-05T09:10:07Z</time>
      </trkpt>
      <trkpt lat="50.53238" lon="3.85341">
        <ele>74.16</ele>
        <time>2017-02-05T09:10:08Z</time>
      </trkpt>
      <trkpt lat="50.53239" lon="3.85343">
        <ele>74.16</ele>
        <time>2017-02-05T09:10:09Z</time>
      </trkpt>
      <trkpt lat="50.53248" lon="3.85358">
        <ele>74.16</ele>
        <time>2017-02-05T09:10:19Z</time>
      </trkpt>
      <trkpt lat="50.5326" lon="3.85381">
        <ele>74.16</ele>
        <time>2017-02-05T09:10:34Z</time>
      </trkpt>
      <trkpt lat="50.53271" lon="3.85412">
        <ele>74.16</ele>
        <time>2017-02-05T09:10:50Z</time>
      </trkpt>
      <trkpt lat="50.53285" lon="3.85448">
        <ele>74.16</ele>
        <time>2017-02-05T09:11:06Z</time>
      </trkpt>
      <trkpt lat="50.53298" lon="3.85475">
        <ele>74.16</ele>
        <time>2017-02-05T09:11:21Z</time>
      </trkpt>
      <trkpt lat="50.53314" lon="3.855">
        <ele>74.16</ele>
        <time>2017-02-05T09:11:37Z</time>
      </trkpt>
      <trkpt lat="50.53327" lon="3.8552">
        <ele>74.16</ele>
        <time>2017-02-05T09:11:52Z</time>
      </trkpt>
      <trkpt lat="50.53329" lon="3.85522">
        <ele>74.16</ele>
        <time>2017-02-05T09:11:54Z</time>
      </trkpt>
      <trkpt lat="50.53329" lon="3.85523">
        <ele>74.16</ele>
        <time>2017-02-05T09:11:55Z</time>
      </trkpt>
      <trkpt lat="50.5333" lon="3.85524">
        <ele>74.16</ele>
        <time>2017-02-05T09:11:56Z</time>
      </trkpt>
      <trkpt lat="50.53331" lon="3.85525">
        <ele>74.16</ele>
        <time>2017-02-05T09:11:57Z</time>
      </trkpt>
      <trkpt lat="50.53331" lon="3.85526">
        <ele>74.16</ele>
        <time>2017-02-05T09:11:58Z</time>
      </trkpt>
      <trkpt lat="50.53332" lon="3.85527">
        <ele>74.16</ele>
        <time>2017-02-05T09:11:59Z</time>
      </trkpt>
      <trkpt lat="50.53344" lon="3.85555">
        <ele>74.16</ele>
        <time>2017-02-05T09:12:13Z</time>
      </trkpt>
      <trkpt lat="50.53359" lon="3.85581">
        <ele>74.16</ele>
        <time>2017-02-05T09:12:27Z</time>
      </trkpt>
      <trkpt lat="50.53375" lon="3.856">
        <ele>74.16</ele>
        <time>2017-02-05T09:12:43Z</time>
      </trkpt>
      <trkpt lat="50.53393" lon="3.85624">
        <ele>74.16</ele>
        <time>2017-02-05T09:13:03Z</time>
      </trkpt>
      <trkpt lat="50.53408" lon="3.85645">
        <ele>74.16</ele>
        <time>2017-02-05T09:13:20Z</time>
      </trkpt>
      <trkpt lat="50.53426" lon="3.85667">
        <ele>74.16</ele>
        <time>2017-02-05T09:13:37Z</time>
      </trkpt>
      <trkpt lat="50.53443" lon="3.8569">
        <ele>74.16</ele>
        <time>2017-02-05T09:13:52Z</time>
      </trkpt>
      <trkpt lat="50.53462" lon="3.85716">
        <ele>74.16</ele>
        <time>2017-02-05T09:14:10Z</time>
      </trkpt>
      <trkpt lat="50.53479" lon="3.85741">
        <ele>74.64</ele>
        <time>2017-02-05T09:14:27Z</time>
      </trkpt>
      <trkpt lat="50.5349" lon="3.85769">
        <ele>74.64</ele>
        <time>2017-02-05T09:14:42Z</time>
      </trkpt>
      <trkpt lat="50.53498" lon="3.85788">
        <ele>74.64</ele>
        <time>2017-02-05T09:14:54Z</time>
      </trkpt>
      <trkpt lat="50.53498" lon="3.85789">
        <ele>74.64</ele>
        <time>2017-02-05T09:14:55Z</time>
      </trkpt>
      <trkpt lat="50.53499" lon="3.85791">
        <ele>74.64</ele>
        <time>2017-02-05T09:14:56Z</time>
      </trkpt>
      <trkpt lat="50.53513" lon="3.85824">
        <ele>74.64</ele>
        <time>2017-02-05T09:15:13Z</time>
      </trkpt>
      <trkpt lat="50.53529" lon="3.85859">
        <ele>74.64</ele>
        <time>2017-02-05T09:15:33Z</time>
      </trkpt>
      <trkpt lat="50.53533" lon="3.85868">
        <ele>74.64</ele>
        <time>2017-02-05T09:15:39Z</time>
      </trkpt>
      <trkpt lat="50.53533" lon="3.8587">
        <ele>74.64</ele>
        <time>2017-02-05T09:15:40Z</time>
      </trkpt>
      <trkpt lat="50.53534" lon="3.85872">
        <ele>74.64</ele>
        <time>2017-02-05T09:15:41Z</time>
      </trkpt>
      <trkpt lat="50.53535" lon="3.85873">
        <ele>74.64</ele>
        <time>2017-02-05T09:15:42Z</time>
      </trkpt>
      <trkpt lat="50.53535" lon="3.85875">
        <ele>74.64</ele>
        <time>2017-02-05T09:15:43Z</time>
      </trkpt>
      <trkpt lat="50.53544" lon="3.85911">
        <ele>74.64</ele>
        <time>2017-02-05T09:16:00Z</time>
      </trkpt>
      <trkpt lat="50.5355" lon="3.85948">
        <ele>74.64</ele>
        <time>2017-02-05T09:16:19Z</time>
      </trkpt>
      <trkpt lat="50.53553" lon="3.85967">
        <ele>73.2</ele>
        <time>2017-02-05T09:16:29Z</time>
      </trkpt>
      <trkpt lat="50.53554" lon="3.85968">
        <ele>73.2</ele>
        <time>2017-02-05T09:16:30Z</time>
      </trkpt>
      <trkpt lat="50.53554" lon="3.8597">
        <ele>73.2</ele>
        <time>2017-02-05T09:16:31Z</time>
      </trkpt>
      <trkpt lat="50.5356" lon="3.86009">
        <ele>73.2</ele>
        <time>2017-02-05T09:16:49Z</time>
      </trkpt>
      <trkpt lat="50.53563" lon="3.86053">
        <ele>73.2</ele>
        <time>2017-02-05T09:17:08Z</time>
      </trkpt>
      <trkpt lat="50.5357" lon="3.86094">
        <ele>73.2</ele>
        <time>2017-02-05T09:17:28Z</time>
      </trkpt>
      <trkpt lat="50.53574" lon="3.86114">
        <ele>73.2</ele>
        <time>2017-02-05T09:17:38Z</time>
      </trkpt>
      <trkpt lat="50.53579" lon="3.86123">
        <ele>73.2</ele>
        <time>2017-02-05T09:17:44Z</time>
      </trkpt>
      <trkpt lat="50.5358" lon="3.86125">
        <ele>73.2</ele>
        <time>2017-02-05T09:17:45Z</time>
      </trkpt>
      <trkpt lat="50.53581" lon="3.86126">
        <ele>73.2</ele>
        <time>2017-02-05T09:17:46Z</time>
      </trkpt>
      <trkpt lat="50.536" lon="3.8615">
        <ele>73.2</ele>
        <time>2017-02-05T09:18:05Z</time>
      </trkpt>
      <trkpt lat="50.53621" lon="3.86175">
        <ele>73.2</ele>
        <time>2017-02-05T09:18:23Z</time>
      </trkpt>
      <trkpt lat="50.5364" lon="3.86195">
        <ele>73.2</ele>
        <time>2017-02-05T09:18:40Z</time>
      </trkpt>
      <trkpt lat="50.53658" lon="3.86218">
        <ele>74.16</ele>
        <time>2017-02-05T09:18:57Z</time>
      </trkpt>
      <trkpt lat="50.53659" lon="3.8622">
        <ele>74.16</ele>
        <time>2017-02-05T09:18:58Z</time>
      </trkpt>
      <trkpt lat="50.5366" lon="3.86222">
        <ele>74.16</ele>
        <time>2017-02-05T09:18:59Z</time>
      </trkpt>
      <trkpt lat="50.53678" lon="3.86243">
        <ele>74.16</ele>
        <time>2017-02-05T09:19:17Z</time>
      </trkpt>
      <trkpt lat="50.53697" lon="3.8626">
        <ele>74.16</ele>
        <time>2017-02-05T09:19:34Z</time>
      </trkpt>
      <trkpt lat="50.53715" lon="3.86271">
        <ele>74.16</ele>
        <time>2017-02-05T09:19:48Z</time>
      </trkpt>
      <trkpt lat="50.53737" lon="3.8628">
        <ele>74.64</ele>
        <time>2017-02-05T09:20:04Z</time>
      </trkpt>
      <trkpt lat="50.53759" lon="3.8629">
        <ele>75.6</ele>
        <time>2017-02-05T09:20:21Z</time>
      </trkpt>
      <trkpt lat="50.53761" lon="3.8629">
        <ele>75.6</ele>
        <time>2017-02-05T09:20:23Z</time>
      </trkpt>
      <trkpt lat="50.53763" lon="3.8629">
        <ele>75.6</ele>
        <time>2017-02-05T09:20:24Z</time>
      </trkpt>
      <trkpt lat="50.53764" lon="3.8629">
        <ele>75.6</ele>
        <time>2017-02-05T09:20:25Z</time>
      </trkpt>
      <trkpt lat="50.53787" lon="3.86303">
        <ele>75.6</ele>
        <time>2017-02-05T09:20:42Z</time>
      </trkpt>
      <trkpt lat="50.53813" lon="3.86322">
        <ele>75.12</ele>
        <time>2017-02-05T09:21:01Z</time>
      </trkpt>
      <trkpt lat="50.5383" lon="3.86347">
        <ele>75.12</ele>
        <time>2017-02-05T09:21:20Z</time>
      </trkpt>
      <trkpt lat="50.53847" lon="3.86378">
        <ele>75.12</ele>
        <time>2017-02-05T09:21:38Z</time>
      </trkpt>
      <trkpt lat="50.53863" lon="3.86411">
        <ele>75.12</ele>
        <time>2017-02-05T09:21:57Z</time>
      </trkpt>
      <trkpt lat="50.5388" lon="3.86436">
        <ele>75.12</ele>
        <time>2017-02-05T09:22:14Z</time>
      </trkpt>
      <trkpt lat="50.53902" lon="3.86463">
        <ele>73.68</ele>
        <time>2017-02-05T09:22:34Z</time>
      </trkpt>
      <trkpt lat="50.53917" lon="3.86482">
        <ele>73.68</ele>
        <time>2017-02-05T09:22:48Z</time>
      </trkpt>
      <trkpt lat="50.53935" lon="3.86502">
        <ele>73.68</ele>
        <time>2017-02-05T09:23:04Z</time>
      </trkpt>
      <trkpt lat="50.53953" lon="3.86523">
        <ele>73.68</ele>
        <time>2017-02-05T09:23:21Z</time>
      </trkpt>
      <trkpt lat="50.53973" lon="3.86547">
        <ele>73.68</ele>
        <time>2017-02-05T09:23:39Z</time>
      </trkpt>
      <trkpt lat="50.53993" lon="3.8657">
        <ele>73.68</ele>
        <time>2017-02-05T09:23:57Z</time>
      </trkpt>
      <trkpt lat="50.5401" lon="3.86591">
        <ele>73.68</ele>
        <time>2017-02-05T09:24:14Z</time>
      </trkpt>
      <trkpt lat="50.54034" lon="3.86618">
        <ele>73.2</ele>
        <time>2017-02-05T09:24:35Z</time>
      </trkpt>
      <trkpt lat="50.54055" lon="3.86641">
        <ele>74.64</ele>
        <time>2017-02-05T09:24:53Z</time>
      </trkpt>
      <trkpt lat="50.5408" lon="3.8667">
        <ele>74.64</ele>
        <time>2017-02-05T09:25:15Z</time>
      </trkpt>
      <trkpt lat="50.54095" lon="3.86692">
        <ele>74.64</ele>
        <time>2017-02-05T09:25:31Z</time>
      </trkpt>
      <trkpt lat="50.5411" lon="3.86715">
        <ele>74.16</ele>
        <time>2017-02-05T09:25:49Z</time>
      </trkpt>
      <trkpt lat="50.54131" lon="3.86738">
        <ele>73.2</ele>
        <time>2017-02-05T09:26:07Z</time>
      </trkpt>
      <trkpt lat="50.54155" lon="3.86754">
        <ele>71.76</ele>
        <time>2017-02-05T09:26:26Z</time>
      </trkpt>
      <trkpt lat="50.54174" lon="3.86762">
        <ele>71.76</ele>
        <time>2017-02-05T09:26:42Z</time>
      </trkpt>
      <trkpt lat="50.54198" lon="3.86775">
        <ele>71.27</ele>
        <time>2017-02-05T09:27:00Z</time>
      </trkpt>
      <trkpt lat="50.54226" lon="3.86793">
        <ele>70.79</ele>
        <time>2017-02-05T09:27:22Z</time>
      </trkpt>
      <trkpt lat="50.54252" lon="3.86813">
        <ele>70.79</ele>
        <time>2017-02-05T09:27:43Z</time>
      </trkpt>
      <trkpt lat="50.54259" lon="3.86819">
        <ele>70.79</ele>
        <time>2017-02-05T09:27:49Z</time>
      </trkpt>
      <trkpt lat="50.5426" lon="3.8682">
        <ele>70.31</ele>
        <time>2017-02-05T09:27:50Z</time>
      </trkpt>
      <trkpt lat="50.54262" lon="3.86821">
        <ele>70.31</ele>
        <time>2017-02-05T09:27:51Z</time>
      </trkpt>
      <trkpt lat="50.54286" lon="3.86839">
        <ele>70.31</ele>
        <time>2017-02-05T09:28:09Z</time>
      </trkpt>
      <trkpt lat="50.54292" lon="3.86844">
        <ele>70.31</ele>
        <time>2017-02-05T09:28:14Z</time>
      </trkpt>
      <trkpt lat="50.54294" lon="3.86845">
        <ele>70.31</ele>
        <time>2017-02-05T09:28:15Z</time>
      </trkpt>
      <trkpt lat="50.54295" lon="3.86845">
        <ele>70.31</ele>
        <time>2017-02-05T09:28:16Z</time>
      </trkpt>
      <trkpt lat="50.54296" lon="3.86846">
        <ele>70.31</ele>
        <time>2017-02-05T09:28:17Z</time>
      </trkpt>
      <trkpt lat="50.54298" lon="3.86847">
        <ele>70.31</ele>
        <time>2017-02-05T09:28:18Z</time>
      </trkpt>
      <trkpt lat="50.54299" lon="3.86848">
        <ele>70.31</ele>
        <time>2017-02-05T09:28:19Z</time>
      </trkpt>
      <trkpt lat="50.543" lon="3.86849">
        <ele>70.31</ele>
        <time>2017-02-05T09:28:20Z</time>
      </trkpt>
      <trkpt lat="50.54302" lon="3.8685">
        <ele>70.31</ele>
        <time>2017-02-05T09:28:21Z</time>
      </trkpt>
      <trkpt lat="50.54324" lon="3.86868">
        <ele>69.83</ele>
        <time>2017-02-05T09:28:39Z</time>
      </trkpt>
      <trkpt lat="50.54346" lon="3.86881">
        <ele>69.83</ele>
        <time>2017-02-05T09:28:57Z</time>
      </trkpt>
      <trkpt lat="50.54366" lon="3.86891">
        <ele>69.83</ele>
        <time>2017-02-05T09:29:13Z</time>
      </trkpt>
      <trkpt lat="50.54368" lon="3.86891">
        <ele>69.83</ele>
        <time>2017-02-05T09:29:15Z</time>
      </trkpt>
      <trkpt lat="50.54369" lon="3.86892">
        <ele>69.83</ele>
        <time>2017-02-05T09:29:16Z</time>
      </trkpt>
      <trkpt lat="50.54382" lon="3.86895">
        <ele>69.83</ele>
        <time>2017-02-05T09:29:28Z</time>
      </trkpt>
      <trkpt lat="50.54402" lon="3.869">
        <ele>69.83</ele>
        <time>2017-02-05T09:29:42Z</time>
      </trkpt>
      <trkpt lat="50.54416" lon="3.86903">
        <ele>69.35</ele>
        <time>2017-02-05T09:29:58Z</time>
      </trkpt>
      <trkpt lat="50.54438" lon="3.86908">
        <ele>68.87</ele>
        <time>2017-02-05T09:30:13Z</time>
      </trkpt>
      <trkpt lat="50.54443" lon="3.86909">
        <ele>68.87</ele>
        <time>2017-02-05T09:30:17Z</time>
      </trkpt>
      <trkpt lat="50.54463" lon="3.8691">
        <ele>68.39</ele>
        <time>2017-02-05T09:30:33Z</time>
      </trkpt>
      <trkpt lat="50.54474" lon="3.86913">
        <ele>68.39</ele>
        <time>2017-02-05T09:30:41Z</time>
      </trkpt>
      <trkpt lat="50.5448" lon="3.86914">
        <ele>68.39</ele>
        <time>2017-02-05T09:30:46Z</time>
      </trkpt>
      <trkpt lat="50.54495" lon="3.86911">
        <ele>67.91</ele>
        <time>2017-02-05T09:31:00Z</time>
      </trkpt>
      <trkpt lat="50.5453" lon="3.86925">
        <ele>67.91</ele>
        <time>2017-02-05T09:31:16Z</time>
      </trkpt>
      <trkpt lat="50.54546" lon="3.86938">
        <ele>67.91</ele>
        <time>2017-02-05T09:31:28Z</time>
      </trkpt>
      <trkpt lat="50.54565" lon="3.86961">
        <ele>66.95</ele>
        <time>2017-02-05T09:31:46Z</time>
      </trkpt>
      <trkpt lat="50.54575" lon="3.86983">
        <ele>66.95</ele>
        <time>2017-02-05T09:31:58Z</time>
      </trkpt>
      <trkpt lat="50.54576" lon="3.86985">
        <ele>66.95</ele>
        <time>2017-02-05T09:31:59Z</time>
      </trkpt>
      <trkpt lat="50.54577" lon="3.86987">
        <ele>66.95</ele>
        <time>2017-02-05T09:32:00Z</time>
      </trkpt>
      <trkpt lat="50.54578" lon="3.86989">
        <ele>66.95</ele>
        <time>2017-02-05T09:32:01Z</time>
      </trkpt>
      <trkpt lat="50.54578" lon="3.8699">
        <ele>66.95</ele>
        <time>2017-02-05T09:32:02Z</time>
      </trkpt>
      <trkpt lat="50.54579" lon="3.86992">
        <ele>66.95</ele>
        <time>2017-02-05T09:32:03Z</time>
      </trkpt>
      <trkpt lat="50.5458" lon="3.86994">
        <ele>66.95</ele>
        <time>2017-02-05T09:32:04Z</time>
      </trkpt>
      <trkpt lat="50.54581" lon="3.86996">
        <ele>66.95</ele>
        <time>2017-02-05T09:32:05Z</time>
      </trkpt>
      <trkpt lat="50.5459" lon="3.87016">
        <ele>66.95</ele>
        <time>2017-02-05T09:32:17Z</time>
      </trkpt>
      <trkpt lat="50.5459" lon="3.87017">
        <ele>66.95</ele>
        <time>2017-02-05T09:32:18Z</time>
      </trkpt>
      <trkpt lat="50.54598" lon="3.87033">
        <ele>66.47</ele>
        <time>2017-02-05T09:32:26Z</time>
      </trkpt>
      <trkpt lat="50.54612" lon="3.87066">
        <ele>66.47</ele>
        <time>2017-02-05T09:32:43Z</time>
      </trkpt>
      <trkpt lat="50.54623" lon="3.87091">
        <ele>66.47</ele>
        <time>2017-02-05T09:32:58Z</time>
      </trkpt>
      <trkpt lat="50.54636" lon="3.8712">
        <ele>66.47</ele>
        <time>2017-02-05T09:33:14Z</time>
      </trkpt>
      <trkpt lat="50.54649" lon="3.8715">
        <ele>66.47</ele>
        <time>2017-02-05T09:33:31Z</time>
      </trkpt>
      <trkpt lat="50.54657" lon="3.87173">
        <ele>66.47</ele>
        <time>2017-02-05T09:33:44Z</time>
      </trkpt>
      <trkpt lat="50.54658" lon="3.87175">
        <ele>66.47</ele>
        <time>2017-02-05T09:33:45Z</time>
      </trkpt>
      <trkpt lat="50.54659" lon="3.87177">
        <ele>66.47</ele>
        <time>2017-02-05T09:33:46Z</time>
      </trkpt>
      <trkpt lat="50.54659" lon="3.87179">
        <ele>66.47</ele>
        <time>2017-02-05T09:33:47Z</time>
      </trkpt>
      <trkpt lat="50.5466" lon="3.87181">
        <ele>66.47</ele>
        <time>2017-02-05T09:33:48Z</time>
      </trkpt>
      <trkpt lat="50.54661" lon="3.87183">
        <ele>66.47</ele>
        <time>2017-02-05T09:33:49Z</time>
      </trkpt>
      <trkpt lat="50.54661" lon="3.87185">
        <ele>66.47</ele>
        <time>2017-02-05T09:33:50Z</time>
      </trkpt>
      <trkpt lat="50.54662" lon="3.87187">
        <ele>66.47</ele>
        <time>2017-02-05T09:33:51Z</time>
      </trkpt>
      <trkpt lat="50.54664" lon="3.87189">
        <ele>66.47</ele>
        <time>2017-02-05T09:33:52Z</time>
      </trkpt>
      <trkpt lat="50.54679" lon="3.87216">
        <ele>66.95</ele>
        <time>2017-02-05T09:34:08Z</time>
      </trkpt>
      <trkpt lat="50.54684" lon="3.87226">
        <ele>66.95</ele>
        <time>2017-02-05T09:34:14Z</time>
      </trkpt>
      <trkpt lat="50.54685" lon="3.87228">
        <ele>66.95</ele>
        <time>2017-02-05T09:34:15Z</time>
      </trkpt>
      <trkpt lat="50.54696" lon="3.87251">
        <ele>66.47</ele>
        <time>2017-02-05T09:34:30Z</time>
      </trkpt>
      <trkpt lat="50.54705" lon="3.87265">
        <ele>66.95</ele>
        <time>2017-02-05T09:34:39Z</time>
      </trkpt>
      <trkpt lat="50.54706" lon="3.87267">
        <ele>66.95</ele>
        <time>2017-02-05T09:34:40Z</time>
      </trkpt>
      <trkpt lat="50.54707" lon="3.87268">
        <ele>66.95</ele>
        <time>2017-02-05T09:34:41Z</time>
      </trkpt>
      <trkpt lat="50.54712" lon="3.87277">
        <ele>66.95</ele>
        <time>2017-02-05T09:34:46Z</time>
      </trkpt>
      <trkpt lat="50.54713" lon="3.87279">
        <ele>66.95</ele>
        <time>2017-02-05T09:34:47Z</time>
      </trkpt>
      <trkpt lat="50.54713" lon="3.87281">
        <ele>66.95</ele>
        <time>2017-02-05T09:34:48Z</time>
      </trkpt>
      <trkpt lat="50.54714" lon="3.87283">
        <ele>66.95</ele>
        <time>2017-02-05T09:34:49Z</time>
      </trkpt>
      <trkpt lat="50.54715" lon="3.87284">
        <ele>66.95</ele>
        <time>2017-02-05T09:34:50Z</time>
      </trkpt>
      <trkpt lat="50.54716" lon="3.87285">
        <ele>66.95</ele>
        <time>2017-02-05T09:34:51Z</time>
      </trkpt>
      <trkpt lat="50.54717" lon="3.87287">
        <ele>66.95</ele>
        <time>2017-02-05T09:34:52Z</time>
      </trkpt>
      <trkpt lat="50.54718" lon="3.87288">
        <ele>66.95</ele>
        <time>2017-02-05T09:34:53Z</time>
      </trkpt>
      <trkpt lat="50.54732" lon="3.87312">
        <ele>67.91</ele>
        <time>2017-02-05T09:35:08Z</time>
      </trkpt>
      <trkpt lat="50.54744" lon="3.87339">
        <ele>67.91</ele>
        <time>2017-02-05T09:35:22Z</time>
      </trkpt>
      <trkpt lat="50.54745" lon="3.87371">
        <ele>67.91</ele>
        <time>2017-02-05T09:35:35Z</time>
      </trkpt>
      <trkpt lat="50.54743" lon="3.87406">
        <ele>68.39</ele>
        <time>2017-02-05T09:35:54Z</time>
      </trkpt>
      <trkpt lat="50.54741" lon="3.87451">
        <ele>68.39</ele>
        <time>2017-02-05T09:36:15Z</time>
      </trkpt>
      <trkpt lat="50.54735" lon="3.87494">
        <ele>68.39</ele>
        <time>2017-02-05T09:36:36Z</time>
      </trkpt>
      <trkpt lat="50.54718" lon="3.8753">
        <ele>66.95</ele>
        <time>2017-02-05T09:36:57Z</time>
      </trkpt>
      <trkpt lat="50.54717" lon="3.87555">
        <ele>66.95</ele>
        <time>2017-02-05T09:37:11Z</time>
      </trkpt>
      <trkpt lat="50.54735" lon="3.87588">
        <ele>66.95</ele>
        <time>2017-02-05T09:37:31Z</time>
      </trkpt>
      <trkpt lat="50.54748" lon="3.87624">
        <ele>66.95</ele>
        <time>2017-02-05T09:37:49Z</time>
      </trkpt>
      <trkpt lat="50.54759" lon="3.87657">
        <ele>66.95</ele>
        <time>2017-02-05T09:38:06Z</time>
      </trkpt>
      <trkpt lat="50.54767" lon="3.87692">
        <ele>66.95</ele>
        <time>2017-02-05T09:38:23Z</time>
      </trkpt>
      <trkpt lat="50.54773" lon="3.87721">
        <ele>66.95</ele>
        <time>2017-02-05T09:38:38Z</time>
      </trkpt>
      <trkpt lat="50.54782" lon="3.87757">
        <ele>66.47</ele>
        <time>2017-02-05T09:38:56Z</time>
      </trkpt>
      <trkpt lat="50.54794" lon="3.87797">
        <ele>66.47</ele>
        <time>2017-02-05T09:39:14Z</time>
      </trkpt>
      <trkpt lat="50.54801" lon="3.87827">
        <ele>66.47</ele>
        <time>2017-02-05T09:39:30Z</time>
      </trkpt>
      <trkpt lat="50.54812" lon="3.87865">
        <ele>66.47</ele>
        <time>2017-02-05T09:39:51Z</time>
      </trkpt>
      <trkpt lat="50.54812" lon="3.87867">
        <ele>65.99</ele>
        <time>2017-02-05T09:39:52Z</time>
      </trkpt>
      <trkpt lat="50.54822" lon="3.87892">
        <ele>65.99</ele>
        <time>2017-02-05T09:40:05Z</time>
      </trkpt>
      <trkpt lat="50.54835" lon="3.87923">
        <ele>65.99</ele>
        <time>2017-02-05T09:40:24Z</time>
      </trkpt>
      <trkpt lat="50.54849" lon="3.87962">
        <ele>65.51</ele>
        <time>2017-02-05T09:40:44Z</time>
      </trkpt>
      <trkpt lat="50.54861" lon="3.87997">
        <ele>65.03</ele>
        <time>2017-02-05T09:41:02Z</time>
      </trkpt>
      <trkpt lat="50.54868" lon="3.88031">
        <ele>64.55</ele>
        <time>2017-02-05T09:41:19Z</time>
      </trkpt>
      <trkpt lat="50.54858" lon="3.88049">
        <ele>64.55</ele>
        <time>2017-02-05T09:41:32Z</time>
      </trkpt>
      <trkpt lat="50.54838" lon="3.88069">
        <ele>65.99</ele>
        <time>2017-02-05T09:41:48Z</time>
      </trkpt>
      <trkpt lat="50.54821" lon="3.88086">
        <ele>65.99</ele>
        <time>2017-02-05T09:42:04Z</time>
      </trkpt>
      <trkpt lat="50.54801" lon="3.88105">
        <ele>66.47</ele>
        <time>2017-02-05T09:42:20Z</time>
      </trkpt>
      <trkpt lat="50.54778" lon="3.88129">
        <ele>66.95</ele>
        <time>2017-02-05T09:42:40Z</time>
      </trkpt>
      <trkpt lat="50.54753" lon="3.88146">
        <ele>66.95</ele>
        <time>2017-02-05T09:43:01Z</time>
      </trkpt>
      <trkpt lat="50.54734" lon="3.88155">
        <ele>66.95</ele>
        <time>2017-02-05T09:43:15Z</time>
      </trkpt>
      <trkpt lat="50.54715" lon="3.88164">
        <ele>66.95</ele>
        <time>2017-02-05T09:43:30Z</time>
      </trkpt>
      <trkpt lat="50.5469" lon="3.88172">
        <ele>66.95</ele>
        <time>2017-02-05T09:43:48Z</time>
      </trkpt>
      <trkpt lat="50.54672" lon="3.88179">
        <ele>67.43</ele>
        <time>2017-02-05T09:44:03Z</time>
      </trkpt>
      <trkpt lat="50.54648" lon="3.88186">
        <ele>67.43</ele>
        <time>2017-02-05T09:44:20Z</time>
      </trkpt>
      <trkpt lat="50.54626" lon="3.8819">
        <ele>66.95</ele>
        <time>2017-02-05T09:44:36Z</time>
      </trkpt>
      <trkpt lat="50.54608" lon="3.88195">
        <ele>66.95</ele>
        <time>2017-02-05T09:44:51Z</time>
      </trkpt>
      <trkpt lat="50.54586" lon="3.88196">
        <ele>66.95</ele>
        <time>2017-02-05T09:45:07Z</time>
      </trkpt>
      <trkpt lat="50.54566" lon="3.88193">
        <ele>66.95</ele>
        <time>2017-02-05T09:45:22Z</time>
      </trkpt>
      <trkpt lat="50.54542" lon="3.88192">
        <ele>66.95</ele>
        <time>2017-02-05T09:45:40Z</time>
      </trkpt>
      <trkpt lat="50.54521" lon="3.88193">
        <ele>66.95</ele>
        <time>2017-02-05T09:45:56Z</time>
      </trkpt>
      <trkpt lat="50.54496" lon="3.88197">
        <ele>66.95</ele>
        <time>2017-02-05T09:46:12Z</time>
      </trkpt>
      <trkpt lat="50.54473" lon="3.88211">
        <ele>65.51</ele>
        <time>2017-02-05T09:46:31Z</time>
      </trkpt>
      <trkpt lat="50.54453" lon="3.88236">
        <ele>65.51</ele>
        <time>2017-02-05T09:46:47Z</time>
      </trkpt>
      <trkpt lat="50.54435" lon="3.88261">
        <ele>65.03</ele>
        <time>2017-02-05T09:47:04Z</time>
      </trkpt>
      <trkpt lat="50.5442" lon="3.88285">
        <ele>65.51</ele>
        <time>2017-02-05T09:47:19Z</time>
      </trkpt>
      <trkpt lat="50.54401" lon="3.88305">
        <ele>65.51</ele>
        <time>2017-02-05T09:47:36Z</time>
      </trkpt>
      <trkpt lat="50.54384" lon="3.88311">
        <ele>65.51</ele>
        <time>2017-02-05T09:47:50Z</time>
      </trkpt>
      <trkpt lat="50.54356" lon="3.88302">
        <ele>65.03</ele>
        <time>2017-02-05T09:48:10Z</time>
      </trkpt>
      <trkpt lat="50.54331" lon="3.8829">
        <ele>65.03</ele>
        <time>2017-02-05T09:48:28Z</time>
      </trkpt>
      <trkpt lat="50.54309" lon="3.88277">
        <ele>65.03</ele>
        <time>2017-02-05T09:48:46Z</time>
      </trkpt>
      <trkpt lat="50.54289" lon="3.88258">
        <ele>65.03</ele>
        <time>2017-02-05T09:49:04Z</time>
      </trkpt>
      <trkpt lat="50.54272" lon="3.88234">
        <ele>65.03</ele>
        <time>2017-02-05T09:49:20Z</time>
      </trkpt>
      <trkpt lat="50.54259" lon="3.88211">
        <ele>64.55</ele>
        <time>2017-02-05T09:49:34Z</time>
      </trkpt>
      <trkpt lat="50.54247" lon="3.88188">
        <ele>64.55</ele>
        <time>2017-02-05T09:49:48Z</time>
      </trkpt>
      <trkpt lat="50.54226" lon="3.88166">
        <ele>64.07</ele>
        <time>2017-02-05T09:50:06Z</time>
      </trkpt>
      <trkpt lat="50.54203" lon="3.88157">
        <ele>64.07</ele>
        <time>2017-02-05T09:50:23Z</time>
      </trkpt>
      <trkpt lat="50.5418" lon="3.88156">
        <ele>64.07</ele>
        <time>2017-02-05T09:50:41Z</time>
      </trkpt>
      <trkpt lat="50.54161" lon="3.88157">
        <ele>64.07</ele>
        <time>2017-02-05T09:50:56Z</time>
      </trkpt>
      <trkpt lat="50.54138" lon="3.88155">
        <ele>64.55</ele>
        <time>2017-02-05T09:51:12Z</time>
      </trkpt>
      <trkpt lat="50.54118" lon="3.88157">
        <ele>64.55</ele>
        <time>2017-02-05T09:51:27Z</time>
      </trkpt>
      <trkpt lat="50.54113" lon="3.88159">
        <ele>64.55</ele>
        <time>2017-02-05T09:51:31Z</time>
      </trkpt>
      <trkpt lat="50.54112" lon="3.88161">
        <ele>64.55</ele>
        <time>2017-02-05T09:51:32Z</time>
      </trkpt>
      <trkpt lat="50.54111" lon="3.88162">
        <ele>64.55</ele>
        <time>2017-02-05T09:51:33Z</time>
      </trkpt>
      <trkpt lat="50.54111" lon="3.88172">
        <ele>64.07</ele>
        <time>2017-02-05T09:51:45Z</time>
      </trkpt>
      <trkpt lat="50.54107" lon="3.8819">
        <ele>64.07</ele>
        <time>2017-02-05T09:51:58Z</time>
      </trkpt>
      <trkpt lat="50.54104" lon="3.88218">
        <ele>64.07</ele>
        <time>2017-02-05T09:52:12Z</time>
      </trkpt>
      <trkpt lat="50.54102" lon="3.88233">
        <ele>64.07</ele>
        <time>2017-02-05T09:52:23Z</time>
      </trkpt>
      <trkpt lat="50.54099" lon="3.88267">
        <ele>64.07</ele>
        <time>2017-02-05T09:52:39Z</time>
      </trkpt>
      <trkpt lat="50.54097" lon="3.88302">
        <ele>63.58</ele>
        <time>2017-02-05T09:52:56Z</time>
      </trkpt>
      <trkpt lat="50.54096" lon="3.88332">
        <ele>63.58</ele>
        <time>2017-02-05T09:53:11Z</time>
      </trkpt>
      <trkpt lat="50.54096" lon="3.88334">
        <ele>63.58</ele>
        <time>2017-02-05T09:53:12Z</time>
      </trkpt>
      <trkpt lat="50.54096" lon="3.88336">
        <ele>63.58</ele>
        <time>2017-02-05T09:53:13Z</time>
      </trkpt>
      <trkpt lat="50.54096" lon="3.88338">
        <ele>63.58</ele>
        <time>2017-02-05T09:53:14Z</time>
      </trkpt>
      <trkpt lat="50.54096" lon="3.8834">
        <ele>63.58</ele>
        <time>2017-02-05T09:53:15Z</time>
      </trkpt>
      <trkpt lat="50.54095" lon="3.88342">
        <ele>63.58</ele>
        <time>2017-02-05T09:53:16Z</time>
      </trkpt>
      <trkpt lat="50.54095" lon="3.88345">
        <ele>63.58</ele>
        <time>2017-02-05T09:53:17Z</time>
      </trkpt>
      <trkpt lat="50.54095" lon="3.88347">
        <ele>63.58</ele>
        <time>2017-02-05T09:53:18Z</time>
      </trkpt>
      <trkpt lat="50.54095" lon="3.88349">
        <ele>63.58</ele>
        <time>2017-02-05T09:53:19Z</time>
      </trkpt>
      <trkpt lat="50.54095" lon="3.88351">
        <ele>63.58</ele>
        <time>2017-02-05T09:53:20Z</time>
      </trkpt>
      <trkpt lat="50.54087" lon="3.88381">
        <ele>63.58</ele>
        <time>2017-02-05T09:53:35Z</time>
      </trkpt>
      <trkpt lat="50.54083" lon="3.88398">
        <ele>63.1</ele>
        <time>2017-02-05T09:53:43Z</time>
      </trkpt>
      <trkpt lat="50.54082" lon="3.884">
        <ele>63.1</ele>
        <time>2017-02-05T09:53:44Z</time>
      </trkpt>
      <trkpt lat="50.54082" lon="3.88402">
        <ele>63.1</ele>
        <time>2017-02-05T09:53:45Z</time>
      </trkpt>
      <trkpt lat="50.54078" lon="3.88436">
        <ele>62.62</ele>
        <time>2017-02-05T09:54:02Z</time>
      </trkpt>
      <trkpt lat="50.54078" lon="3.88465">
        <ele>62.62</ele>
        <time>2017-02-05T09:54:16Z</time>
      </trkpt>
      <trkpt lat="50.5408" lon="3.88506">
        <ele>62.62</ele>
        <time>2017-02-05T09:54:34Z</time>
      </trkpt>
      <trkpt lat="50.54088" lon="3.88523">
        <ele>62.62</ele>
        <time>2017-02-05T09:54:42Z</time>
      </trkpt>
      <trkpt lat="50.5409" lon="3.88523">
        <ele>62.62</ele>
        <time>2017-02-05T09:54:43Z</time>
      </trkpt>
      <trkpt lat="50.5411" lon="3.88527">
        <ele>62.14</ele>
        <time>2017-02-05T09:54:57Z</time>
      </trkpt>
      <trkpt lat="50.54111" lon="3.88528">
        <ele>62.14</ele>
        <time>2017-02-05T09:54:58Z</time>
      </trkpt>
      <trkpt lat="50.54112" lon="3.88529">
        <ele>62.14</ele>
        <time>2017-02-05T09:54:59Z</time>
      </trkpt>
      <trkpt lat="50.54113" lon="3.8853">
        <ele>62.14</ele>
        <time>2017-02-05T09:55:00Z</time>
      </trkpt>
      <trkpt lat="50.54114" lon="3.88531">
        <ele>62.14</ele>
        <time>2017-02-05T09:55:01Z</time>
      </trkpt>
      <trkpt lat="50.54119" lon="3.88537">
        <ele>62.62</ele>
        <time>2017-02-05T09:55:06Z</time>
      </trkpt>
      <trkpt lat="50.54119" lon="3.88539">
        <ele>62.14</ele>
        <time>2017-02-05T09:55:07Z</time>
      </trkpt>
      <trkpt lat="50.5413" lon="3.88578">
        <ele>62.14</ele>
        <time>2017-02-05T09:55:25Z</time>
      </trkpt>
      <trkpt lat="50.54138" lon="3.88617">
        <ele>62.14</ele>
        <time>2017-02-05T09:55:44Z</time>
      </trkpt>
      <trkpt lat="50.54143" lon="3.88658">
        <ele>62.14</ele>
        <time>2017-02-05T09:56:03Z</time>
      </trkpt>
      <trkpt lat="50.54142" lon="3.88704">
        <ele>61.66</ele>
        <time>2017-02-05T09:56:24Z</time>
      </trkpt>
      <trkpt lat="50.54139" lon="3.88729">
        <ele>61.18</ele>
        <time>2017-02-05T09:56:37Z</time>
      </trkpt>
      <trkpt lat="50.5414" lon="3.88749">
        <ele>61.18</ele>
        <time>2017-02-05T09:56:49Z</time>
      </trkpt>
      <trkpt lat="50.54141" lon="3.88767">
        <ele>60.7</ele>
        <time>2017-02-05T09:57:00Z</time>
      </trkpt>
      <trkpt lat="50.54141" lon="3.88784">
        <ele>60.7</ele>
        <time>2017-02-05T09:57:11Z</time>
      </trkpt>
      <trkpt lat="50.54137" lon="3.88812">
        <ele>60.22</ele>
        <time>2017-02-05T09:57:22Z</time>
      </trkpt>
      <trkpt lat="50.54128" lon="3.88852">
        <ele>59.74</ele>
        <time>2017-02-05T09:57:39Z</time>
      </trkpt>
      <trkpt lat="50.54122" lon="3.8888">
        <ele>59.74</ele>
        <time>2017-02-05T09:57:53Z</time>
      </trkpt>
      <trkpt lat="50.54121" lon="3.88887">
        <ele>59.74</ele>
        <time>2017-02-05T09:57:56Z</time>
      </trkpt>
      <trkpt lat="50.5412" lon="3.88892">
        <ele>59.74</ele>
        <time>2017-02-05T09:57:59Z</time>
      </trkpt>
      <trkpt lat="50.54113" lon="3.88912">
        <ele>59.74</ele>
        <time>2017-02-05T09:58:11Z</time>
      </trkpt>
      <trkpt lat="50.54111" lon="3.88945">
        <ele>59.26</ele>
        <time>2017-02-05T09:58:25Z</time>
      </trkpt>
      <trkpt lat="50.54112" lon="3.88947">
        <ele>59.26</ele>
        <time>2017-02-05T09:58:26Z</time>
      </trkpt>
      <trkpt lat="50.54113" lon="3.88983">
        <ele>58.78</ele>
        <time>2017-02-05T09:58:40Z</time>
      </trkpt>
      <trkpt lat="50.54114" lon="3.88995">
        <ele>58.78</ele>
        <time>2017-02-05T09:58:45Z</time>
      </trkpt>
      <trkpt lat="50.54114" lon="3.88998">
        <ele>58.78</ele>
        <time>2017-02-05T09:58:46Z</time>
      </trkpt>
      <trkpt lat="50.54119" lon="3.8903">
        <ele>58.78</ele>
        <time>2017-02-05T09:59:01Z</time>
      </trkpt>
      <trkpt lat="50.54133" lon="3.8905">
        <ele>60.22</ele>
        <time>2017-02-05T09:59:15Z</time>
      </trkpt>
      <trkpt lat="50.54139" lon="3.89052">
        <ele>60.22</ele>
        <time>2017-02-05T09:59:19Z</time>
      </trkpt>
      <trkpt lat="50.54143" lon="3.89054">
        <ele>60.22</ele>
        <time>2017-02-05T09:59:22Z</time>
      </trkpt>
      <trkpt lat="50.54144" lon="3.89054">
        <ele>60.22</ele>
        <time>2017-02-05T09:59:23Z</time>
      </trkpt>
      <trkpt lat="50.54146" lon="3.89054">
        <ele>60.22</ele>
        <time>2017-02-05T09:59:24Z</time>
      </trkpt>
      <trkpt lat="50.54147" lon="3.89055">
        <ele>60.22</ele>
        <time>2017-02-05T09:59:25Z</time>
      </trkpt>
      <trkpt lat="50.54148" lon="3.89056">
        <ele>60.22</ele>
        <time>2017-02-05T09:59:26Z</time>
      </trkpt>
      <trkpt lat="50.54149" lon="3.89058">
        <ele>60.22</ele>
        <time>2017-02-05T09:59:27Z</time>
      </trkpt>
      <trkpt lat="50.5415" lon="3.89058">
        <ele>60.22</ele>
        <time>2017-02-05T09:59:28Z</time>
      </trkpt>
      <trkpt lat="50.54169" lon="3.89067">
        <ele>60.7</ele>
        <time>2017-02-05T09:59:43Z</time>
      </trkpt>
      <trkpt lat="50.54188" lon="3.89076">
        <ele>61.18</ele>
        <time>2017-02-05T09:59:58Z</time>
      </trkpt>
      <trkpt lat="50.54206" lon="3.89084">
        <ele>61.66</ele>
        <time>2017-02-05T10:00:14Z</time>
      </trkpt>
      <trkpt lat="50.5423" lon="3.89092">
        <ele>62.14</ele>
        <time>2017-02-05T10:00:31Z</time>
      </trkpt>
      <trkpt lat="50.54251" lon="3.89095">
        <ele>62.14</ele>
        <time>2017-02-05T10:00:47Z</time>
      </trkpt>
      <trkpt lat="50.54269" lon="3.89098">
        <ele>62.14</ele>
        <time>2017-02-05T10:01:00Z</time>
      </trkpt>
      <trkpt lat="50.54289" lon="3.89098">
        <ele>62.14</ele>
        <time>2017-02-05T10:01:15Z</time>
      </trkpt>
      <trkpt lat="50.54314" lon="3.89104">
        <ele>62.14</ele>
        <time>2017-02-05T10:01:32Z</time>
      </trkpt>
      <trkpt lat="50.54342" lon="3.89107">
        <ele>62.14</ele>
        <time>2017-02-05T10:01:50Z</time>
      </trkpt>
      <trkpt lat="50.54368" lon="3.8911">
        <ele>62.14</ele>
        <time>2017-02-05T10:02:07Z</time>
      </trkpt>
      <trkpt lat="50.54385" lon="3.89116">
        <ele>62.62</ele>
        <time>2017-02-05T10:02:19Z</time>
      </trkpt>
      <trkpt lat="50.54405" lon="3.89122">
        <ele>62.62</ele>
        <time>2017-02-05T10:02:35Z</time>
      </trkpt>
      <trkpt lat="50.54427" lon="3.89125">
        <ele>62.62</ele>
        <time>2017-02-05T10:02:51Z</time>
      </trkpt>
      <trkpt lat="50.54444" lon="3.8913">
        <ele>62.62</ele>
        <time>2017-02-05T10:03:07Z</time>
      </trkpt>
      <trkpt lat="50.54467" lon="3.89131">
        <ele>62.62</ele>
        <time>2017-02-05T10:03:20Z</time>
      </trkpt>
      <trkpt lat="50.54489" lon="3.89135">
        <ele>61.66</ele>
        <time>2017-02-05T10:03:35Z</time>
      </trkpt>
      <trkpt lat="50.54513" lon="3.89141">
        <ele>61.18</ele>
        <time>2017-02-05T10:03:52Z</time>
      </trkpt>
      <trkpt lat="50.54533" lon="3.8915">
        <ele>60.7</ele>
        <time>2017-02-05T10:04:10Z</time>
      </trkpt>
      <trkpt lat="50.5455" lon="3.89157">
        <ele>60.7</ele>
        <time>2017-02-05T10:04:23Z</time>
      </trkpt>
      <trkpt lat="50.54566" lon="3.89165">
        <ele>59.74</ele>
        <time>2017-02-05T10:04:36Z</time>
      </trkpt>
      <trkpt lat="50.54585" lon="3.89173">
        <ele>59.74</ele>
        <time>2017-02-05T10:04:50Z</time>
      </trkpt>
      <trkpt lat="50.54606" lon="3.89177">
        <ele>59.26</ele>
        <time>2017-02-05T10:05:05Z</time>
      </trkpt>
      <trkpt lat="50.5463" lon="3.89182">
        <ele>58.78</ele>
        <time>2017-02-05T10:05:21Z</time>
      </trkpt>
      <trkpt lat="50.54649" lon="3.89194">
        <ele>58.3</ele>
        <time>2017-02-05T10:05:36Z</time>
      </trkpt>
      <trkpt lat="50.54667" lon="3.89206">
        <ele>58.3</ele>
        <time>2017-02-05T10:05:52Z</time>
      </trkpt>
      <trkpt lat="50.54688" lon="3.89212">
        <ele>58.3</ele>
        <time>2017-02-05T10:06:05Z</time>
      </trkpt>
      <trkpt lat="50.54701" lon="3.89219">
        <ele>58.78</ele>
        <time>2017-02-05T10:06:18Z</time>
      </trkpt>
      <trkpt lat="50.54702" lon="3.89224">
        <ele>58.78</ele>
        <time>2017-02-05T10:06:21Z</time>
      </trkpt>
      <trkpt lat="50.54704" lon="3.89246">
        <ele>58.78</ele>
        <time>2017-02-05T10:06:33Z</time>
      </trkpt>
      <trkpt lat="50.54706" lon="3.89265">
        <ele>58.78</ele>
        <time>2017-02-05T10:06:45Z</time>
      </trkpt>
      <trkpt lat="50.54705" lon="3.89268">
        <ele>58.78</ele>
        <time>2017-02-05T10:06:46Z</time>
      </trkpt>
      <trkpt lat="50.54705" lon="3.8927">
        <ele>58.78</ele>
        <time>2017-02-05T10:06:47Z</time>
      </trkpt>
      <trkpt lat="50.54705" lon="3.89272">
        <ele>58.78</ele>
        <time>2017-02-05T10:06:48Z</time>
      </trkpt>
      <trkpt lat="50.54705" lon="3.89275">
        <ele>58.78</ele>
        <time>2017-02-05T10:06:49Z</time>
      </trkpt>
      <trkpt lat="50.54705" lon="3.89296">
        <ele>58.3</ele>
        <time>2017-02-05T10:06:58Z</time>
      </trkpt>
      <trkpt lat="50.54705" lon="3.89301">
        <ele>58.3</ele>
        <time>2017-02-05T10:07:01Z</time>
      </trkpt>
      <trkpt lat="50.54705" lon="3.89318">
        <ele>58.3</ele>
        <time>2017-02-05T10:07:12Z</time>
      </trkpt>
      <trkpt lat="50.54707" lon="3.89338">
        <ele>57.82</ele>
        <time>2017-02-05T10:07:22Z</time>
      </trkpt>
      <trkpt lat="50.54707" lon="3.89346">
        <ele>57.82</ele>
        <time>2017-02-05T10:07:25Z</time>
      </trkpt>
      <trkpt lat="50.54708" lon="3.89348">
        <ele>57.82</ele>
        <time>2017-02-05T10:07:26Z</time>
      </trkpt>
      <trkpt lat="50.54708" lon="3.89365">
        <ele>57.82</ele>
        <time>2017-02-05T10:07:33Z</time>
      </trkpt>
      <trkpt lat="50.54708" lon="3.89367">
        <ele>57.82</ele>
        <time>2017-02-05T10:07:34Z</time>
      </trkpt>
      <trkpt lat="50.54713" lon="3.89386">
        <ele>57.34</ele>
        <time>2017-02-05T10:07:45Z</time>
      </trkpt>
      <trkpt lat="50.5472" lon="3.89407">
        <ele>57.34</ele>
        <time>2017-02-05T10:07:58Z</time>
      </trkpt>
      <trkpt lat="50.54724" lon="3.89434">
        <ele>57.34</ele>
        <time>2017-02-05T10:08:10Z</time>
      </trkpt>
      <trkpt lat="50.54726" lon="3.89455">
        <ele>56.86</ele>
        <time>2017-02-05T10:08:21Z</time>
      </trkpt>
      <trkpt lat="50.54728" lon="3.8947">
        <ele>56.86</ele>
        <time>2017-02-05T10:08:41Z</time>
      </trkpt>
      <trkpt lat="50.5473" lon="3.89469">
        <ele>56.86</ele>
        <time>2017-02-05T10:09:00Z</time>
      </trkpt>
      <trkpt lat="50.54728" lon="3.89472">
        <ele>56.86</ele>
        <time>2017-02-05T10:09:18Z</time>
      </trkpt>
      <trkpt lat="50.54725" lon="3.89473">
        <ele>56.86</ele>
        <time>2017-02-05T10:09:34Z</time>
      </trkpt>
      <trkpt lat="50.54728" lon="3.89478">
        <ele>56.86</ele>
        <time>2017-02-05T10:09:58Z</time>
      </trkpt>
      <trkpt lat="50.54724" lon="3.89476">
        <ele>56.86</ele>
        <time>2017-02-05T10:10:30Z</time>
      </trkpt>
      <trkpt lat="50.54722" lon="3.89473">
        <ele>56.86</ele>
        <time>2017-02-05T10:10:52Z</time>
      </trkpt>
      <trkpt lat="50.54731" lon="3.89466">
        <ele>56.86</ele>
        <time>2017-02-05T10:11:20Z</time>
      </trkpt>
      <trkpt lat="50.54728" lon="3.89479">
        <ele>56.37</ele>
        <time>2017-02-05T10:11:42Z</time>
      </trkpt>
      <trkpt lat="50.54727" lon="3.895">
        <ele>56.37</ele>
        <time>2017-02-05T10:11:56Z</time>
      </trkpt>
      <trkpt lat="50.5473" lon="3.8952">
        <ele>56.86</ele>
        <time>2017-02-05T10:12:12Z</time>
      </trkpt>
      <trkpt lat="50.54731" lon="3.89522">
        <ele>56.86</ele>
        <time>2017-02-05T10:12:13Z</time>
      </trkpt>
      <trkpt lat="50.54732" lon="3.89524">
        <ele>56.86</ele>
        <time>2017-02-05T10:12:14Z</time>
      </trkpt>
      <trkpt lat="50.54742" lon="3.8954">
        <ele>56.86</ele>
        <time>2017-02-05T10:12:27Z</time>
      </trkpt>
      <trkpt lat="50.54754" lon="3.89549">
        <ele>57.34</ele>
        <time>2017-02-05T10:12:37Z</time>
      </trkpt>
      <trkpt lat="50.54774" lon="3.89562">
        <ele>57.34</ele>
        <time>2017-02-05T10:12:53Z</time>
      </trkpt>
      <trkpt lat="50.54785" lon="3.89571">
        <ele>57.34</ele>
        <time>2017-02-05T10:13:06Z</time>
      </trkpt>
      <trkpt lat="50.54802" lon="3.89585">
        <ele>58.78</ele>
        <time>2017-02-05T10:13:21Z</time>
      </trkpt>
      <trkpt lat="50.54816" lon="3.89598">
        <ele>58.78</ele>
        <time>2017-02-05T10:13:34Z</time>
      </trkpt>
      <trkpt lat="50.54817" lon="3.89599">
        <ele>58.78</ele>
        <time>2017-02-05T10:13:35Z</time>
      </trkpt>
      <trkpt lat="50.5482" lon="3.89602">
        <ele>58.78</ele>
        <time>2017-02-05T10:13:38Z</time>
      </trkpt>
      <trkpt lat="50.54829" lon="3.89614">
        <ele>58.78</ele>
        <time>2017-02-05T10:13:47Z</time>
      </trkpt>
      <trkpt lat="50.54829" lon="3.89617">
        <ele>58.78</ele>
        <time>2017-02-05T10:13:48Z</time>
      </trkpt>
      <trkpt lat="50.5483" lon="3.89619">
        <ele>58.78</ele>
        <time>2017-02-05T10:13:49Z</time>
      </trkpt>
      <trkpt lat="50.54831" lon="3.89622">
        <ele>58.78</ele>
        <time>2017-02-05T10:13:50Z</time>
      </trkpt>
      <trkpt lat="50.54832" lon="3.89623">
        <ele>58.78</ele>
        <time>2017-02-05T10:13:51Z</time>
      </trkpt>
      <trkpt lat="50.54833" lon="3.89625">
        <ele>58.78</ele>
        <time>2017-02-05T10:13:52Z</time>
      </trkpt>
      <trkpt lat="50.5484" lon="3.89636">
        <ele>58.78</ele>
        <time>2017-02-05T10:14:00Z</time>
      </trkpt>
      <trkpt lat="50.54845" lon="3.89643">
        <ele>58.78</ele>
        <time>2017-02-05T10:14:06Z</time>
      </trkpt>
      <trkpt lat="50.54846" lon="3.89644">
        <ele>58.78</ele>
        <time>2017-02-05T10:14:07Z</time>
      </trkpt>
      <trkpt lat="50.54854" lon="3.89658">
        <ele>58.78</ele>
        <time>2017-02-05T10:14:16Z</time>
      </trkpt>
      <trkpt lat="50.54855" lon="3.89659">
        <ele>58.78</ele>
        <time>2017-02-05T10:14:17Z</time>
      </trkpt>
      <trkpt lat="50.54856" lon="3.8966">
        <ele>58.78</ele>
        <time>2017-02-05T10:14:18Z</time>
      </trkpt>
      <trkpt lat="50.54864" lon="3.89676">
        <ele>58.78</ele>
        <time>2017-02-05T10:14:28Z</time>
      </trkpt>
      <trkpt lat="50.54865" lon="3.89677">
        <ele>57.82</ele>
        <time>2017-02-05T10:14:29Z</time>
      </trkpt>
      <trkpt lat="50.54867" lon="3.89678">
        <ele>57.82</ele>
        <time>2017-02-05T10:14:30Z</time>
      </trkpt>
      <trkpt lat="50.54868" lon="3.8968">
        <ele>57.34</ele>
        <time>2017-02-05T10:14:31Z</time>
      </trkpt>
      <trkpt lat="50.54869" lon="3.89682">
        <ele>57.34</ele>
        <time>2017-02-05T10:14:32Z</time>
      </trkpt>
      <trkpt lat="50.5487" lon="3.89684">
        <ele>57.34</ele>
        <time>2017-02-05T10:14:33Z</time>
      </trkpt>
      <trkpt lat="50.54871" lon="3.89685">
        <ele>57.34</ele>
        <time>2017-02-05T10:14:34Z</time>
      </trkpt>
      <trkpt lat="50.54879" lon="3.89696">
        <ele>58.78</ele>
        <time>2017-02-05T10:14:42Z</time>
      </trkpt>
      <trkpt lat="50.5488" lon="3.89697">
        <ele>58.3</ele>
        <time>2017-02-05T10:14:43Z</time>
      </trkpt>
      <trkpt lat="50.54881" lon="3.89699">
        <ele>58.78</ele>
        <time>2017-02-05T10:14:44Z</time>
      </trkpt>
      <trkpt lat="50.54882" lon="3.897">
        <ele>58.3</ele>
        <time>2017-02-05T10:14:45Z</time>
      </trkpt>
      <trkpt lat="50.54883" lon="3.89701">
        <ele>58.3</ele>
        <time>2017-02-05T10:14:46Z</time>
      </trkpt>
      <trkpt lat="50.54894" lon="3.89708">
        <ele>58.78</ele>
        <time>2017-02-05T10:14:55Z</time>
      </trkpt>
      <trkpt lat="50.54895" lon="3.89709">
        <ele>58.78</ele>
        <time>2017-02-05T10:14:56Z</time>
      </trkpt>
      <trkpt lat="50.54901" lon="3.89711">
        <ele>58.78</ele>
        <time>2017-02-05T10:15:01Z</time>
      </trkpt>
      <trkpt lat="50.54902" lon="3.89712">
        <ele>58.78</ele>
        <time>2017-02-05T10:15:02Z</time>
      </trkpt>
      <trkpt lat="50.54903" lon="3.89713">
        <ele>58.78</ele>
        <time>2017-02-05T10:15:03Z</time>
      </trkpt>
      <trkpt lat="50.54909" lon="3.8972">
        <ele>58.78</ele>
        <time>2017-02-05T10:15:09Z</time>
      </trkpt>
      <trkpt lat="50.5491" lon="3.89722">
        <ele>59.26</ele>
        <time>2017-02-05T10:15:10Z</time>
      </trkpt>
      <trkpt lat="50.54911" lon="3.89723">
        <ele>59.26</ele>
        <time>2017-02-05T10:15:11Z</time>
      </trkpt>
      <trkpt lat="50.54912" lon="3.89725">
        <ele>59.26</ele>
        <time>2017-02-05T10:15:12Z</time>
      </trkpt>
      <trkpt lat="50.54913" lon="3.89725">
        <ele>59.26</ele>
        <time>2017-02-05T10:15:13Z</time>
      </trkpt>
      <trkpt lat="50.54914" lon="3.89726">
        <ele>59.26</ele>
        <time>2017-02-05T10:15:14Z</time>
      </trkpt>
      <trkpt lat="50.54916" lon="3.89727">
        <ele>59.26</ele>
        <time>2017-02-05T10:15:15Z</time>
      </trkpt>
      <trkpt lat="50.54917" lon="3.89728">
        <ele>59.26</ele>
        <time>2017-02-05T10:15:16Z</time>
      </trkpt>
      <trkpt lat="50.54918" lon="3.89729">
        <ele>58.78</ele>
        <time>2017-02-05T10:15:17Z</time>
      </trkpt>
      <trkpt lat="50.54919" lon="3.8973">
        <ele>59.26</ele>
        <time>2017-02-05T10:15:18Z</time>
      </trkpt>
      <trkpt lat="50.5492" lon="3.89731">
        <ele>59.26</ele>
        <time>2017-02-05T10:15:19Z</time>
      </trkpt>
      <trkpt lat="50.54924" lon="3.89735">
        <ele>59.74</ele>
        <time>2017-02-05T10:15:23Z</time>
      </trkpt>
      <trkpt lat="50.54932" lon="3.89743">
        <ele>59.74</ele>
        <time>2017-02-05T10:15:30Z</time>
      </trkpt>
      <trkpt lat="50.54933" lon="3.89745">
        <ele>59.74</ele>
        <time>2017-02-05T10:15:31Z</time>
      </trkpt>
      <trkpt lat="50.54934" lon="3.89746">
        <ele>59.74</ele>
        <time>2017-02-05T10:15:32Z</time>
      </trkpt>
      <trkpt lat="50.54935" lon="3.89747">
        <ele>59.74</ele>
        <time>2017-02-05T10:15:33Z</time>
      </trkpt>
      <trkpt lat="50.54936" lon="3.89748">
        <ele>59.74</ele>
        <time>2017-02-05T10:15:34Z</time>
      </trkpt>
      <trkpt lat="50.54944" lon="3.89757">
        <ele>60.22</ele>
        <time>2017-02-05T10:15:41Z</time>
      </trkpt>
      <trkpt lat="50.54953" lon="3.89778">
        <ele>60.7</ele>
        <time>2017-02-05T10:15:54Z</time>
      </trkpt>
      <trkpt lat="50.54961" lon="3.89801">
        <ele>61.66</ele>
        <time>2017-02-05T10:16:07Z</time>
      </trkpt>
      <trkpt lat="50.5496" lon="3.89809">
        <ele>61.66</ele>
        <time>2017-02-05T10:16:13Z</time>
      </trkpt>
      <trkpt lat="50.5495" lon="3.89837">
        <ele>62.62</ele>
        <time>2017-02-05T10:16:28Z</time>
      </trkpt>
      <trkpt lat="50.5494" lon="3.89867">
        <ele>64.07</ele>
        <time>2017-02-05T10:16:44Z</time>
      </trkpt>
      <trkpt lat="50.54932" lon="3.89894">
        <ele>64.07</ele>
        <time>2017-02-05T10:16:59Z</time>
      </trkpt>
      <trkpt lat="50.54922" lon="3.89921">
        <ele>64.55</ele>
        <time>2017-02-05T10:17:14Z</time>
      </trkpt>
      <trkpt lat="50.54914" lon="3.89946">
        <ele>64.55</ele>
        <time>2017-02-05T10:17:26Z</time>
      </trkpt>
      <trkpt lat="50.54909" lon="3.89981">
        <ele>65.03</ele>
        <time>2017-02-05T10:17:43Z</time>
      </trkpt>
      <trkpt lat="50.549" lon="3.90014">
        <ele>65.51</ele>
        <time>2017-02-05T10:18:01Z</time>
      </trkpt>
      <trkpt lat="50.54894" lon="3.90052">
        <ele>65.99</ele>
        <time>2017-02-05T10:18:19Z</time>
      </trkpt>
      <trkpt lat="50.54891" lon="3.90089">
        <ele>65.99</ele>
        <time>2017-02-05T10:18:36Z</time>
      </trkpt>
      <trkpt lat="50.54888" lon="3.90123">
        <ele>66.47</ele>
        <time>2017-02-05T10:18:53Z</time>
      </trkpt>
      <trkpt lat="50.54888" lon="3.90152">
        <ele>66.47</ele>
        <time>2017-02-05T10:19:07Z</time>
      </trkpt>
      <trkpt lat="50.54885" lon="3.90184">
        <ele>66.95</ele>
        <time>2017-02-05T10:19:23Z</time>
      </trkpt>
      <trkpt lat="50.54884" lon="3.902">
        <ele>66.95</ele>
        <time>2017-02-05T10:19:34Z</time>
      </trkpt>
      <trkpt lat="50.54884" lon="3.90202">
        <ele>66.95</ele>
        <time>2017-02-05T10:19:35Z</time>
      </trkpt>
      <trkpt lat="50.54897" lon="3.90222">
        <ele>66.95</ele>
        <time>2017-02-05T10:19:50Z</time>
      </trkpt>
      <trkpt lat="50.54898" lon="3.90226">
        <ele>66.95</ele>
        <time>2017-02-05T10:20:01Z</time>
      </trkpt>
      <trkpt lat="50.54901" lon="3.90234">
        <ele>66.95</ele>
        <time>2017-02-05T10:20:10Z</time>
      </trkpt>
      <trkpt lat="50.549" lon="3.90235">
        <ele>66.95</ele>
        <time>2017-02-05T10:20:11Z</time>
      </trkpt>
      <trkpt lat="50.54899" lon="3.90235">
        <ele>66.95</ele>
        <time>2017-02-05T10:20:12Z</time>
      </trkpt>
      <trkpt lat="50.54897" lon="3.90235">
        <ele>66.95</ele>
        <time>2017-02-05T10:20:13Z</time>
      </trkpt>
      <trkpt lat="50.54896" lon="3.90237">
        <ele>66.95</ele>
        <time>2017-02-05T10:20:24Z</time>
      </trkpt>
      <trkpt lat="50.54892" lon="3.90237">
        <ele>66.95</ele>
        <time>2017-02-05T10:20:45Z</time>
      </trkpt>
      <trkpt lat="50.54877" lon="3.90244">
        <ele>67.43</ele>
        <time>2017-02-05T10:20:55Z</time>
      </trkpt>
      <trkpt lat="50.54875" lon="3.90244">
        <ele>67.43</ele>
        <time>2017-02-05T10:20:56Z</time>
      </trkpt>
      <trkpt lat="50.54856" lon="3.90248">
        <ele>67.91</ele>
        <time>2017-02-05T10:21:11Z</time>
      </trkpt>
      <trkpt lat="50.54849" lon="3.9025">
        <ele>67.91</ele>
        <time>2017-02-05T10:21:16Z</time>
      </trkpt>
      <trkpt lat="50.54848" lon="3.90251">
        <ele>67.91</ele>
        <time>2017-02-05T10:21:17Z</time>
      </trkpt>
      <trkpt lat="50.54824" lon="3.90258">
        <ele>67.91</ele>
        <time>2017-02-05T10:21:35Z</time>
      </trkpt>
      <trkpt lat="50.54801" lon="3.90264">
        <ele>68.39</ele>
        <time>2017-02-05T10:21:53Z</time>
      </trkpt>
      <trkpt lat="50.54774" lon="3.90271">
        <ele>68.39</ele>
        <time>2017-02-05T10:22:12Z</time>
      </trkpt>
      <trkpt lat="50.54756" lon="3.90274">
        <ele>68.39</ele>
        <time>2017-02-05T10:22:26Z</time>
      </trkpt>
      <trkpt lat="50.54739" lon="3.90279">
        <ele>68.87</ele>
        <time>2017-02-05T10:22:40Z</time>
      </trkpt>
      <trkpt lat="50.5473" lon="3.90281">
        <ele>67.43</ele>
        <time>2017-02-05T10:22:47Z</time>
      </trkpt>
      <trkpt lat="50.54721" lon="3.90285">
        <ele>68.39</ele>
        <time>2017-02-05T10:22:58Z</time>
      </trkpt>
      <trkpt lat="50.5472" lon="3.90285">
        <ele>68.39</ele>
        <time>2017-02-05T10:22:59Z</time>
      </trkpt>
      <trkpt lat="50.54692" lon="3.90293">
        <ele>68.39</ele>
        <time>2017-02-05T10:23:21Z</time>
      </trkpt>
      <trkpt lat="50.54675" lon="3.90297">
        <ele>67.43</ele>
        <time>2017-02-05T10:23:34Z</time>
      </trkpt>
      <trkpt lat="50.54657" lon="3.90302">
        <ele>68.39</ele>
        <time>2017-02-05T10:23:48Z</time>
      </trkpt>
      <trkpt lat="50.54638" lon="3.90307">
        <ele>68.39</ele>
        <time>2017-02-05T10:24:03Z</time>
      </trkpt>
      <trkpt lat="50.54615" lon="3.90314">
        <ele>68.39</ele>
        <time>2017-02-05T10:24:20Z</time>
      </trkpt>
      <trkpt lat="50.54596" lon="3.90319">
        <ele>66.95</ele>
        <time>2017-02-05T10:24:35Z</time>
      </trkpt>
      <trkpt lat="50.54578" lon="3.90322">
        <ele>66.95</ele>
        <time>2017-02-05T10:24:48Z</time>
      </trkpt>
      <trkpt lat="50.54569" lon="3.90323">
        <ele>66.95</ele>
        <time>2017-02-05T10:24:55Z</time>
      </trkpt>
      <trkpt lat="50.54567" lon="3.90323">
        <ele>66.95</ele>
        <time>2017-02-05T10:24:56Z</time>
      </trkpt>
      <trkpt lat="50.54566" lon="3.90323">
        <ele>66.95</ele>
        <time>2017-02-05T10:24:57Z</time>
      </trkpt>
      <trkpt lat="50.54546" lon="3.90328">
        <ele>66.47</ele>
        <time>2017-02-05T10:25:13Z</time>
      </trkpt>
      <trkpt lat="50.54529" lon="3.90331">
        <ele>67.43</ele>
        <time>2017-02-05T10:25:25Z</time>
      </trkpt>
      <trkpt lat="50.54505" lon="3.90335">
        <ele>67.43</ele>
        <time>2017-02-05T10:25:43Z</time>
      </trkpt>
      <trkpt lat="50.54495" lon="3.90339">
        <ele>65.03</ele>
        <time>2017-02-05T10:25:51Z</time>
      </trkpt>
      <trkpt lat="50.54492" lon="3.90339">
        <ele>66.47</ele>
        <time>2017-02-05T10:25:54Z</time>
      </trkpt>
      <trkpt lat="50.54472" lon="3.90343">
        <ele>66.47</ele>
        <time>2017-02-05T10:26:09Z</time>
      </trkpt>
      <trkpt lat="50.54469" lon="3.90343">
        <ele>65.03</ele>
        <time>2017-02-05T10:26:12Z</time>
      </trkpt>
      <trkpt lat="50.5445" lon="3.90342">
        <ele>66.47</ele>
        <time>2017-02-05T10:26:27Z</time>
      </trkpt>
      <trkpt lat="50.54447" lon="3.90342">
        <ele>65.03</ele>
        <time>2017-02-05T10:26:29Z</time>
      </trkpt>
      <trkpt lat="50.54441" lon="3.90342">
        <ele>66.47</ele>
        <time>2017-02-05T10:26:33Z</time>
      </trkpt>
      <trkpt lat="50.54434" lon="3.90343">
        <ele>64.55</ele>
        <time>2017-02-05T10:26:38Z</time>
      </trkpt>
      <trkpt lat="50.54426" lon="3.90342">
        <ele>65.99</ele>
        <time>2017-02-05T10:26:44Z</time>
      </trkpt>
      <trkpt lat="50.54413" lon="3.90342">
        <ele>64.07</ele>
        <time>2017-02-05T10:26:55Z</time>
      </trkpt>
      <trkpt lat="50.54412" lon="3.90342">
        <ele>64.07</ele>
        <time>2017-02-05T10:26:56Z</time>
      </trkpt>
      <trkpt lat="50.5441" lon="3.90342">
        <ele>64.07</ele>
        <time>2017-02-05T10:26:57Z</time>
      </trkpt>
      <trkpt lat="50.54408" lon="3.90342">
        <ele>65.51</ele>
        <time>2017-02-05T10:26:59Z</time>
      </trkpt>
      <trkpt lat="50.54388" lon="3.90339">
        <ele>65.51</ele>
        <time>2017-02-05T10:27:15Z</time>
      </trkpt>
      <trkpt lat="50.54382" lon="3.90339">
        <ele>64.07</ele>
        <time>2017-02-05T10:27:20Z</time>
      </trkpt>
      <trkpt lat="50.54378" lon="3.90338">
        <ele>65.03</ele>
        <time>2017-02-05T10:27:23Z</time>
      </trkpt>
      <trkpt lat="50.54362" lon="3.90337">
        <ele>63.58</ele>
        <time>2017-02-05T10:27:36Z</time>
      </trkpt>
      <trkpt lat="50.54353" lon="3.90336">
        <ele>63.58</ele>
        <time>2017-02-05T10:27:43Z</time>
      </trkpt>
      <trkpt lat="50.54349" lon="3.90335">
        <ele>65.03</ele>
        <time>2017-02-05T10:27:46Z</time>
      </trkpt>
      <trkpt lat="50.54329" lon="3.90333">
        <ele>63.58</ele>
        <time>2017-02-05T10:28:02Z</time>
      </trkpt>
      <trkpt lat="50.54317" lon="3.90334">
        <ele>64.55</ele>
        <time>2017-02-05T10:28:11Z</time>
      </trkpt>
      <trkpt lat="50.54293" lon="3.90334">
        <ele>64.55</ele>
        <time>2017-02-05T10:28:29Z</time>
      </trkpt>
      <trkpt lat="50.54272" lon="3.90334">
        <ele>63.1</ele>
        <time>2017-02-05T10:28:45Z</time>
      </trkpt>
      <trkpt lat="50.54249" lon="3.90334">
        <ele>63.58</ele>
        <time>2017-02-05T10:29:03Z</time>
      </trkpt>
      <trkpt lat="50.54225" lon="3.90338">
        <ele>63.1</ele>
        <time>2017-02-05T10:29:21Z</time>
      </trkpt>
      <trkpt lat="50.54213" lon="3.90342">
        <ele>62.14</ele>
        <time>2017-02-05T10:29:31Z</time>
      </trkpt>
      <trkpt lat="50.54193" lon="3.90344">
        <ele>63.58</ele>
        <time>2017-02-05T10:29:47Z</time>
      </trkpt>
      <trkpt lat="50.54173" lon="3.90347">
        <ele>63.58</ele>
        <time>2017-02-05T10:30:02Z</time>
      </trkpt>
      <trkpt lat="50.54149" lon="3.90349">
        <ele>63.58</ele>
        <time>2017-02-05T10:30:20Z</time>
      </trkpt>
      <trkpt lat="50.54129" lon="3.90351">
        <ele>64.55</ele>
        <time>2017-02-05T10:30:36Z</time>
      </trkpt>
      <trkpt lat="50.54128" lon="3.9035">
        <ele>63.1</ele>
        <time>2017-02-05T10:30:37Z</time>
      </trkpt>
      <trkpt lat="50.54127" lon="3.9035">
        <ele>63.1</ele>
        <time>2017-02-05T10:30:38Z</time>
      </trkpt>
      <trkpt lat="50.54126" lon="3.9035">
        <ele>63.1</ele>
        <time>2017-02-05T10:30:39Z</time>
      </trkpt>
      <trkpt lat="50.54118" lon="3.90349">
        <ele>64.55</ele>
        <time>2017-02-05T10:30:46Z</time>
      </trkpt>
      <trkpt lat="50.54093" lon="3.90351">
        <ele>63.58</ele>
        <time>2017-02-05T10:31:05Z</time>
      </trkpt>
      <trkpt lat="50.54072" lon="3.90352">
        <ele>65.03</ele>
        <time>2017-02-05T10:31:22Z</time>
      </trkpt>
      <trkpt lat="50.54053" lon="3.90353">
        <ele>65.03</ele>
        <time>2017-02-05T10:31:37Z</time>
      </trkpt>
      <trkpt lat="50.54033" lon="3.90353">
        <ele>65.99</ele>
        <time>2017-02-05T10:31:52Z</time>
      </trkpt>
      <trkpt lat="50.54031" lon="3.90353">
        <ele>65.99</ele>
        <time>2017-02-05T10:31:53Z</time>
      </trkpt>
      <trkpt lat="50.54011" lon="3.90353">
        <ele>65.99</ele>
        <time>2017-02-05T10:32:09Z</time>
      </trkpt>
      <trkpt lat="50.5401" lon="3.90353">
        <ele>65.51</ele>
        <time>2017-02-05T10:32:10Z</time>
      </trkpt>
      <trkpt lat="50.53999" lon="3.90353">
        <ele>65.99</ele>
        <time>2017-02-05T10:32:18Z</time>
      </trkpt>
      <trkpt lat="50.53991" lon="3.90352">
        <ele>64.55</ele>
        <time>2017-02-05T10:32:25Z</time>
      </trkpt>
      <trkpt lat="50.53988" lon="3.90352">
        <ele>65.51</ele>
        <time>2017-02-05T10:32:27Z</time>
      </trkpt>
      <trkpt lat="50.53969" lon="3.90353">
        <ele>64.55</ele>
        <time>2017-02-05T10:32:42Z</time>
      </trkpt>
      <trkpt lat="50.53967" lon="3.90353">
        <ele>64.55</ele>
        <time>2017-02-05T10:32:43Z</time>
      </trkpt>
      <trkpt lat="50.53963" lon="3.90353">
        <ele>66.47</ele>
        <time>2017-02-05T10:32:46Z</time>
      </trkpt>
      <trkpt lat="50.53943" lon="3.90351">
        <ele>66.47</ele>
        <time>2017-02-05T10:33:02Z</time>
      </trkpt>
      <trkpt lat="50.5392" lon="3.90347">
        <ele>66.47</ele>
        <time>2017-02-05T10:33:19Z</time>
      </trkpt>
      <trkpt lat="50.53897" lon="3.90346">
        <ele>66.95</ele>
        <time>2017-02-05T10:33:37Z</time>
      </trkpt>
      <trkpt lat="50.53874" lon="3.90344">
        <ele>65.99</ele>
        <time>2017-02-05T10:33:54Z</time>
      </trkpt>
      <trkpt lat="50.5386" lon="3.90343">
        <ele>67.91</ele>
        <time>2017-02-05T10:34:05Z</time>
      </trkpt>
      <trkpt lat="50.53858" lon="3.90343">
        <ele>66.47</ele>
        <time>2017-02-05T10:34:07Z</time>
      </trkpt>
      <trkpt lat="50.53852" lon="3.90342">
        <ele>67.91</ele>
        <time>2017-02-05T10:34:12Z</time>
      </trkpt>
      <trkpt lat="50.53834" lon="3.9034">
        <ele>67.43</ele>
        <time>2017-02-05T10:34:26Z</time>
      </trkpt>
      <trkpt lat="50.53824" lon="3.9034">
        <ele>66.95</ele>
        <time>2017-02-05T10:34:34Z</time>
      </trkpt>
      <trkpt lat="50.53807" lon="3.90339">
        <ele>66.95</ele>
        <time>2017-02-05T10:34:48Z</time>
      </trkpt>
      <trkpt lat="50.53803" lon="3.90339">
        <ele>67.91</ele>
        <time>2017-02-05T10:34:51Z</time>
      </trkpt>
      <trkpt lat="50.53795" lon="3.90339">
        <ele>66.95</ele>
        <time>2017-02-05T10:34:57Z</time>
      </trkpt>
      <trkpt lat="50.53792" lon="3.90339">
        <ele>67.91</ele>
        <time>2017-02-05T10:34:59Z</time>
      </trkpt>
      <trkpt lat="50.53771" lon="3.9034">
        <ele>68.39</ele>
        <time>2017-02-05T10:35:16Z</time>
      </trkpt>
      <trkpt lat="50.53751" lon="3.90341">
        <ele>68.87</ele>
        <time>2017-02-05T10:35:31Z</time>
      </trkpt>
      <trkpt lat="50.5373" lon="3.90344">
        <ele>69.35</ele>
        <time>2017-02-05T10:35:47Z</time>
      </trkpt>
      <trkpt lat="50.53709" lon="3.90349">
        <ele>69.83</ele>
        <time>2017-02-05T10:36:04Z</time>
      </trkpt>
      <trkpt lat="50.53693" lon="3.90351">
        <ele>68.39</ele>
        <time>2017-02-05T10:36:15Z</time>
      </trkpt>
      <trkpt lat="50.53691" lon="3.90352">
        <ele>69.83</ele>
        <time>2017-02-05T10:36:17Z</time>
      </trkpt>
      <trkpt lat="50.53669" lon="3.90356">
        <ele>70.31</ele>
        <time>2017-02-05T10:36:34Z</time>
      </trkpt>
      <trkpt lat="50.53647" lon="3.9036">
        <ele>70.79</ele>
        <time>2017-02-05T10:36:50Z</time>
      </trkpt>
      <trkpt lat="50.53626" lon="3.90364">
        <ele>70.31</ele>
        <time>2017-02-05T10:37:07Z</time>
      </trkpt>
      <trkpt lat="50.53607" lon="3.90367">
        <ele>70.31</ele>
        <time>2017-02-05T10:37:22Z</time>
      </trkpt>
      <trkpt lat="50.53603" lon="3.90367">
        <ele>71.76</ele>
        <time>2017-02-05T10:37:25Z</time>
      </trkpt>
      <trkpt lat="50.53581" lon="3.90367">
        <ele>71.76</ele>
        <time>2017-02-05T10:37:42Z</time>
      </trkpt>
      <trkpt lat="50.53563" lon="3.90364">
        <ele>71.76</ele>
        <time>2017-02-05T10:37:58Z</time>
      </trkpt>
      <trkpt lat="50.53554" lon="3.90362">
        <ele>72.24</ele>
        <time>2017-02-05T10:38:06Z</time>
      </trkpt>
      <trkpt lat="50.53552" lon="3.90362">
        <ele>72.24</ele>
        <time>2017-02-05T10:38:08Z</time>
      </trkpt>
      <trkpt lat="50.5355" lon="3.90362">
        <ele>72.24</ele>
        <time>2017-02-05T10:38:09Z</time>
      </trkpt>
      <trkpt lat="50.53549" lon="3.90362">
        <ele>72.24</ele>
        <time>2017-02-05T10:38:10Z</time>
      </trkpt>
      <trkpt lat="50.53547" lon="3.90361">
        <ele>72.24</ele>
        <time>2017-02-05T10:38:11Z</time>
      </trkpt>
      <trkpt lat="50.53546" lon="3.90361">
        <ele>72.24</ele>
        <time>2017-02-05T10:38:12Z</time>
      </trkpt>
      <trkpt lat="50.53545" lon="3.90361">
        <ele>72.24</ele>
        <time>2017-02-05T10:38:13Z</time>
      </trkpt>
      <trkpt lat="50.53543" lon="3.90361">
        <ele>72.24</ele>
        <time>2017-02-05T10:38:14Z</time>
      </trkpt>
      <trkpt lat="50.53542" lon="3.90361">
        <ele>72.24</ele>
        <time>2017-02-05T10:38:15Z</time>
      </trkpt>
      <trkpt lat="50.5354" lon="3.90361">
        <ele>72.24</ele>
        <time>2017-02-05T10:38:16Z</time>
      </trkpt>
      <trkpt lat="50.53539" lon="3.9036">
        <ele>72.24</ele>
        <time>2017-02-05T10:38:17Z</time>
      </trkpt>
      <trkpt lat="50.53538" lon="3.9036">
        <ele>72.24</ele>
        <time>2017-02-05T10:38:18Z</time>
      </trkpt>
      <trkpt lat="50.5352" lon="3.90358">
        <ele>72.24</ele>
        <time>2017-02-05T10:38:32Z</time>
      </trkpt>
      <trkpt lat="50.53506" lon="3.90352">
        <ele>70.31</ele>
        <time>2017-02-05T10:38:43Z</time>
      </trkpt>
      <trkpt lat="50.53503" lon="3.90352">
        <ele>71.76</ele>
        <time>2017-02-05T10:38:46Z</time>
      </trkpt>
      <trkpt lat="50.53486" lon="3.90348">
        <ele>71.76</ele>
        <time>2017-02-05T10:38:59Z</time>
      </trkpt>
      <trkpt lat="50.5348" lon="3.90348">
        <ele>70.31</ele>
        <time>2017-02-05T10:39:04Z</time>
      </trkpt>
      <trkpt lat="50.53464" lon="3.90345">
        <ele>70.31</ele>
        <time>2017-02-05T10:39:17Z</time>
      </trkpt>
      <trkpt lat="50.53441" lon="3.90343">
        <ele>70.31</ele>
        <time>2017-02-05T10:39:34Z</time>
      </trkpt>
      <trkpt lat="50.53422" lon="3.90345">
        <ele>70.31</ele>
        <time>2017-02-05T10:39:49Z</time>
      </trkpt>
      <trkpt lat="50.53409" lon="3.90347">
        <ele>70.31</ele>
        <time>2017-02-05T10:39:58Z</time>
      </trkpt>
      <trkpt lat="50.53408" lon="3.90349">
        <ele>70.31</ele>
        <time>2017-02-05T10:39:59Z</time>
      </trkpt>
      <trkpt lat="50.53407" lon="3.9035">
        <ele>70.31</ele>
        <time>2017-02-05T10:40:00Z</time>
      </trkpt>
      <trkpt lat="50.53406" lon="3.90349">
        <ele>70.31</ele>
        <time>2017-02-05T10:40:01Z</time>
      </trkpt>
      <trkpt lat="50.53404" lon="3.90349">
        <ele>70.31</ele>
        <time>2017-02-05T10:40:02Z</time>
      </trkpt>
      <trkpt lat="50.53403" lon="3.90348">
        <ele>70.31</ele>
        <time>2017-02-05T10:40:03Z</time>
      </trkpt>
      <trkpt lat="50.53402" lon="3.90348">
        <ele>70.31</ele>
        <time>2017-02-05T10:40:04Z</time>
      </trkpt>
      <trkpt lat="50.534" lon="3.90348">
        <ele>70.31</ele>
        <time>2017-02-05T10:40:05Z</time>
      </trkpt>
      <trkpt lat="50.53381" lon="3.90352">
        <ele>70.79</ele>
        <time>2017-02-05T10:40:20Z</time>
      </trkpt>
      <trkpt lat="50.53358" lon="3.90357">
        <ele>68.87</ele>
        <time>2017-02-05T10:40:38Z</time>
      </trkpt>
      <trkpt lat="50.53345" lon="3.90362">
        <ele>68.87</ele>
        <time>2017-02-05T10:40:48Z</time>
      </trkpt>
      <trkpt lat="50.53327" lon="3.90368">
        <ele>68.39</ele>
        <time>2017-02-05T10:41:02Z</time>
      </trkpt>
      <trkpt lat="50.53324" lon="3.90369">
        <ele>69.83</ele>
        <time>2017-02-05T10:41:04Z</time>
      </trkpt>
      <trkpt lat="50.53308" lon="3.90377">
        <ele>68.39</ele>
        <time>2017-02-05T10:41:16Z</time>
      </trkpt>
      <trkpt lat="50.53289" lon="3.90384">
        <ele>68.39</ele>
        <time>2017-02-05T10:41:32Z</time>
      </trkpt>
      <trkpt lat="50.53272" lon="3.90392">
        <ele>66.95</ele>
        <time>2017-02-05T10:41:45Z</time>
      </trkpt>
      <trkpt lat="50.53268" lon="3.90391">
        <ele>66.47</ele>
        <time>2017-02-05T10:41:48Z</time>
      </trkpt>
      <trkpt lat="50.53266" lon="3.9039">
        <ele>65.99</ele>
        <time>2017-02-05T10:41:49Z</time>
      </trkpt>
      <trkpt lat="50.53265" lon="3.90389">
        <ele>66.47</ele>
        <time>2017-02-05T10:41:50Z</time>
      </trkpt>
      <trkpt lat="50.53263" lon="3.90385">
        <ele>67.91</ele>
        <time>2017-02-05T10:41:52Z</time>
      </trkpt>
      <trkpt lat="50.53263" lon="3.90383">
        <ele>67.91</ele>
        <time>2017-02-05T10:41:53Z</time>
      </trkpt>
      <trkpt lat="50.53263" lon="3.90381">
        <ele>67.91</ele>
        <time>2017-02-05T10:41:54Z</time>
      </trkpt>
      <trkpt lat="50.53263" lon="3.90379">
        <ele>67.91</ele>
        <time>2017-02-05T10:41:55Z</time>
      </trkpt>
      <trkpt lat="50.53263" lon="3.90379">
        <ele>67.91</ele>
        <time>2017-02-05T10:41:58Z</time>
      </trkpt>
      <trkpt lat="50.53263" lon="3.9038">
        <ele>67.91</ele>
        <time>2017-02-05T10:41:59Z</time>
      </trkpt>
      <trkpt lat="50.53262" lon="3.90395">
        <ele>67.91</ele>
        <time>2017-02-05T10:42:09Z</time>
      </trkpt>
      <trkpt lat="50.53261" lon="3.90396">
        <ele>67.91</ele>
        <time>2017-02-05T10:42:10Z</time>
      </trkpt>
      <trkpt lat="50.53243" lon="3.9041">
        <ele>66.47</ele>
        <time>2017-02-05T10:42:25Z</time>
      </trkpt>
      <trkpt lat="50.53242" lon="3.9041">
        <ele>66.47</ele>
        <time>2017-02-05T10:42:26Z</time>
      </trkpt>
      <trkpt lat="50.53221" lon="3.90423">
        <ele>67.43</ele>
        <time>2017-02-05T10:42:43Z</time>
      </trkpt>
      <trkpt lat="50.5321" lon="3.9043">
        <ele>65.99</ele>
        <time>2017-02-05T10:42:50Z</time>
      </trkpt>
      <trkpt lat="50.53191" lon="3.90441">
        <ele>65.99</ele>
        <time>2017-02-05T10:43:06Z</time>
      </trkpt>
      <trkpt lat="50.53168" lon="3.90452">
        <ele>66.47</ele>
        <time>2017-02-05T10:43:24Z</time>
      </trkpt>
      <trkpt lat="50.53147" lon="3.90462">
        <ele>66.47</ele>
        <time>2017-02-05T10:43:41Z</time>
      </trkpt>
      <trkpt lat="50.53125" lon="3.90468">
        <ele>65.99</ele>
        <time>2017-02-05T10:43:56Z</time>
      </trkpt>
      <trkpt lat="50.53117" lon="3.90472">
        <ele>64.55</ele>
        <time>2017-02-05T10:44:03Z</time>
      </trkpt>
      <trkpt lat="50.53098" lon="3.90477">
        <ele>64.07</ele>
        <time>2017-02-05T10:44:18Z</time>
      </trkpt>
      <trkpt lat="50.53087" lon="3.90478">
        <ele>64.07</ele>
        <time>2017-02-05T10:44:27Z</time>
      </trkpt>
      <trkpt lat="50.53069" lon="3.90479">
        <ele>62.62</ele>
        <time>2017-02-05T10:44:41Z</time>
      </trkpt>
      <trkpt lat="50.53054" lon="3.90479">
        <ele>62.14</ele>
        <time>2017-02-05T10:44:53Z</time>
      </trkpt>
      <trkpt lat="50.53044" lon="3.90476">
        <ele>63.1</ele>
        <time>2017-02-05T10:44:59Z</time>
      </trkpt>
      <trkpt lat="50.53034" lon="3.90475">
        <ele>63.1</ele>
        <time>2017-02-05T10:45:13Z</time>
      </trkpt>
      <trkpt lat="50.53033" lon="3.90475">
        <ele>63.1</ele>
        <time>2017-02-05T10:45:14Z</time>
      </trkpt>
      <trkpt lat="50.53031" lon="3.90474">
        <ele>63.1</ele>
        <time>2017-02-05T10:45:16Z</time>
      </trkpt>
      <trkpt lat="50.5303" lon="3.90475">
        <ele>63.1</ele>
        <time>2017-02-05T10:45:17Z</time>
      </trkpt>
      <trkpt lat="50.53028" lon="3.90474">
        <ele>63.1</ele>
        <time>2017-02-05T10:45:18Z</time>
      </trkpt>
      <trkpt lat="50.5301" lon="3.90475">
        <ele>63.1</ele>
        <time>2017-02-05T10:45:33Z</time>
      </trkpt>
      <trkpt lat="50.53" lon="3.90476">
        <ele>63.1</ele>
        <time>2017-02-05T10:45:40Z</time>
      </trkpt>
      <trkpt lat="50.52995" lon="3.90478">
        <ele>63.1</ele>
        <time>2017-02-05T10:45:44Z</time>
      </trkpt>
      <trkpt lat="50.52994" lon="3.90478">
        <ele>63.1</ele>
        <time>2017-02-05T10:45:45Z</time>
      </trkpt>
      <trkpt lat="50.52993" lon="3.90479">
        <ele>63.1</ele>
        <time>2017-02-05T10:45:46Z</time>
      </trkpt>
      <trkpt lat="50.52992" lon="3.90479">
        <ele>63.1</ele>
        <time>2017-02-05T10:45:47Z</time>
      </trkpt>
      <trkpt lat="50.5299" lon="3.90481">
        <ele>63.1</ele>
        <time>2017-02-05T10:45:49Z</time>
      </trkpt>
      <trkpt lat="50.52989" lon="3.90482">
        <ele>63.1</ele>
        <time>2017-02-05T10:45:50Z</time>
      </trkpt>
      <trkpt lat="50.52988" lon="3.90483">
        <ele>63.1</ele>
        <time>2017-02-05T10:45:51Z</time>
      </trkpt>
      <trkpt lat="50.52987" lon="3.90485">
        <ele>63.1</ele>
        <time>2017-02-05T10:45:52Z</time>
      </trkpt>
      <trkpt lat="50.52985" lon="3.90485">
        <ele>63.1</ele>
        <time>2017-02-05T10:45:53Z</time>
      </trkpt>
      <trkpt lat="50.52966" lon="3.90491">
        <ele>63.58</ele>
        <time>2017-02-05T10:46:07Z</time>
      </trkpt>
      <trkpt lat="50.52949" lon="3.90489">
        <ele>63.1</ele>
        <time>2017-02-05T10:46:20Z</time>
      </trkpt>
      <trkpt lat="50.52948" lon="3.90489">
        <ele>63.1</ele>
        <time>2017-02-05T10:46:21Z</time>
      </trkpt>
      <trkpt lat="50.52946" lon="3.90488">
        <ele>63.1</ele>
        <time>2017-02-05T10:46:22Z</time>
      </trkpt>
      <trkpt lat="50.52943" lon="3.90487">
        <ele>64.55</ele>
        <time>2017-02-05T10:46:24Z</time>
      </trkpt>
      <trkpt lat="50.52921" lon="3.90485">
        <ele>65.03</ele>
        <time>2017-02-05T10:46:40Z</time>
      </trkpt>
      <trkpt lat="50.5292" lon="3.90484">
        <ele>65.03</ele>
        <time>2017-02-05T10:46:42Z</time>
      </trkpt>
      <trkpt lat="50.52915" lon="3.90483">
        <ele>65.03</ele>
        <time>2017-02-05T10:46:47Z</time>
      </trkpt>
      <trkpt lat="50.52903" lon="3.90495">
        <ele>65.51</ele>
        <time>2017-02-05T10:46:59Z</time>
      </trkpt>
      <trkpt lat="50.52884" lon="3.90505">
        <ele>65.51</ele>
        <time>2017-02-05T10:47:13Z</time>
      </trkpt>
      <trkpt lat="50.52865" lon="3.9051">
        <ele>67.43</ele>
        <time>2017-02-05T10:47:28Z</time>
      </trkpt>
      <trkpt lat="50.52843" lon="3.90514">
        <ele>68.39</ele>
        <time>2017-02-05T10:47:45Z</time>
      </trkpt>
      <trkpt lat="50.52821" lon="3.90516">
        <ele>68.87</ele>
        <time>2017-02-05T10:48:01Z</time>
      </trkpt>
      <trkpt lat="50.52799" lon="3.90516">
        <ele>68.87</ele>
        <time>2017-02-05T10:48:18Z</time>
      </trkpt>
      <trkpt lat="50.52777" lon="3.90522">
        <ele>69.35</ele>
        <time>2017-02-05T10:48:35Z</time>
      </trkpt>
      <trkpt lat="50.52755" lon="3.90527">
        <ele>70.31</ele>
        <time>2017-02-05T10:48:51Z</time>
      </trkpt>
      <trkpt lat="50.52734" lon="3.90534">
        <ele>71.27</ele>
        <time>2017-02-05T10:49:08Z</time>
      </trkpt>
      <trkpt lat="50.5272" lon="3.90539">
        <ele>70.31</ele>
        <time>2017-02-05T10:49:19Z</time>
      </trkpt>
      <trkpt lat="50.52704" lon="3.90558">
        <ele>72.24</ele>
        <time>2017-02-05T10:49:35Z</time>
      </trkpt>
      <trkpt lat="50.52706" lon="3.90573">
        <ele>72.72</ele>
        <time>2017-02-05T10:49:43Z</time>
      </trkpt>
      <trkpt lat="50.52724" lon="3.90594">
        <ele>73.2</ele>
        <time>2017-02-05T10:50:00Z</time>
      </trkpt>
      <trkpt lat="50.52744" lon="3.90612">
        <ele>74.16</ele>
        <time>2017-02-05T10:50:17Z</time>
      </trkpt>
      <trkpt lat="50.52761" lon="3.9063">
        <ele>75.6</ele>
        <time>2017-02-05T10:50:33Z</time>
      </trkpt>
      <trkpt lat="50.52763" lon="3.90635">
        <ele>75.6</ele>
        <time>2017-02-05T10:50:37Z</time>
      </trkpt>
      <trkpt lat="50.52763" lon="3.90637">
        <ele>75.6</ele>
        <time>2017-02-05T10:50:38Z</time>
      </trkpt>
      <trkpt lat="50.52764" lon="3.90643">
        <ele>75.6</ele>
        <time>2017-02-05T10:50:41Z</time>
      </trkpt>
      <trkpt lat="50.52764" lon="3.90645">
        <ele>75.12</ele>
        <time>2017-02-05T10:50:42Z</time>
      </trkpt>
      <trkpt lat="50.52761" lon="3.90654">
        <ele>74.64</ele>
        <time>2017-02-05T10:50:49Z</time>
      </trkpt>
      <trkpt lat="50.52759" lon="3.90659">
        <ele>76.08</ele>
        <time>2017-02-05T10:50:52Z</time>
      </trkpt>
      <trkpt lat="50.52749" lon="3.90681">
        <ele>75.12</ele>
        <time>2017-02-05T10:51:06Z</time>
      </trkpt>
      <trkpt lat="50.52748" lon="3.90681">
        <ele>75.12</ele>
        <time>2017-02-05T10:51:07Z</time>
      </trkpt>
      <trkpt lat="50.52746" lon="3.90682">
        <ele>74.16</ele>
        <time>2017-02-05T10:51:08Z</time>
      </trkpt>
      <trkpt lat="50.52745" lon="3.90682">
        <ele>74.16</ele>
        <time>2017-02-05T10:51:09Z</time>
      </trkpt>
      <trkpt lat="50.52743" lon="3.90682">
        <ele>74.16</ele>
        <time>2017-02-05T10:51:10Z</time>
      </trkpt>
      <trkpt lat="50.52742" lon="3.90682">
        <ele>74.16</ele>
        <time>2017-02-05T10:51:11Z</time>
      </trkpt>
      <trkpt lat="50.52733" lon="3.90677">
        <ele>74.16</ele>
        <time>2017-02-05T10:51:21Z</time>
      </trkpt>
      <trkpt lat="50.52714" lon="3.90657">
        <ele>72.72</ele>
        <time>2017-02-05T10:51:37Z</time>
      </trkpt>
      <trkpt lat="50.52696" lon="3.90636">
        <ele>72.24</ele>
        <time>2017-02-05T10:51:53Z</time>
      </trkpt>
      <trkpt lat="50.52678" lon="3.90616">
        <ele>71.76</ele>
        <time>2017-02-05T10:52:11Z</time>
      </trkpt>
      <trkpt lat="50.5266" lon="3.90626">
        <ele>71.76</ele>
        <time>2017-02-05T10:52:27Z</time>
      </trkpt>
      <trkpt lat="50.52645" lon="3.90645">
        <ele>73.68</ele>
        <time>2017-02-05T10:52:42Z</time>
      </trkpt>
      <trkpt lat="50.52627" lon="3.90667">
        <ele>74.16</ele>
        <time>2017-02-05T10:52:59Z</time>
      </trkpt>
      <trkpt lat="50.5262" lon="3.90677">
        <ele>72.72</ele>
        <time>2017-02-05T10:53:05Z</time>
      </trkpt>
      <trkpt lat="50.52612" lon="3.90689">
        <ele>74.64</ele>
        <time>2017-02-05T10:53:14Z</time>
      </trkpt>
      <trkpt lat="50.52606" lon="3.90694">
        <ele>74.64</ele>
        <time>2017-02-05T10:53:20Z</time>
      </trkpt>
      <trkpt lat="50.52605" lon="3.90694">
        <ele>74.64</ele>
        <time>2017-02-05T10:53:21Z</time>
      </trkpt>
      <trkpt lat="50.52603" lon="3.90694">
        <ele>74.64</ele>
        <time>2017-02-05T10:53:22Z</time>
      </trkpt>
      <trkpt lat="50.52602" lon="3.90694">
        <ele>74.64</ele>
        <time>2017-02-05T10:53:23Z</time>
      </trkpt>
      <trkpt lat="50.52601" lon="3.90694">
        <ele>74.64</ele>
        <time>2017-02-05T10:53:24Z</time>
      </trkpt>
      <trkpt lat="50.52596" lon="3.90691">
        <ele>74.64</ele>
        <time>2017-02-05T10:53:30Z</time>
      </trkpt>
      <trkpt lat="50.52595" lon="3.9069">
        <ele>74.64</ele>
        <time>2017-02-05T10:53:31Z</time>
      </trkpt>
      <trkpt lat="50.52587" lon="3.90681">
        <ele>73.2</ele>
        <time>2017-02-05T10:53:41Z</time>
      </trkpt>
      <trkpt lat="50.52579" lon="3.9067">
        <ele>74.64</ele>
        <time>2017-02-05T10:53:49Z</time>
      </trkpt>
      <trkpt lat="50.5256" lon="3.90648">
        <ele>75.12</ele>
        <time>2017-02-05T10:54:05Z</time>
      </trkpt>
      <trkpt lat="50.52557" lon="3.90644">
        <ele>73.68</ele>
        <time>2017-02-05T10:54:08Z</time>
      </trkpt>
      <trkpt lat="50.52541" lon="3.90627">
        <ele>73.68</ele>
        <time>2017-02-05T10:54:24Z</time>
      </trkpt>
      <trkpt lat="50.52519" lon="3.90605">
        <ele>73.68</ele>
        <time>2017-02-05T10:54:42Z</time>
      </trkpt>
      <trkpt lat="50.52506" lon="3.90594">
        <ele>75.12</ele>
        <time>2017-02-05T10:54:54Z</time>
      </trkpt>
      <trkpt lat="50.52502" lon="3.9059">
        <ele>73.68</ele>
        <time>2017-02-05T10:54:58Z</time>
      </trkpt>
      <trkpt lat="50.52501" lon="3.90589">
        <ele>73.68</ele>
        <time>2017-02-05T10:54:59Z</time>
      </trkpt>
      <trkpt lat="50.525" lon="3.90588">
        <ele>75.12</ele>
        <time>2017-02-05T10:55:00Z</time>
      </trkpt>
      <trkpt lat="50.52499" lon="3.90586">
        <ele>75.12</ele>
        <time>2017-02-05T10:55:01Z</time>
      </trkpt>
      <trkpt lat="50.52498" lon="3.90585">
        <ele>75.12</ele>
        <time>2017-02-05T10:55:02Z</time>
      </trkpt>
      <trkpt lat="50.52496" lon="3.90584">
        <ele>75.12</ele>
        <time>2017-02-05T10:55:03Z</time>
      </trkpt>
      <trkpt lat="50.52495" lon="3.90582">
        <ele>75.12</ele>
        <time>2017-02-05T10:55:04Z</time>
      </trkpt>
      <trkpt lat="50.52478" lon="3.90568">
        <ele>75.12</ele>
        <time>2017-02-05T10:55:18Z</time>
      </trkpt>
      <trkpt lat="50.52461" lon="3.9055">
        <ele>75.12</ele>
        <time>2017-02-05T10:55:34Z</time>
      </trkpt>
      <trkpt lat="50.52442" lon="3.90529">
        <ele>75.12</ele>
        <time>2017-02-05T10:55:53Z</time>
      </trkpt>
      <trkpt lat="50.52419" lon="3.90504">
        <ele>75.6</ele>
        <time>2017-02-05T10:56:12Z</time>
      </trkpt>
      <trkpt lat="50.52405" lon="3.90491">
        <ele>74.64</ele>
        <time>2017-02-05T10:56:23Z</time>
      </trkpt>
      <trkpt lat="50.52383" lon="3.9047">
        <ele>74.64</ele>
        <time>2017-02-05T10:56:42Z</time>
      </trkpt>
      <trkpt lat="50.52372" lon="3.90459">
        <ele>76.08</ele>
        <time>2017-02-05T10:56:53Z</time>
      </trkpt>
      <trkpt lat="50.52356" lon="3.90443">
        <ele>75.12</ele>
        <time>2017-02-05T10:57:07Z</time>
      </trkpt>
      <trkpt lat="50.52337" lon="3.90425">
        <ele>75.12</ele>
        <time>2017-02-05T10:57:24Z</time>
      </trkpt>
      <trkpt lat="50.52324" lon="3.90411">
        <ele>74.64</ele>
        <time>2017-02-05T10:57:36Z</time>
      </trkpt>
      <trkpt lat="50.52323" lon="3.9041">
        <ele>74.64</ele>
        <time>2017-02-05T10:57:37Z</time>
      </trkpt>
      <trkpt lat="50.52322" lon="3.90409">
        <ele>74.64</ele>
        <time>2017-02-05T10:57:38Z</time>
      </trkpt>
      <trkpt lat="50.52321" lon="3.90408">
        <ele>74.64</ele>
        <time>2017-02-05T10:57:39Z</time>
      </trkpt>
      <trkpt lat="50.52319" lon="3.90407">
        <ele>74.64</ele>
        <time>2017-02-05T10:57:40Z</time>
      </trkpt>
      <trkpt lat="50.52318" lon="3.90406">
        <ele>74.64</ele>
        <time>2017-02-05T10:57:41Z</time>
      </trkpt>
      <trkpt lat="50.52317" lon="3.90404">
        <ele>74.64</ele>
        <time>2017-02-05T10:57:42Z</time>
      </trkpt>
      <trkpt lat="50.52316" lon="3.90403">
        <ele>74.64</ele>
        <time>2017-02-05T10:57:43Z</time>
      </trkpt>
      <trkpt lat="50.52315" lon="3.90402">
        <ele>74.64</ele>
        <time>2017-02-05T10:57:44Z</time>
      </trkpt>
      <trkpt lat="50.52296" lon="3.90381">
        <ele>75.12</ele>
        <time>2017-02-05T10:58:01Z</time>
      </trkpt>
      <trkpt lat="50.52273" lon="3.9036">
        <ele>74.16</ele>
        <time>2017-02-05T10:58:21Z</time>
      </trkpt>
      <trkpt lat="50.52253" lon="3.9034">
        <ele>74.16</ele>
        <time>2017-02-05T10:58:39Z</time>
      </trkpt>
      <trkpt lat="50.52229" lon="3.90316">
        <ele>74.16</ele>
        <time>2017-02-05T10:58:59Z</time>
      </trkpt>
      <trkpt lat="50.5221" lon="3.90296">
        <ele>73.68</ele>
        <time>2017-02-05T10:59:15Z</time>
      </trkpt>
      <trkpt lat="50.52192" lon="3.90282">
        <ele>73.68</ele>
        <time>2017-02-05T10:59:32Z</time>
      </trkpt>
      <trkpt lat="50.52175" lon="3.90266">
        <ele>73.68</ele>
        <time>2017-02-05T10:59:46Z</time>
      </trkpt>
      <trkpt lat="50.52153" lon="3.90245">
        <ele>74.64</ele>
        <time>2017-02-05T11:00:04Z</time>
      </trkpt>
      <trkpt lat="50.52133" lon="3.90228">
        <ele>74.64</ele>
        <time>2017-02-05T11:00:23Z</time>
      </trkpt>
      <trkpt lat="50.52114" lon="3.90215">
        <ele>74.64</ele>
        <time>2017-02-05T11:00:38Z</time>
      </trkpt>
      <trkpt lat="50.52098" lon="3.90201">
        <ele>74.64</ele>
        <time>2017-02-05T11:00:54Z</time>
      </trkpt>
      <trkpt lat="50.5208" lon="3.90186">
        <ele>74.64</ele>
        <time>2017-02-05T11:01:09Z</time>
      </trkpt>
      <trkpt lat="50.5206" lon="3.90172">
        <ele>74.64</ele>
        <time>2017-02-05T11:01:26Z</time>
      </trkpt>
      <trkpt lat="50.52037" lon="3.90158">
        <ele>74.64</ele>
        <time>2017-02-05T11:01:45Z</time>
      </trkpt>
      <trkpt lat="50.52016" lon="3.90144">
        <ele>74.64</ele>
        <time>2017-02-05T11:02:00Z</time>
      </trkpt>
      <trkpt lat="50.52011" lon="3.90141">
        <ele>73.2</ele>
        <time>2017-02-05T11:02:04Z</time>
      </trkpt>
      <trkpt lat="50.51988" lon="3.90128">
        <ele>73.2</ele>
        <time>2017-02-05T11:02:23Z</time>
      </trkpt>
      <trkpt lat="50.51965" lon="3.90115">
        <ele>72.72</ele>
        <time>2017-02-05T11:02:42Z</time>
      </trkpt>
      <trkpt lat="50.51941" lon="3.901">
        <ele>72.72</ele>
        <time>2017-02-05T11:03:00Z</time>
      </trkpt>
      <trkpt lat="50.51919" lon="3.90093">
        <ele>71.76</ele>
        <time>2017-02-05T11:03:17Z</time>
      </trkpt>
      <trkpt lat="50.51894" lon="3.90086">
        <ele>71.27</ele>
        <time>2017-02-05T11:03:35Z</time>
      </trkpt>
      <trkpt lat="50.51869" lon="3.90081">
        <ele>71.27</ele>
        <time>2017-02-05T11:03:53Z</time>
      </trkpt>
      <trkpt lat="50.51841" lon="3.90069">
        <ele>71.27</ele>
        <time>2017-02-05T11:04:14Z</time>
      </trkpt>
      <trkpt lat="50.51825" lon="3.90054">
        <ele>69.83</ele>
        <time>2017-02-05T11:04:29Z</time>
      </trkpt>
      <trkpt lat="50.51809" lon="3.90031">
        <ele>69.83</ele>
        <time>2017-02-05T11:04:48Z</time>
      </trkpt>
      <trkpt lat="50.51791" lon="3.89998">
        <ele>69.83</ele>
        <time>2017-02-05T11:05:06Z</time>
      </trkpt>
      <trkpt lat="50.51775" lon="3.89971">
        <ele>69.83</ele>
        <time>2017-02-05T11:05:22Z</time>
      </trkpt>
      <trkpt lat="50.51762" lon="3.8995">
        <ele>69.83</ele>
        <time>2017-02-05T11:05:38Z</time>
      </trkpt>
      <trkpt lat="50.51749" lon="3.89923">
        <ele>69.83</ele>
        <time>2017-02-05T11:05:53Z</time>
      </trkpt>
      <trkpt lat="50.51733" lon="3.89896">
        <ele>69.35</ele>
        <time>2017-02-05T11:06:11Z</time>
      </trkpt>
      <trkpt lat="50.5172" lon="3.89869">
        <ele>69.35</ele>
        <time>2017-02-05T11:06:27Z</time>
      </trkpt>
      <trkpt lat="50.51708" lon="3.89849">
        <ele>69.35</ele>
        <time>2017-02-05T11:06:42Z</time>
      </trkpt>
      <trkpt lat="50.51695" lon="3.89823">
        <ele>70.79</ele>
        <time>2017-02-05T11:06:57Z</time>
      </trkpt>
      <trkpt lat="50.5169" lon="3.89812">
        <ele>70.31</ele>
        <time>2017-02-05T11:07:03Z</time>
      </trkpt>
      <trkpt lat="50.51688" lon="3.8981">
        <ele>70.31</ele>
        <time>2017-02-05T11:07:04Z</time>
      </trkpt>
      <trkpt lat="50.51687" lon="3.89809">
        <ele>70.79</ele>
        <time>2017-02-05T11:07:05Z</time>
      </trkpt>
      <trkpt lat="50.51686" lon="3.89807">
        <ele>70.79</ele>
        <time>2017-02-05T11:07:06Z</time>
      </trkpt>
      <trkpt lat="50.51685" lon="3.89805">
        <ele>70.31</ele>
        <time>2017-02-05T11:07:07Z</time>
      </trkpt>
      <trkpt lat="50.51684" lon="3.89803">
        <ele>70.31</ele>
        <time>2017-02-05T11:07:08Z</time>
      </trkpt>
      <trkpt lat="50.51683" lon="3.89801">
        <ele>70.31</ele>
        <time>2017-02-05T11:07:09Z</time>
      </trkpt>
      <trkpt lat="50.51682" lon="3.898">
        <ele>70.31</ele>
        <time>2017-02-05T11:07:10Z</time>
      </trkpt>
      <trkpt lat="50.51681" lon="3.89798">
        <ele>70.31</ele>
        <time>2017-02-05T11:07:11Z</time>
      </trkpt>
      <trkpt lat="50.5168" lon="3.89796">
        <ele>70.31</ele>
        <time>2017-02-05T11:07:12Z</time>
      </trkpt>
      <trkpt lat="50.5168" lon="3.89795">
        <ele>70.31</ele>
        <time>2017-02-05T11:07:13Z</time>
      </trkpt>
      <trkpt lat="50.51676" lon="3.89786">
        <ele>70.31</ele>
        <time>2017-02-05T11:07:19Z</time>
      </trkpt>
      <trkpt lat="50.51675" lon="3.89785">
        <ele>70.31</ele>
        <time>2017-02-05T11:07:20Z</time>
      </trkpt>
      <trkpt lat="50.51674" lon="3.89783">
        <ele>70.31</ele>
        <time>2017-02-05T11:07:21Z</time>
      </trkpt>
      <trkpt lat="50.51673" lon="3.89781">
        <ele>70.31</ele>
        <time>2017-02-05T11:07:22Z</time>
      </trkpt>
      <trkpt lat="50.51673" lon="3.89779">
        <ele>70.31</ele>
        <time>2017-02-05T11:07:23Z</time>
      </trkpt>
      <trkpt lat="50.51672" lon="3.89777">
        <ele>70.31</ele>
        <time>2017-02-05T11:07:24Z</time>
      </trkpt>
      <trkpt lat="50.51671" lon="3.89775">
        <ele>70.31</ele>
        <time>2017-02-05T11:07:25Z</time>
      </trkpt>
      <trkpt lat="50.5167" lon="3.89773">
        <ele>70.31</ele>
        <time>2017-02-05T11:07:26Z</time>
      </trkpt>
      <trkpt lat="50.51667" lon="3.89768">
        <ele>70.31</ele>
        <time>2017-02-05T11:07:29Z</time>
      </trkpt>
      <trkpt lat="50.51667" lon="3.89767">
        <ele>70.31</ele>
        <time>2017-02-05T11:07:30Z</time>
      </trkpt>
      <trkpt lat="50.51667" lon="3.89765">
        <ele>70.31</ele>
        <time>2017-02-05T11:07:31Z</time>
      </trkpt>
      <trkpt lat="50.51666" lon="3.89764">
        <ele>70.31</ele>
        <time>2017-02-05T11:07:32Z</time>
      </trkpt>
      <trkpt lat="50.51655" lon="3.89742">
        <ele>70.31</ele>
        <time>2017-02-05T11:07:45Z</time>
      </trkpt>
      <trkpt lat="50.51642" lon="3.89721">
        <ele>70.31</ele>
        <time>2017-02-05T11:07:59Z</time>
      </trkpt>
      <trkpt lat="50.5163" lon="3.89696">
        <ele>70.31</ele>
        <time>2017-02-05T11:08:14Z</time>
      </trkpt>
      <trkpt lat="50.5162" lon="3.89678">
        <ele>70.31</ele>
        <time>2017-02-05T11:08:27Z</time>
      </trkpt>
      <trkpt lat="50.51616" lon="3.89673">
        <ele>70.31</ele>
        <time>2017-02-05T11:08:32Z</time>
      </trkpt>
      <trkpt lat="50.51615" lon="3.89672">
        <ele>70.31</ele>
        <time>2017-02-05T11:08:33Z</time>
      </trkpt>
      <trkpt lat="50.51613" lon="3.89673">
        <ele>70.31</ele>
        <time>2017-02-05T11:08:34Z</time>
      </trkpt>
      <trkpt lat="50.51607" lon="3.89675">
        <ele>70.31</ele>
        <time>2017-02-05T11:08:38Z</time>
      </trkpt>
      <trkpt lat="50.51606" lon="3.89675">
        <ele>70.31</ele>
        <time>2017-02-05T11:08:39Z</time>
      </trkpt>
      <trkpt lat="50.51604" lon="3.89676">
        <ele>68.87</ele>
        <time>2017-02-05T11:08:40Z</time>
      </trkpt>
      <trkpt lat="50.51603" lon="3.89677">
        <ele>68.87</ele>
        <time>2017-02-05T11:08:41Z</time>
      </trkpt>
      <trkpt lat="50.51592" lon="3.89688">
        <ele>68.87</ele>
        <time>2017-02-05T11:08:54Z</time>
      </trkpt>
      <trkpt lat="50.51578" lon="3.89703">
        <ele>68.39</ele>
        <time>2017-02-05T11:09:08Z</time>
      </trkpt>
      <trkpt lat="50.51577" lon="3.89704">
        <ele>68.39</ele>
        <time>2017-02-05T11:09:09Z</time>
      </trkpt>
      <trkpt lat="50.51571" lon="3.89709">
        <ele>68.39</ele>
        <time>2017-02-05T11:09:16Z</time>
      </trkpt>
      <trkpt lat="50.51569" lon="3.89709">
        <ele>68.39</ele>
        <time>2017-02-05T11:09:17Z</time>
      </trkpt>
      <trkpt lat="50.51563" lon="3.8971">
        <ele>68.39</ele>
        <time>2017-02-05T11:09:21Z</time>
      </trkpt>
      <trkpt lat="50.51548" lon="3.89716">
        <ele>68.39</ele>
        <time>2017-02-05T11:09:34Z</time>
      </trkpt>
      <trkpt lat="50.51536" lon="3.89716">
        <ele>67.91</ele>
        <time>2017-02-05T11:09:43Z</time>
      </trkpt>
      <trkpt lat="50.51534" lon="3.89715">
        <ele>67.91</ele>
        <time>2017-02-05T11:09:44Z</time>
      </trkpt>
      <trkpt lat="50.51529" lon="3.89711">
        <ele>67.91</ele>
        <time>2017-02-05T11:09:55Z</time>
      </trkpt>
      <trkpt lat="50.51529" lon="3.89694">
        <ele>69.83</ele>
        <time>2017-02-05T11:10:09Z</time>
      </trkpt>
      <trkpt lat="50.51539" lon="3.89685">
        <ele>68.87</ele>
        <time>2017-02-05T11:10:23Z</time>
      </trkpt>
      <trkpt lat="50.51534" lon="3.89685">
        <ele>68.39</ele>
        <time>2017-02-05T11:10:35Z</time>
      </trkpt>
      <trkpt lat="50.51532" lon="3.89702">
        <ele>68.39</ele>
        <time>2017-02-05T11:10:51Z</time>
      </trkpt>
      <trkpt lat="50.51531" lon="3.89706">
        <ele>69.35</ele>
        <time>2017-02-05T11:11:09Z</time>
      </trkpt>
      <trkpt lat="50.51531" lon="3.89706">
        <ele>67.91</ele>
        <time>2017-02-05T11:11:15Z</time>
      </trkpt>
      <trkpt lat="50.51527" lon="3.89713">
        <ele>67.91</ele>
        <time>2017-02-05T11:11:32Z</time>
      </trkpt>
      <trkpt lat="50.51524" lon="3.8972">
        <ele>67.91</ele>
        <time>2017-02-05T11:11:53Z</time>
      </trkpt>
      <trkpt lat="50.51523" lon="3.89719">
        <ele>71.27</ele>
        <time>2017-02-05T11:11:55Z</time>
      </trkpt>
      <trkpt lat="50.51524" lon="3.89717">
        <ele>67.91</ele>
        <time>2017-02-05T11:12:01Z</time>
      </trkpt>
      <trkpt lat="50.51528" lon="3.89713">
        <ele>66.95</ele>
        <time>2017-02-05T11:12:22Z</time>
      </trkpt>
      <trkpt lat="50.51528" lon="3.89711">
        <ele>66.95</ele>
        <time>2017-02-05T11:12:44Z</time>
      </trkpt>
      <trkpt lat="50.5153" lon="3.89707">
        <ele>66.95</ele>
        <time>2017-02-05T11:13:08Z</time>
      </trkpt>
      <trkpt lat="50.51532" lon="3.89703">
        <ele>66.47</ele>
        <time>2017-02-05T11:13:34Z</time>
      </trkpt>
      <trkpt lat="50.5153" lon="3.89709">
        <ele>66.47</ele>
        <time>2017-02-05T11:13:58Z</time>
      </trkpt>
      <trkpt lat="50.5153" lon="3.89709">
        <ele>66.47</ele>
        <time>2017-02-05T11:14:24Z</time>
      </trkpt>
      <trkpt lat="50.51529" lon="3.8971">
        <ele>66.47</ele>
        <time>2017-02-05T11:14:48Z</time>
      </trkpt>
      <trkpt lat="50.51528" lon="3.89715">
        <ele>66.47</ele>
        <time>2017-02-05T11:15:11Z</time>
      </trkpt>
      <trkpt lat="50.51528" lon="3.89713">
        <ele>66.47</ele>
        <time>2017-02-05T11:15:42Z</time>
      </trkpt>
      <trkpt lat="50.51527" lon="3.89715">
        <ele>66.47</ele>
        <time>2017-02-05T11:16:10Z</time>
      </trkpt>
      <trkpt lat="50.51527" lon="3.89715">
        <ele>68.39</ele>
        <time>2017-02-05T11:16:16Z</time>
      </trkpt>
      <trkpt lat="50.51528" lon="3.89716">
        <ele>67.91</ele>
        <time>2017-02-05T11:16:40Z</time>
      </trkpt>
      <trkpt lat="50.51531" lon="3.89712">
        <ele>67.91</ele>
        <time>2017-02-05T11:17:05Z</time>
      </trkpt>
      <trkpt lat="50.51523" lon="3.8972">
        <ele>67.91</ele>
        <time>2017-02-05T11:17:32Z</time>
      </trkpt>
      <trkpt lat="50.51525" lon="3.89717">
        <ele>68.87</ele>
        <time>2017-02-05T11:17:52Z</time>
      </trkpt>
      <trkpt lat="50.51527" lon="3.89713">
        <ele>67.91</ele>
        <time>2017-02-05T11:18:11Z</time>
      </trkpt>
      <trkpt lat="50.51527" lon="3.89713">
        <ele>67.91</ele>
        <time>2017-02-05T11:18:27Z</time>
      </trkpt>
      <trkpt lat="50.51527" lon="3.89711">
        <ele>67.91</ele>
        <time>2017-02-05T11:18:54Z</time>
      </trkpt>
      <trkpt lat="50.51526" lon="3.89714">
        <ele>67.91</ele>
        <time>2017-02-05T11:19:16Z</time>
      </trkpt>
      <trkpt lat="50.51529" lon="3.89709">
        <ele>67.43</ele>
        <time>2017-02-05T11:19:51Z</time>
      </trkpt>
      <trkpt lat="50.51513" lon="3.89732">
        <ele>67.43</ele>
        <time>2017-02-05T11:20:24Z</time>
      </trkpt>
      <trkpt lat="50.51514" lon="3.89725">
        <ele>67.43</ele>
        <time>2017-02-05T11:20:58Z</time>
      </trkpt>
      <trkpt lat="50.51524" lon="3.89721">
        <ele>67.43</ele>
        <time>2017-02-05T11:21:27Z</time>
      </trkpt>
      <trkpt lat="50.51529" lon="3.89719">
        <ele>67.43</ele>
        <time>2017-02-05T11:21:53Z</time>
      </trkpt>
      <trkpt lat="50.51534" lon="3.89715">
        <ele>67.91</ele>
        <time>2017-02-05T11:22:19Z</time>
      </trkpt>
      <trkpt lat="50.51525" lon="3.89725">
        <ele>67.43</ele>
        <time>2017-02-05T11:22:40Z</time>
      </trkpt>
      <trkpt lat="50.51523" lon="3.89726">
        <ele>67.91</ele>
        <time>2017-02-05T11:23:05Z</time>
      </trkpt>
      <trkpt lat="50.51528" lon="3.89714">
        <ele>68.87</ele>
        <time>2017-02-05T11:23:33Z</time>
      </trkpt>
      <trkpt lat="50.51528" lon="3.89714">
        <ele>68.87</ele>
        <time>2017-02-05T11:23:34Z</time>
      </trkpt>
      <trkpt lat="50.5153" lon="3.89711">
        <ele>68.87</ele>
        <time>2017-02-05T11:23:59Z</time>
      </trkpt>
      <trkpt lat="50.51526" lon="3.8971">
        <ele>69.35</ele>
        <time>2017-02-05T11:24:23Z</time>
      </trkpt>
      <trkpt lat="50.51521" lon="3.8972">
        <ele>69.35</ele>
        <time>2017-02-05T11:24:52Z</time>
      </trkpt>
      <trkpt lat="50.51519" lon="3.89725">
        <ele>69.83</ele>
        <time>2017-02-05T11:25:18Z</time>
      </trkpt>
      <trkpt lat="50.51515" lon="3.89727">
        <ele>69.83</ele>
        <time>2017-02-05T11:25:55Z</time>
      </trkpt>
      <trkpt lat="50.51519" lon="3.89726">
        <ele>70.31</ele>
        <time>2017-02-05T11:26:20Z</time>
      </trkpt>
      <trkpt lat="50.51519" lon="3.89734">
        <ele>70.31</ele>
        <time>2017-02-05T11:26:49Z</time>
      </trkpt>
      <trkpt lat="50.51519" lon="3.89728">
        <ele>70.79</ele>
        <time>2017-02-05T11:27:18Z</time>
      </trkpt>
      <trkpt lat="50.51516" lon="3.89732">
        <ele>70.79</ele>
        <time>2017-02-05T11:27:48Z</time>
      </trkpt>
      <trkpt lat="50.51516" lon="3.89734">
        <ele>69.83</ele>
        <time>2017-02-05T11:27:55Z</time>
      </trkpt>
      <trkpt lat="50.51516" lon="3.89735">
        <ele>71.76</ele>
        <time>2017-02-05T11:27:57Z</time>
      </trkpt>
      <trkpt lat="50.51516" lon="3.89732">
        <ele>71.76</ele>
        <time>2017-02-05T11:28:21Z</time>
      </trkpt>
      <trkpt lat="50.51516" lon="3.89731">
        <ele>70.79</ele>
        <time>2017-02-05T11:28:32Z</time>
      </trkpt>
      <trkpt lat="50.51515" lon="3.89732">
        <ele>72.24</ele>
        <time>2017-02-05T11:28:41Z</time>
      </trkpt>
      <trkpt lat="50.51517" lon="3.89728">
        <ele>72.24</ele>
        <time>2017-02-05T11:29:01Z</time>
      </trkpt>
      <trkpt lat="50.51522" lon="3.89727">
        <ele>70.79</ele>
        <time>2017-02-05T11:29:06Z</time>
      </trkpt>
      <trkpt lat="50.51523" lon="3.89726">
        <ele>72.24</ele>
        <time>2017-02-05T11:29:08Z</time>
      </trkpt>
      <trkpt lat="50.51526" lon="3.89722">
        <ele>72.24</ele>
        <time>2017-02-05T11:29:27Z</time>
      </trkpt>
      <trkpt lat="50.51528" lon="3.89721">
        <ele>72.72</ele>
        <time>2017-02-05T11:29:47Z</time>
      </trkpt>
      <trkpt lat="50.51529" lon="3.89721">
        <ele>72.72</ele>
        <time>2017-02-05T11:30:04Z</time>
      </trkpt>
      <trkpt lat="50.5153" lon="3.89718">
        <ele>72.72</ele>
        <time>2017-02-05T11:30:21Z</time>
      </trkpt>
      <trkpt lat="50.5153" lon="3.89719">
        <ele>72.72</ele>
        <time>2017-02-05T11:30:36Z</time>
      </trkpt>
      <trkpt lat="50.51529" lon="3.89716">
        <ele>71.76</ele>
        <time>2017-02-05T11:30:54Z</time>
      </trkpt>
      <trkpt lat="50.51529" lon="3.89715">
        <ele>71.76</ele>
        <time>2017-02-05T11:31:08Z</time>
      </trkpt>
      <trkpt lat="50.51526" lon="3.89714">
        <ele>71.76</ele>
        <time>2017-02-05T11:31:32Z</time>
      </trkpt>
      <trkpt lat="50.51524" lon="3.89712">
        <ele>71.76</ele>
        <time>2017-02-05T11:31:49Z</time>
      </trkpt>
      <trkpt lat="50.51521" lon="3.89717">
        <ele>72.24</ele>
        <time>2017-02-05T11:32:08Z</time>
      </trkpt>
      <trkpt lat="50.5152" lon="3.8972">
        <ele>72.24</ele>
        <time>2017-02-05T11:32:28Z</time>
      </trkpt>
      <trkpt lat="50.5152" lon="3.8972">
        <ele>72.24</ele>
        <time>2017-02-05T11:32:44Z</time>
      </trkpt>
      <trkpt lat="50.51513" lon="3.89725">
        <ele>71.76</ele>
        <time>2017-02-05T11:33:06Z</time>
      </trkpt>
      <trkpt lat="50.51517" lon="3.89718">
        <ele>71.76</ele>
        <time>2017-02-05T11:33:26Z</time>
      </trkpt>
      <trkpt lat="50.51523" lon="3.89715">
        <ele>71.76</ele>
        <time>2017-02-05T11:33:43Z</time>
      </trkpt>
      <trkpt lat="50.51521" lon="3.89721">
        <ele>71.76</ele>
        <time>2017-02-05T11:34:00Z</time>
      </trkpt>
      <trkpt lat="50.51521" lon="3.89713">
        <ele>71.76</ele>
        <time>2017-02-05T11:34:22Z</time>
      </trkpt>
      <trkpt lat="50.51522" lon="3.89712">
        <ele>71.76</ele>
        <time>2017-02-05T11:34:42Z</time>
      </trkpt>
      <trkpt lat="50.5152" lon="3.89713">
        <ele>71.76</ele>
        <time>2017-02-05T11:35:05Z</time>
      </trkpt>
      <trkpt lat="50.51524" lon="3.89715">
        <ele>72.24</ele>
        <time>2017-02-05T11:35:27Z</time>
      </trkpt>
      <trkpt lat="50.51523" lon="3.89713">
        <ele>72.24</ele>
        <time>2017-02-05T11:35:47Z</time>
      </trkpt>
      <trkpt lat="50.51523" lon="3.89713">
        <ele>72.24</ele>
        <time>2017-02-05T11:36:11Z</time>
      </trkpt>
      <trkpt lat="50.51519" lon="3.89714">
        <ele>72.24</ele>
        <time>2017-02-05T11:36:45Z</time>
      </trkpt>
      <trkpt lat="50.51522" lon="3.89715">
        <ele>73.2</ele>
        <time>2017-02-05T11:37:08Z</time>
      </trkpt>
      <trkpt lat="50.51526" lon="3.89716">
        <ele>73.2</ele>
        <time>2017-02-05T11:37:27Z</time>
      </trkpt>
      <trkpt lat="50.51529" lon="3.89713">
        <ele>73.2</ele>
        <time>2017-02-05T11:37:48Z</time>
      </trkpt>
      <trkpt lat="50.5153" lon="3.89715">
        <ele>73.2</ele>
        <time>2017-02-05T11:38:10Z</time>
      </trkpt>
      <trkpt lat="50.51531" lon="3.89715">
        <ele>73.2</ele>
        <time>2017-02-05T11:38:31Z</time>
      </trkpt>
      <trkpt lat="50.51532" lon="3.89719">
        <ele>73.68</ele>
        <time>2017-02-05T11:38:47Z</time>
      </trkpt>
      <trkpt lat="50.51535" lon="3.89718">
        <ele>73.68</ele>
        <time>2017-02-05T11:39:07Z</time>
      </trkpt>
      <trkpt lat="50.51534" lon="3.89721">
        <ele>73.68</ele>
        <time>2017-02-05T11:39:28Z</time>
      </trkpt>
      <trkpt lat="50.51535" lon="3.89719">
        <ele>73.68</ele>
        <time>2017-02-05T11:39:47Z</time>
      </trkpt>
      <trkpt lat="50.51532" lon="3.89723">
        <ele>73.68</ele>
        <time>2017-02-05T11:40:06Z</time>
      </trkpt>
      <trkpt lat="50.51531" lon="3.89726">
        <ele>74.16</ele>
        <time>2017-02-05T11:40:26Z</time>
      </trkpt>
      <trkpt lat="50.51532" lon="3.89727">
        <ele>74.16</ele>
        <time>2017-02-05T11:40:51Z</time>
      </trkpt>
      <trkpt lat="50.51526" lon="3.89724">
        <ele>74.16</ele>
        <time>2017-02-05T11:41:04Z</time>
      </trkpt>
      <trkpt lat="50.51522" lon="3.89716">
        <ele>72.72</ele>
        <time>2017-02-05T11:41:22Z</time>
      </trkpt>
      <trkpt lat="50.51518" lon="3.89714">
        <ele>72.72</ele>
        <time>2017-02-05T11:41:38Z</time>
      </trkpt>
      <trkpt lat="50.51514" lon="3.8971">
        <ele>71.76</ele>
        <time>2017-02-05T11:41:49Z</time>
      </trkpt>
      <trkpt lat="50.51511" lon="3.89705">
        <ele>73.68</ele>
        <time>2017-02-05T11:41:53Z</time>
      </trkpt>
      <trkpt lat="50.51509" lon="3.89696">
        <ele>72.24</ele>
        <time>2017-02-05T11:41:59Z</time>
      </trkpt>
      <trkpt lat="50.51499" lon="3.89685">
        <ele>72.24</ele>
        <time>2017-02-05T11:42:11Z</time>
      </trkpt>
      <trkpt lat="50.51493" lon="3.8968">
        <ele>72.24</ele>
        <time>2017-02-05T11:42:19Z</time>
      </trkpt>
      <trkpt lat="50.51492" lon="3.89679">
        <ele>72.24</ele>
        <time>2017-02-05T11:42:20Z</time>
      </trkpt>
      <trkpt lat="50.51486" lon="3.89674">
        <ele>72.24</ele>
        <time>2017-02-05T11:42:25Z</time>
      </trkpt>
      <trkpt lat="50.51485" lon="3.89673">
        <ele>72.24</ele>
        <time>2017-02-05T11:42:26Z</time>
      </trkpt>
      <trkpt lat="50.51484" lon="3.89672">
        <ele>72.24</ele>
        <time>2017-02-05T11:42:27Z</time>
      </trkpt>
      <trkpt lat="50.51483" lon="3.8967">
        <ele>72.24</ele>
        <time>2017-02-05T11:42:28Z</time>
      </trkpt>
      <trkpt lat="50.51482" lon="3.89668">
        <ele>72.24</ele>
        <time>2017-02-05T11:42:29Z</time>
      </trkpt>
      <trkpt lat="50.51475" lon="3.89659">
        <ele>71.76</ele>
        <time>2017-02-05T11:42:42Z</time>
      </trkpt>
      <trkpt lat="50.51461" lon="3.89644">
        <ele>71.76</ele>
        <time>2017-02-05T11:42:56Z</time>
      </trkpt>
      <trkpt lat="50.51459" lon="3.8964">
        <ele>71.76</ele>
        <time>2017-02-05T11:43:00Z</time>
      </trkpt>
      <trkpt lat="50.51458" lon="3.89638">
        <ele>71.76</ele>
        <time>2017-02-05T11:43:01Z</time>
      </trkpt>
      <trkpt lat="50.51445" lon="3.89616">
        <ele>71.76</ele>
        <time>2017-02-05T11:43:15Z</time>
      </trkpt>
      <trkpt lat="50.5144" lon="3.89607">
        <ele>71.76</ele>
        <time>2017-02-05T11:43:22Z</time>
      </trkpt>
      <trkpt lat="50.51439" lon="3.89606">
        <ele>71.76</ele>
        <time>2017-02-05T11:43:23Z</time>
      </trkpt>
      <trkpt lat="50.51433" lon="3.89593">
        <ele>71.76</ele>
        <time>2017-02-05T11:43:32Z</time>
      </trkpt>
      <trkpt lat="50.51432" lon="3.89592">
        <ele>71.76</ele>
        <time>2017-02-05T11:43:33Z</time>
      </trkpt>
      <trkpt lat="50.51432" lon="3.89588">
        <ele>71.76</ele>
        <time>2017-02-05T11:43:34Z</time>
      </trkpt>
      <trkpt lat="50.51416" lon="3.89575">
        <ele>71.76</ele>
        <time>2017-02-05T11:43:49Z</time>
      </trkpt>
      <trkpt lat="50.514" lon="3.89567">
        <ele>73.2</ele>
        <time>2017-02-05T11:44:02Z</time>
      </trkpt>
      <trkpt lat="50.51399" lon="3.89567">
        <ele>73.2</ele>
        <time>2017-02-05T11:44:03Z</time>
      </trkpt>
      <trkpt lat="50.51399" lon="3.89566">
        <ele>73.2</ele>
        <time>2017-02-05T11:44:04Z</time>
      </trkpt>
      <trkpt lat="50.51381" lon="3.8956">
        <ele>73.2</ele>
        <time>2017-02-05T11:44:20Z</time>
      </trkpt>
      <trkpt lat="50.51362" lon="3.89556">
        <ele>73.2</ele>
        <time>2017-02-05T11:44:33Z</time>
      </trkpt>
      <trkpt lat="50.51344" lon="3.89549">
        <ele>73.2</ele>
        <time>2017-02-05T11:44:47Z</time>
      </trkpt>
      <trkpt lat="50.51331" lon="3.89534">
        <ele>73.2</ele>
        <time>2017-02-05T11:45:01Z</time>
      </trkpt>
      <trkpt lat="50.51323" lon="3.89513">
        <ele>73.2</ele>
        <time>2017-02-05T11:45:15Z</time>
      </trkpt>
      <trkpt lat="50.51317" lon="3.89493">
        <ele>73.2</ele>
        <time>2017-02-05T11:45:28Z</time>
      </trkpt>
      <trkpt lat="50.51314" lon="3.89484">
        <ele>73.2</ele>
        <time>2017-02-05T11:45:33Z</time>
      </trkpt>
      <trkpt lat="50.5131" lon="3.89477">
        <ele>73.2</ele>
        <time>2017-02-05T11:45:38Z</time>
      </trkpt>
      <trkpt lat="50.51307" lon="3.89471">
        <ele>73.2</ele>
        <time>2017-02-05T11:45:42Z</time>
      </trkpt>
      <trkpt lat="50.51306" lon="3.89469">
        <ele>73.2</ele>
        <time>2017-02-05T11:45:43Z</time>
      </trkpt>
      <trkpt lat="50.51297" lon="3.89447">
        <ele>73.2</ele>
        <time>2017-02-05T11:45:56Z</time>
      </trkpt>
      <trkpt lat="50.51286" lon="3.89422">
        <ele>73.2</ele>
        <time>2017-02-05T11:46:11Z</time>
      </trkpt>
      <trkpt lat="50.51277" lon="3.89399">
        <ele>72.72</ele>
        <time>2017-02-05T11:46:24Z</time>
      </trkpt>
      <trkpt lat="50.51265" lon="3.89379">
        <ele>72.72</ele>
        <time>2017-02-05T11:46:39Z</time>
      </trkpt>
      <trkpt lat="50.5125" lon="3.89356">
        <ele>72.72</ele>
        <time>2017-02-05T11:46:53Z</time>
      </trkpt>
      <trkpt lat="50.51238" lon="3.8934">
        <ele>72.72</ele>
        <time>2017-02-05T11:47:06Z</time>
      </trkpt>
      <trkpt lat="50.51225" lon="3.89326">
        <ele>72.72</ele>
        <time>2017-02-05T11:47:19Z</time>
      </trkpt>
      <trkpt lat="50.51217" lon="3.89317">
        <ele>71.27</ele>
        <time>2017-02-05T11:47:29Z</time>
      </trkpt>
      <trkpt lat="50.51202" lon="3.89298">
        <ele>70.79</ele>
        <time>2017-02-05T11:47:44Z</time>
      </trkpt>
      <trkpt lat="50.51188" lon="3.89279">
        <ele>70.79</ele>
        <time>2017-02-05T11:48:00Z</time>
      </trkpt>
      <trkpt lat="50.51173" lon="3.89264">
        <ele>70.79</ele>
        <time>2017-02-05T11:48:15Z</time>
      </trkpt>
      <trkpt lat="50.51157" lon="3.89245">
        <ele>70.79</ele>
        <time>2017-02-05T11:48:31Z</time>
      </trkpt>
      <trkpt lat="50.51143" lon="3.8923">
        <ele>70.31</ele>
        <time>2017-02-05T11:48:46Z</time>
      </trkpt>
      <trkpt lat="50.51125" lon="3.89214">
        <ele>70.31</ele>
        <time>2017-02-05T11:49:02Z</time>
      </trkpt>
      <trkpt lat="50.51107" lon="3.89198">
        <ele>70.31</ele>
        <time>2017-02-05T11:49:18Z</time>
      </trkpt>
      <trkpt lat="50.51091" lon="3.89184">
        <ele>70.79</ele>
        <time>2017-02-05T11:49:33Z</time>
      </trkpt>
      <trkpt lat="50.51076" lon="3.8917">
        <ele>70.79</ele>
        <time>2017-02-05T11:49:47Z</time>
      </trkpt>
      <trkpt lat="50.51064" lon="3.8916">
        <ele>70.79</ele>
        <time>2017-02-05T11:49:58Z</time>
      </trkpt>
      <trkpt lat="50.51063" lon="3.89159">
        <ele>70.79</ele>
        <time>2017-02-05T11:49:59Z</time>
      </trkpt>
      <trkpt lat="50.51062" lon="3.89158">
        <ele>70.79</ele>
        <time>2017-02-05T11:50:00Z</time>
      </trkpt>
      <trkpt lat="50.51057" lon="3.89153">
        <ele>70.79</ele>
        <time>2017-02-05T11:50:05Z</time>
      </trkpt>
      <trkpt lat="50.51047" lon="3.89141">
        <ele>70.31</ele>
        <time>2017-02-05T11:50:16Z</time>
      </trkpt>
      <trkpt lat="50.51046" lon="3.89139">
        <ele>70.31</ele>
        <time>2017-02-05T11:50:17Z</time>
      </trkpt>
      <trkpt lat="50.51045" lon="3.89137">
        <ele>70.31</ele>
        <time>2017-02-05T11:50:18Z</time>
      </trkpt>
      <trkpt lat="50.51038" lon="3.89126">
        <ele>70.31</ele>
        <time>2017-02-05T11:50:27Z</time>
      </trkpt>
      <trkpt lat="50.51037" lon="3.89124">
        <ele>70.31</ele>
        <time>2017-02-05T11:50:28Z</time>
      </trkpt>
      <trkpt lat="50.51036" lon="3.89123">
        <ele>70.31</ele>
        <time>2017-02-05T11:50:29Z</time>
      </trkpt>
      <trkpt lat="50.51035" lon="3.89122">
        <ele>70.31</ele>
        <time>2017-02-05T11:50:30Z</time>
      </trkpt>
      <trkpt lat="50.51034" lon="3.89121">
        <ele>70.31</ele>
        <time>2017-02-05T11:50:31Z</time>
      </trkpt>
      <trkpt lat="50.51033" lon="3.8912">
        <ele>70.31</ele>
        <time>2017-02-05T11:50:32Z</time>
      </trkpt>
      <trkpt lat="50.51019" lon="3.89108">
        <ele>70.31</ele>
        <time>2017-02-05T11:50:46Z</time>
      </trkpt>
      <trkpt lat="50.51017" lon="3.89106">
        <ele>71.27</ele>
        <time>2017-02-05T11:50:48Z</time>
      </trkpt>
      <trkpt lat="50.51003" lon="3.89092">
        <ele>71.27</ele>
        <time>2017-02-05T11:51:03Z</time>
      </trkpt>
      <trkpt lat="50.50989" lon="3.89079">
        <ele>71.27</ele>
        <time>2017-02-05T11:51:17Z</time>
      </trkpt>
      <trkpt lat="50.50981" lon="3.89071">
        <ele>71.27</ele>
        <time>2017-02-05T11:51:26Z</time>
      </trkpt>
      <trkpt lat="50.5098" lon="3.8907">
        <ele>71.27</ele>
        <time>2017-02-05T11:51:27Z</time>
      </trkpt>
      <trkpt lat="50.50976" lon="3.89067">
        <ele>70.31</ele>
        <time>2017-02-05T11:51:30Z</time>
      </trkpt>
      <trkpt lat="50.50964" lon="3.89059">
        <ele>69.35</ele>
        <time>2017-02-05T11:51:43Z</time>
      </trkpt>
      <trkpt lat="50.5095" lon="3.89045">
        <ele>68.87</ele>
        <time>2017-02-05T11:51:56Z</time>
      </trkpt>
      <trkpt lat="50.50933" lon="3.89029">
        <ele>68.39</ele>
        <time>2017-02-05T11:52:13Z</time>
      </trkpt>
      <trkpt lat="50.50918" lon="3.89017">
        <ele>67.91</ele>
        <time>2017-02-05T11:52:27Z</time>
      </trkpt>
      <trkpt lat="50.50903" lon="3.89001">
        <ele>67.91</ele>
        <time>2017-02-05T11:52:42Z</time>
      </trkpt>
      <trkpt lat="50.50894" lon="3.88992">
        <ele>67.91</ele>
        <time>2017-02-05T11:52:51Z</time>
      </trkpt>
      <trkpt lat="50.50893" lon="3.88991">
        <ele>67.91</ele>
        <time>2017-02-05T11:52:52Z</time>
      </trkpt>
      <trkpt lat="50.50881" lon="3.8898">
        <ele>67.43</ele>
        <time>2017-02-05T11:53:05Z</time>
      </trkpt>
      <trkpt lat="50.50867" lon="3.88969">
        <ele>67.43</ele>
        <time>2017-02-05T11:53:17Z</time>
      </trkpt>
      <trkpt lat="50.5085" lon="3.88953">
        <ele>67.43</ele>
        <time>2017-02-05T11:53:34Z</time>
      </trkpt>
      <trkpt lat="50.50836" lon="3.88941">
        <ele>67.43</ele>
        <time>2017-02-05T11:53:48Z</time>
      </trkpt>
      <trkpt lat="50.5082" lon="3.88926">
        <ele>66.95</ele>
        <time>2017-02-05T11:54:03Z</time>
      </trkpt>
      <trkpt lat="50.50802" lon="3.8891">
        <ele>66.95</ele>
        <time>2017-02-05T11:54:19Z</time>
      </trkpt>
      <trkpt lat="50.50789" lon="3.88899">
        <ele>66.95</ele>
        <time>2017-02-05T11:54:32Z</time>
      </trkpt>
      <trkpt lat="50.50787" lon="3.88898">
        <ele>66.95</ele>
        <time>2017-02-05T11:54:33Z</time>
      </trkpt>
      <trkpt lat="50.50771" lon="3.88889">
        <ele>66.95</ele>
        <time>2017-02-05T11:54:47Z</time>
      </trkpt>
      <trkpt lat="50.50759" lon="3.88884">
        <ele>66.95</ele>
        <time>2017-02-05T11:54:59Z</time>
      </trkpt>
      <trkpt lat="50.50743" lon="3.88877">
        <ele>66.95</ele>
        <time>2017-02-05T11:55:12Z</time>
      </trkpt>
      <trkpt lat="50.50727" lon="3.88871">
        <ele>66.47</ele>
        <time>2017-02-05T11:55:26Z</time>
      </trkpt>
      <trkpt lat="50.50712" lon="3.88864">
        <ele>66.47</ele>
        <time>2017-02-05T11:55:40Z</time>
      </trkpt>
      <trkpt lat="50.50709" lon="3.88863">
        <ele>66.47</ele>
        <time>2017-02-05T11:55:43Z</time>
      </trkpt>
      <trkpt lat="50.50705" lon="3.88862">
        <ele>66.47</ele>
        <time>2017-02-05T11:55:47Z</time>
      </trkpt>
      <trkpt lat="50.50704" lon="3.88862">
        <ele>66.47</ele>
        <time>2017-02-05T11:55:48Z</time>
      </trkpt>
      <trkpt lat="50.50688" lon="3.88856">
        <ele>65.99</ele>
        <time>2017-02-05T11:56:02Z</time>
      </trkpt>
      <trkpt lat="50.50674" lon="3.88852">
        <ele>65.99</ele>
        <time>2017-02-05T11:56:15Z</time>
      </trkpt>
      <trkpt lat="50.50673" lon="3.88852">
        <ele>67.43</ele>
        <time>2017-02-05T11:56:16Z</time>
      </trkpt>
      <trkpt lat="50.50671" lon="3.88851">
        <ele>67.43</ele>
        <time>2017-02-05T11:56:17Z</time>
      </trkpt>
      <trkpt lat="50.50664" lon="3.88844">
        <ele>68.39</ele>
        <time>2017-02-05T11:56:29Z</time>
      </trkpt>
      <trkpt lat="50.50659" lon="3.88831">
        <ele>68.87</ele>
        <time>2017-02-05T11:56:42Z</time>
      </trkpt>
      <trkpt lat="50.50661" lon="3.88829">
        <ele>69.35</ele>
        <time>2017-02-05T11:56:55Z</time>
      </trkpt>
      <trkpt lat="50.50661" lon="3.88817">
        <ele>69.83</ele>
        <time>2017-02-05T11:57:01Z</time>
      </trkpt>
      <trkpt lat="50.50661" lon="3.88815">
        <ele>69.83</ele>
        <time>2017-02-05T11:57:02Z</time>
      </trkpt>
      <trkpt lat="50.50662" lon="3.88813">
        <ele>69.83</ele>
        <time>2017-02-05T11:57:03Z</time>
      </trkpt>
      <trkpt lat="50.50663" lon="3.88779">
        <ele>70.79</ele>
        <time>2017-02-05T11:57:19Z</time>
      </trkpt>
      <trkpt lat="50.50664" lon="3.8876">
        <ele>70.79</ele>
        <time>2017-02-05T11:57:29Z</time>
      </trkpt>
      <trkpt lat="50.50664" lon="3.88755">
        <ele>70.79</ele>
        <time>2017-02-05T11:57:32Z</time>
      </trkpt>
      <trkpt lat="50.50664" lon="3.88753">
        <ele>70.79</ele>
        <time>2017-02-05T11:57:33Z</time>
      </trkpt>
      <trkpt lat="50.50665" lon="3.88745">
        <ele>70.79</ele>
        <time>2017-02-05T11:57:38Z</time>
      </trkpt>
      <trkpt lat="50.50666" lon="3.88735">
        <ele>70.79</ele>
        <time>2017-02-05T11:57:43Z</time>
      </trkpt>
      <trkpt lat="50.50666" lon="3.88733">
        <ele>70.79</ele>
        <time>2017-02-05T11:57:44Z</time>
      </trkpt>
      <trkpt lat="50.50666" lon="3.88731">
        <ele>70.79</ele>
        <time>2017-02-05T11:57:45Z</time>
      </trkpt>
      <trkpt lat="50.50666" lon="3.88714">
        <ele>69.35</ele>
        <time>2017-02-05T11:57:56Z</time>
      </trkpt>
      <trkpt lat="50.50665" lon="3.88701">
        <ele>69.35</ele>
        <time>2017-02-05T11:58:02Z</time>
      </trkpt>
      <trkpt lat="50.50665" lon="3.88697">
        <ele>69.35</ele>
        <time>2017-02-05T11:58:05Z</time>
      </trkpt>
      <trkpt lat="50.50665" lon="3.88695">
        <ele>69.35</ele>
        <time>2017-02-05T11:58:06Z</time>
      </trkpt>
      <trkpt lat="50.50665" lon="3.88686">
        <ele>68.87</ele>
        <time>2017-02-05T11:58:11Z</time>
      </trkpt>
      <trkpt lat="50.50665" lon="3.88684">
        <ele>68.87</ele>
        <time>2017-02-05T11:58:12Z</time>
      </trkpt>
      <trkpt lat="50.50666" lon="3.88682">
        <ele>68.87</ele>
        <time>2017-02-05T11:58:13Z</time>
      </trkpt>
      <trkpt lat="50.50666" lon="3.8868">
        <ele>68.87</ele>
        <time>2017-02-05T11:58:14Z</time>
      </trkpt>
      <trkpt lat="50.50667" lon="3.88676">
        <ele>68.87</ele>
        <time>2017-02-05T11:58:16Z</time>
      </trkpt>
      <trkpt lat="50.50667" lon="3.88673">
        <ele>68.87</ele>
        <time>2017-02-05T11:58:17Z</time>
      </trkpt>
      <trkpt lat="50.50668" lon="3.8867">
        <ele>68.87</ele>
        <time>2017-02-05T11:58:18Z</time>
      </trkpt>
      <trkpt lat="50.50669" lon="3.88658">
        <ele>68.87</ele>
        <time>2017-02-05T11:58:22Z</time>
      </trkpt>
      <trkpt lat="50.50668" lon="3.88656">
        <ele>68.87</ele>
        <time>2017-02-05T11:58:23Z</time>
      </trkpt>
      <trkpt lat="50.50668" lon="3.88653">
        <ele>68.87</ele>
        <time>2017-02-05T11:58:24Z</time>
      </trkpt>
      <trkpt lat="50.50665" lon="3.88645">
        <ele>68.87</ele>
        <time>2017-02-05T11:58:28Z</time>
      </trkpt>
      <trkpt lat="50.50664" lon="3.88643">
        <ele>68.87</ele>
        <time>2017-02-05T11:58:29Z</time>
      </trkpt>
      <trkpt lat="50.50664" lon="3.88641">
        <ele>68.87</ele>
        <time>2017-02-05T11:58:30Z</time>
      </trkpt>
      <trkpt lat="50.50661" lon="3.88615">
        <ele>68.87</ele>
        <time>2017-02-05T11:58:43Z</time>
      </trkpt>
      <trkpt lat="50.50659" lon="3.88603">
        <ele>69.83</ele>
        <time>2017-02-05T11:58:49Z</time>
      </trkpt>
      <trkpt lat="50.50653" lon="3.88579">
        <ele>70.31</ele>
        <time>2017-02-05T11:59:02Z</time>
      </trkpt>
      <trkpt lat="50.50654" lon="3.88553">
        <ele>70.31</ele>
        <time>2017-02-05T11:59:16Z</time>
      </trkpt>
      <trkpt lat="50.50655" lon="3.88526">
        <ele>70.79</ele>
        <time>2017-02-05T11:59:28Z</time>
      </trkpt>
      <trkpt lat="50.50655" lon="3.88512">
        <ele>70.79</ele>
        <time>2017-02-05T11:59:35Z</time>
      </trkpt>
      <trkpt lat="50.50657" lon="3.88477">
        <ele>70.79</ele>
        <time>2017-02-05T11:59:49Z</time>
      </trkpt>
      <trkpt lat="50.50653" lon="3.88446">
        <ele>70.79</ele>
        <time>2017-02-05T12:00:06Z</time>
      </trkpt>
      <trkpt lat="50.50651" lon="3.88431">
        <ele>71.27</ele>
        <time>2017-02-05T12:00:18Z</time>
      </trkpt>
      <trkpt lat="50.50651" lon="3.88429">
        <ele>71.27</ele>
        <time>2017-02-05T12:00:19Z</time>
      </trkpt>
      <trkpt lat="50.50651" lon="3.88424">
        <ele>71.27</ele>
        <time>2017-02-05T12:00:22Z</time>
      </trkpt>
      <trkpt lat="50.5065" lon="3.88419">
        <ele>71.27</ele>
        <time>2017-02-05T12:00:25Z</time>
      </trkpt>
      <trkpt lat="50.50653" lon="3.88382">
        <ele>71.27</ele>
        <time>2017-02-05T12:00:43Z</time>
      </trkpt>
      <trkpt lat="50.50657" lon="3.88359">
        <ele>71.27</ele>
        <time>2017-02-05T12:00:57Z</time>
      </trkpt>
      <trkpt lat="50.5066" lon="3.88348">
        <ele>71.27</ele>
        <time>2017-02-05T12:01:03Z</time>
      </trkpt>
      <trkpt lat="50.50666" lon="3.88324">
        <ele>70.79</ele>
        <time>2017-02-05T12:01:15Z</time>
      </trkpt>
      <trkpt lat="50.50669" lon="3.88312">
        <ele>70.79</ele>
        <time>2017-02-05T12:01:21Z</time>
      </trkpt>
      <trkpt lat="50.50674" lon="3.88307">
        <ele>70.79</ele>
        <time>2017-02-05T12:01:26Z</time>
      </trkpt>
      <trkpt lat="50.50677" lon="3.88295">
        <ele>71.27</ele>
        <time>2017-02-05T12:01:37Z</time>
      </trkpt>
      <trkpt lat="50.5068" lon="3.8829">
        <ele>71.27</ele>
        <time>2017-02-05T12:01:42Z</time>
      </trkpt>
      <trkpt lat="50.50683" lon="3.88284">
        <ele>71.27</ele>
        <time>2017-02-05T12:01:46Z</time>
      </trkpt>
      <trkpt lat="50.50685" lon="3.8828">
        <ele>71.27</ele>
        <time>2017-02-05T12:01:48Z</time>
      </trkpt>
      <trkpt lat="50.50686" lon="3.88279">
        <ele>71.27</ele>
        <time>2017-02-05T12:01:49Z</time>
      </trkpt>
      <trkpt lat="50.5069" lon="3.88273">
        <ele>71.27</ele>
        <time>2017-02-05T12:01:53Z</time>
      </trkpt>
      <trkpt lat="50.50702" lon="3.88252">
        <ele>71.27</ele>
        <time>2017-02-05T12:02:06Z</time>
      </trkpt>
      <trkpt lat="50.5071" lon="3.88232">
        <ele>71.27</ele>
        <time>2017-02-05T12:02:19Z</time>
      </trkpt>
      <trkpt lat="50.50711" lon="3.88229">
        <ele>71.27</ele>
        <time>2017-02-05T12:02:21Z</time>
      </trkpt>
      <trkpt lat="50.50713" lon="3.88227">
        <ele>71.27</ele>
        <time>2017-02-05T12:02:22Z</time>
      </trkpt>
      <trkpt lat="50.5073" lon="3.88197">
        <ele>71.76</ele>
        <time>2017-02-05T12:02:39Z</time>
      </trkpt>
      <trkpt lat="50.50742" lon="3.88171">
        <ele>71.76</ele>
        <time>2017-02-05T12:02:55Z</time>
      </trkpt>
      <trkpt lat="50.50749" lon="3.88158">
        <ele>72.24</ele>
        <time>2017-02-05T12:03:03Z</time>
      </trkpt>
      <trkpt lat="50.50759" lon="3.88138">
        <ele>72.24</ele>
        <time>2017-02-05T12:03:14Z</time>
      </trkpt>
      <trkpt lat="50.5076" lon="3.88137">
        <ele>72.24</ele>
        <time>2017-02-05T12:03:15Z</time>
      </trkpt>
      <trkpt lat="50.50761" lon="3.88135">
        <ele>72.24</ele>
        <time>2017-02-05T12:03:16Z</time>
      </trkpt>
      <trkpt lat="50.50762" lon="3.88134">
        <ele>72.24</ele>
        <time>2017-02-05T12:03:17Z</time>
      </trkpt>
      <trkpt lat="50.50763" lon="3.88132">
        <ele>72.24</ele>
        <time>2017-02-05T12:03:18Z</time>
      </trkpt>
      <trkpt lat="50.50764" lon="3.8813">
        <ele>72.24</ele>
        <time>2017-02-05T12:03:19Z</time>
      </trkpt>
      <trkpt lat="50.50765" lon="3.88128">
        <ele>72.24</ele>
        <time>2017-02-05T12:03:20Z</time>
      </trkpt>
      <trkpt lat="50.50766" lon="3.88127">
        <ele>72.24</ele>
        <time>2017-02-05T12:03:21Z</time>
      </trkpt>
      <trkpt lat="50.50766" lon="3.88125">
        <ele>72.72</ele>
        <time>2017-02-05T12:03:22Z</time>
      </trkpt>
      <trkpt lat="50.50769" lon="3.88118">
        <ele>72.72</ele>
        <time>2017-02-05T12:03:26Z</time>
      </trkpt>
      <trkpt lat="50.5077" lon="3.88116">
        <ele>72.72</ele>
        <time>2017-02-05T12:03:27Z</time>
      </trkpt>
      <trkpt lat="50.50777" lon="3.88102">
        <ele>72.72</ele>
        <time>2017-02-05T12:03:35Z</time>
      </trkpt>
      <trkpt lat="50.50786" lon="3.8808">
        <ele>72.72</ele>
        <time>2017-02-05T12:03:50Z</time>
      </trkpt>
      <trkpt lat="50.50793" lon="3.88059">
        <ele>73.2</ele>
        <time>2017-02-05T12:04:04Z</time>
      </trkpt>
      <trkpt lat="50.50794" lon="3.88058">
        <ele>73.2</ele>
        <time>2017-02-05T12:04:05Z</time>
      </trkpt>
      <trkpt lat="50.50795" lon="3.88057">
        <ele>73.2</ele>
        <time>2017-02-05T12:04:06Z</time>
      </trkpt>
      <trkpt lat="50.50806" lon="3.88031">
        <ele>73.2</ele>
        <time>2017-02-05T12:04:22Z</time>
      </trkpt>
      <trkpt lat="50.50818" lon="3.88012">
        <ele>73.68</ele>
        <time>2017-02-05T12:04:36Z</time>
      </trkpt>
      <trkpt lat="50.50834" lon="3.87987">
        <ele>73.2</ele>
        <time>2017-02-05T12:04:54Z</time>
      </trkpt>
      <trkpt lat="50.5084" lon="3.87977">
        <ele>73.68</ele>
        <time>2017-02-05T12:05:03Z</time>
      </trkpt>
      <trkpt lat="50.50842" lon="3.87975">
        <ele>73.68</ele>
        <time>2017-02-05T12:05:04Z</time>
      </trkpt>
      <trkpt lat="50.50843" lon="3.87974">
        <ele>73.68</ele>
        <time>2017-02-05T12:05:05Z</time>
      </trkpt>
      <trkpt lat="50.5086" lon="3.87953">
        <ele>73.68</ele>
        <time>2017-02-05T12:05:20Z</time>
      </trkpt>
      <trkpt lat="50.5087" lon="3.87942">
        <ele>74.16</ele>
        <time>2017-02-05T12:05:27Z</time>
      </trkpt>
      <trkpt lat="50.50872" lon="3.87941">
        <ele>74.16</ele>
        <time>2017-02-05T12:05:28Z</time>
      </trkpt>
      <trkpt lat="50.50873" lon="3.87939">
        <ele>74.16</ele>
        <time>2017-02-05T12:05:29Z</time>
      </trkpt>
      <trkpt lat="50.50877" lon="3.87936">
        <ele>74.16</ele>
        <time>2017-02-05T12:05:33Z</time>
      </trkpt>
      <trkpt lat="50.50878" lon="3.87935">
        <ele>74.16</ele>
        <time>2017-02-05T12:05:34Z</time>
      </trkpt>
      <trkpt lat="50.50879" lon="3.87933">
        <ele>74.16</ele>
        <time>2017-02-05T12:05:35Z</time>
      </trkpt>
      <trkpt lat="50.5088" lon="3.87932">
        <ele>74.16</ele>
        <time>2017-02-05T12:05:36Z</time>
      </trkpt>
      <trkpt lat="50.50881" lon="3.8793">
        <ele>74.16</ele>
        <time>2017-02-05T12:05:37Z</time>
      </trkpt>
      <trkpt lat="50.50882" lon="3.87929">
        <ele>74.16</ele>
        <time>2017-02-05T12:05:38Z</time>
      </trkpt>
      <trkpt lat="50.50883" lon="3.87928">
        <ele>74.16</ele>
        <time>2017-02-05T12:05:39Z</time>
      </trkpt>
      <trkpt lat="50.50901" lon="3.87905">
        <ele>74.64</ele>
        <time>2017-02-05T12:05:57Z</time>
      </trkpt>
      <trkpt lat="50.50918" lon="3.87885">
        <ele>74.64</ele>
        <time>2017-02-05T12:06:12Z</time>
      </trkpt>
      <trkpt lat="50.50932" lon="3.87865">
        <ele>75.12</ele>
        <time>2017-02-05T12:06:28Z</time>
      </trkpt>
      <trkpt lat="50.50934" lon="3.87866">
        <ele>75.12</ele>
        <time>2017-02-05T12:06:29Z</time>
      </trkpt>
      <trkpt lat="50.50935" lon="3.87866">
        <ele>75.12</ele>
        <time>2017-02-05T12:06:30Z</time>
      </trkpt>
      <trkpt lat="50.50937" lon="3.87865">
        <ele>75.12</ele>
        <time>2017-02-05T12:06:32Z</time>
      </trkpt>
      <trkpt lat="50.50947" lon="3.8786">
        <ele>74.64</ele>
        <time>2017-02-05T12:06:40Z</time>
      </trkpt>
      <trkpt lat="50.50953" lon="3.87849">
        <ele>74.64</ele>
        <time>2017-02-05T12:06:49Z</time>
      </trkpt>
      <trkpt lat="50.50954" lon="3.87848">
        <ele>74.64</ele>
        <time>2017-02-05T12:06:50Z</time>
      </trkpt>
      <trkpt lat="50.50956" lon="3.87846">
        <ele>75.12</ele>
        <time>2017-02-05T12:06:51Z</time>
      </trkpt>
      <trkpt lat="50.50965" lon="3.87844">
        <ele>75.12</ele>
        <time>2017-02-05T12:07:01Z</time>
      </trkpt>
      <trkpt lat="50.50972" lon="3.87847">
        <ele>75.12</ele>
        <time>2017-02-05T12:07:06Z</time>
      </trkpt>
      <trkpt lat="50.50973" lon="3.87848">
        <ele>75.12</ele>
        <time>2017-02-05T12:07:07Z</time>
      </trkpt>
      <trkpt lat="50.50986" lon="3.87861">
        <ele>75.12</ele>
        <time>2017-02-05T12:07:22Z</time>
      </trkpt>
      <trkpt lat="50.51002" lon="3.87874">
        <ele>75.12</ele>
        <time>2017-02-05T12:07:33Z</time>
      </trkpt>
      <trkpt lat="50.51004" lon="3.87874">
        <ele>75.12</ele>
        <time>2017-02-05T12:07:34Z</time>
      </trkpt>
      <trkpt lat="50.51024" lon="3.8789">
        <ele>75.12</ele>
        <time>2017-02-05T12:07:50Z</time>
      </trkpt>
      <trkpt lat="50.51044" lon="3.87908">
        <ele>75.12</ele>
        <time>2017-02-05T12:08:05Z</time>
      </trkpt>
      <trkpt lat="50.51045" lon="3.87909">
        <ele>75.12</ele>
        <time>2017-02-05T12:08:06Z</time>
      </trkpt>
      <trkpt lat="50.51046" lon="3.8791">
        <ele>75.12</ele>
        <time>2017-02-05T12:08:07Z</time>
      </trkpt>
      <trkpt lat="50.51047" lon="3.87911">
        <ele>75.12</ele>
        <time>2017-02-05T12:08:08Z</time>
      </trkpt>
      <trkpt lat="50.51048" lon="3.87912">
        <ele>75.12</ele>
        <time>2017-02-05T12:08:09Z</time>
      </trkpt>
      <trkpt lat="50.51049" lon="3.87913">
        <ele>75.12</ele>
        <time>2017-02-05T12:08:10Z</time>
      </trkpt>
      <trkpt lat="50.51051" lon="3.87914">
        <ele>75.12</ele>
        <time>2017-02-05T12:08:11Z</time>
      </trkpt>
      <trkpt lat="50.51052" lon="3.87915">
        <ele>75.12</ele>
        <time>2017-02-05T12:08:12Z</time>
      </trkpt>
      <trkpt lat="50.51053" lon="3.87916">
        <ele>75.12</ele>
        <time>2017-02-05T12:08:13Z</time>
      </trkpt>
      <trkpt lat="50.51054" lon="3.87917">
        <ele>75.12</ele>
        <time>2017-02-05T12:08:14Z</time>
      </trkpt>
      <trkpt lat="50.51076" lon="3.87938">
        <ele>73.68</ele>
        <time>2017-02-05T12:08:34Z</time>
      </trkpt>
      <trkpt lat="50.51081" lon="3.87942">
        <ele>73.68</ele>
        <time>2017-02-05T12:08:39Z</time>
      </trkpt>
      <trkpt lat="50.51082" lon="3.87943">
        <ele>73.68</ele>
        <time>2017-02-05T12:08:40Z</time>
      </trkpt>
      <trkpt lat="50.51106" lon="3.87963">
        <ele>73.68</ele>
        <time>2017-02-05T12:08:59Z</time>
      </trkpt>
      <trkpt lat="50.51124" lon="3.87978">
        <ele>73.68</ele>
        <time>2017-02-05T12:09:15Z</time>
      </trkpt>
      <trkpt lat="50.51141" lon="3.87993">
        <ele>73.68</ele>
        <time>2017-02-05T12:09:32Z</time>
      </trkpt>
      <trkpt lat="50.51166" lon="3.88014">
        <ele>73.2</ele>
        <time>2017-02-05T12:09:51Z</time>
      </trkpt>
      <trkpt lat="50.51181" lon="3.88028">
        <ele>73.2</ele>
        <time>2017-02-05T12:10:06Z</time>
      </trkpt>
      <trkpt lat="50.5121" lon="3.88051">
        <ele>73.2</ele>
        <time>2017-02-05T12:10:28Z</time>
      </trkpt>
      <trkpt lat="50.51232" lon="3.88067">
        <ele>73.2</ele>
        <time>2017-02-05T12:10:47Z</time>
      </trkpt>
      <trkpt lat="50.51256" lon="3.88084">
        <ele>72.72</ele>
        <time>2017-02-05T12:11:07Z</time>
      </trkpt>
      <trkpt lat="50.51276" lon="3.881">
        <ele>72.72</ele>
        <time>2017-02-05T12:11:24Z</time>
      </trkpt>
      <trkpt lat="50.51298" lon="3.88117">
        <ele>72.24</ele>
        <time>2017-02-05T12:11:42Z</time>
      </trkpt>
      <trkpt lat="50.51323" lon="3.88134">
        <ele>71.76</ele>
        <time>2017-02-05T12:12:01Z</time>
      </trkpt>
      <trkpt lat="50.51348" lon="3.88152">
        <ele>71.76</ele>
        <time>2017-02-05T12:12:20Z</time>
      </trkpt>
      <trkpt lat="50.51367" lon="3.88166">
        <ele>71.76</ele>
        <time>2017-02-05T12:12:38Z</time>
      </trkpt>
      <trkpt lat="50.51393" lon="3.88184">
        <ele>71.76</ele>
        <time>2017-02-05T12:12:59Z</time>
      </trkpt>
      <trkpt lat="50.51416" lon="3.882">
        <ele>71.76</ele>
        <time>2017-02-05T12:13:19Z</time>
      </trkpt>
      <trkpt lat="50.51442" lon="3.88221">
        <ele>71.76</ele>
        <time>2017-02-05T12:13:40Z</time>
      </trkpt>
      <trkpt lat="50.51465" lon="3.88243">
        <ele>71.76</ele>
        <time>2017-02-05T12:13:59Z</time>
      </trkpt>
      <trkpt lat="50.51482" lon="3.8826">
        <ele>71.76</ele>
        <time>2017-02-05T12:14:16Z</time>
      </trkpt>
      <trkpt lat="50.51502" lon="3.88281">
        <ele>71.27</ele>
        <time>2017-02-05T12:14:33Z</time>
      </trkpt>
      <trkpt lat="50.51523" lon="3.88298">
        <ele>71.27</ele>
        <time>2017-02-05T12:14:51Z</time>
      </trkpt>
      <trkpt lat="50.51545" lon="3.88317">
        <ele>71.27</ele>
        <time>2017-02-05T12:15:10Z</time>
      </trkpt>
      <trkpt lat="50.51565" lon="3.88335">
        <ele>71.27</ele>
        <time>2017-02-05T12:15:26Z</time>
      </trkpt>
      <trkpt lat="50.51589" lon="3.88353">
        <ele>70.79</ele>
        <time>2017-02-05T12:15:45Z</time>
      </trkpt>
      <trkpt lat="50.51612" lon="3.88372">
        <ele>70.79</ele>
        <time>2017-02-05T12:16:03Z</time>
      </trkpt>
      <trkpt lat="50.51634" lon="3.88385">
        <ele>71.27</ele>
        <time>2017-02-05T12:16:20Z</time>
      </trkpt>
      <trkpt lat="50.51649" lon="3.88397">
        <ele>71.27</ele>
        <time>2017-02-05T12:16:34Z</time>
      </trkpt>
      <trkpt lat="50.5168" lon="3.88417">
        <ele>71.27</ele>
        <time>2017-02-05T12:16:58Z</time>
      </trkpt>
      <trkpt lat="50.51704" lon="3.88435">
        <ele>71.27</ele>
        <time>2017-02-05T12:17:17Z</time>
      </trkpt>
      <trkpt lat="50.51728" lon="3.88453">
        <ele>71.27</ele>
        <time>2017-02-05T12:17:37Z</time>
      </trkpt>
      <trkpt lat="50.51752" lon="3.88468">
        <ele>71.27</ele>
        <time>2017-02-05T12:17:56Z</time>
      </trkpt>
      <trkpt lat="50.51773" lon="3.88484">
        <ele>71.27</ele>
        <time>2017-02-05T12:18:13Z</time>
      </trkpt>
      <trkpt lat="50.51796" lon="3.88499">
        <ele>71.27</ele>
        <time>2017-02-05T12:18:31Z</time>
      </trkpt>
      <trkpt lat="50.51822" lon="3.88515">
        <ele>70.79</ele>
        <time>2017-02-05T12:18:51Z</time>
      </trkpt>
      <trkpt lat="50.51848" lon="3.88531">
        <ele>70.79</ele>
        <time>2017-02-05T12:19:11Z</time>
      </trkpt>
      <trkpt lat="50.51871" lon="3.88547">
        <ele>70.79</ele>
        <time>2017-02-05T12:19:31Z</time>
      </trkpt>
      <trkpt lat="50.51891" lon="3.88561">
        <ele>70.31</ele>
        <time>2017-02-05T12:19:47Z</time>
      </trkpt>
      <trkpt lat="50.51913" lon="3.88574">
        <ele>70.31</ele>
        <time>2017-02-05T12:20:05Z</time>
      </trkpt>
      <trkpt lat="50.51928" lon="3.88579">
        <ele>70.31</ele>
        <time>2017-02-05T12:20:19Z</time>
      </trkpt>
      <trkpt lat="50.51942" lon="3.88575">
        <ele>70.31</ele>
        <time>2017-02-05T12:20:34Z</time>
      </trkpt>
      <trkpt lat="50.51943" lon="3.88574">
        <ele>70.31</ele>
        <time>2017-02-05T12:20:35Z</time>
      </trkpt>
      <trkpt lat="50.51944" lon="3.88573">
        <ele>70.31</ele>
        <time>2017-02-05T12:20:36Z</time>
      </trkpt>
      <trkpt lat="50.51954" lon="3.88546">
        <ele>69.83</ele>
        <time>2017-02-05T12:20:51Z</time>
      </trkpt>
      <trkpt lat="50.51962" lon="3.88524">
        <ele>68.87</ele>
        <time>2017-02-05T12:21:04Z</time>
      </trkpt>
      <trkpt lat="50.51972" lon="3.88493">
        <ele>69.83</ele>
        <time>2017-02-05T12:21:21Z</time>
      </trkpt>
      <trkpt lat="50.51977" lon="3.88482">
        <ele>68.39</ele>
        <time>2017-02-05T12:21:26Z</time>
      </trkpt>
      <trkpt lat="50.52003" lon="3.88467">
        <ele>68.39</ele>
        <time>2017-02-05T12:21:43Z</time>
      </trkpt>
      <trkpt lat="50.52031" lon="3.88468">
        <ele>68.87</ele>
        <time>2017-02-05T12:22:01Z</time>
      </trkpt>
      <trkpt lat="50.52054" lon="3.88471">
        <ele>68.87</ele>
        <time>2017-02-05T12:22:19Z</time>
      </trkpt>
      <trkpt lat="50.52076" lon="3.88473">
        <ele>68.87</ele>
        <time>2017-02-05T12:22:35Z</time>
      </trkpt>
      <trkpt lat="50.52091" lon="3.88474">
        <ele>67.43</ele>
        <time>2017-02-05T12:22:48Z</time>
      </trkpt>
      <trkpt lat="50.52095" lon="3.88475">
        <ele>68.87</ele>
        <time>2017-02-05T12:22:51Z</time>
      </trkpt>
      <trkpt lat="50.52108" lon="3.88477">
        <ele>68.39</ele>
        <time>2017-02-05T12:23:01Z</time>
      </trkpt>
      <trkpt lat="50.52128" lon="3.8848">
        <ele>68.87</ele>
        <time>2017-02-05T12:23:17Z</time>
      </trkpt>
      <trkpt lat="50.52129" lon="3.8848">
        <ele>68.87</ele>
        <time>2017-02-05T12:23:18Z</time>
      </trkpt>
      <trkpt lat="50.52151" lon="3.88482">
        <ele>68.87</ele>
        <time>2017-02-05T12:23:35Z</time>
      </trkpt>
      <trkpt lat="50.52156" lon="3.88483">
        <ele>66.95</ele>
        <time>2017-02-05T12:23:38Z</time>
      </trkpt>
      <trkpt lat="50.5216" lon="3.88483">
        <ele>68.39</ele>
        <time>2017-02-05T12:23:41Z</time>
      </trkpt>
      <trkpt lat="50.52181" lon="3.88481">
        <ele>68.39</ele>
        <time>2017-02-05T12:23:56Z</time>
      </trkpt>
      <trkpt lat="50.52201" lon="3.88478">
        <ele>68.39</ele>
        <time>2017-02-05T12:24:11Z</time>
      </trkpt>
      <trkpt lat="50.52228" lon="3.88475">
        <ele>68.39</ele>
        <time>2017-02-05T12:24:31Z</time>
      </trkpt>
      <trkpt lat="50.52256" lon="3.88471">
        <ele>67.91</ele>
        <time>2017-02-05T12:24:51Z</time>
      </trkpt>
      <trkpt lat="50.5228" lon="3.88468">
        <ele>67.91</ele>
        <time>2017-02-05T12:25:10Z</time>
      </trkpt>
      <trkpt lat="50.523" lon="3.88466">
        <ele>66.95</ele>
        <time>2017-02-05T12:25:25Z</time>
      </trkpt>
      <trkpt lat="50.52306" lon="3.88466">
        <ele>68.39</ele>
        <time>2017-02-05T12:25:29Z</time>
      </trkpt>
      <trkpt lat="50.5233" lon="3.88462">
        <ele>66.95</ele>
        <time>2017-02-05T12:25:46Z</time>
      </trkpt>
      <trkpt lat="50.52353" lon="3.88459">
        <ele>66.95</ele>
        <time>2017-02-05T12:26:03Z</time>
      </trkpt>
      <trkpt lat="50.52381" lon="3.88458">
        <ele>66.95</ele>
        <time>2017-02-05T12:26:23Z</time>
      </trkpt>
      <trkpt lat="50.52406" lon="3.88455">
        <ele>67.43</ele>
        <time>2017-02-05T12:26:43Z</time>
      </trkpt>
      <trkpt lat="50.52431" lon="3.88457">
        <ele>66.47</ele>
        <time>2017-02-05T12:27:02Z</time>
      </trkpt>
      <trkpt lat="50.52453" lon="3.88458">
        <ele>66.47</ele>
        <time>2017-02-05T12:27:19Z</time>
      </trkpt>
      <trkpt lat="50.52474" lon="3.88461">
        <ele>67.43</ele>
        <time>2017-02-05T12:27:34Z</time>
      </trkpt>
      <trkpt lat="50.52477" lon="3.88461">
        <ele>65.99</ele>
        <time>2017-02-05T12:27:36Z</time>
      </trkpt>
      <trkpt lat="50.52501" lon="3.88464">
        <ele>65.99</ele>
        <time>2017-02-05T12:27:54Z</time>
      </trkpt>
      <trkpt lat="50.52527" lon="3.88467">
        <ele>65.99</ele>
        <time>2017-02-05T12:28:14Z</time>
      </trkpt>
      <trkpt lat="50.52557" lon="3.8847">
        <ele>65.99</ele>
        <time>2017-02-05T12:28:36Z</time>
      </trkpt>
      <trkpt lat="50.52579" lon="3.88475">
        <ele>65.99</ele>
        <time>2017-02-05T12:28:54Z</time>
      </trkpt>
      <trkpt lat="50.52604" lon="3.88479">
        <ele>65.51</ele>
        <time>2017-02-05T12:29:12Z</time>
      </trkpt>
      <trkpt lat="50.5263" lon="3.88484">
        <ele>65.03</ele>
        <time>2017-02-05T12:29:32Z</time>
      </trkpt>
      <trkpt lat="50.52653" lon="3.88488">
        <ele>64.55</ele>
        <time>2017-02-05T12:29:50Z</time>
      </trkpt>
      <trkpt lat="50.5267" lon="3.88492">
        <ele>65.51</ele>
        <time>2017-02-05T12:30:01Z</time>
      </trkpt>
      <trkpt lat="50.52681" lon="3.88496">
        <ele>64.07</ele>
        <time>2017-02-05T12:30:09Z</time>
      </trkpt>
      <trkpt lat="50.527" lon="3.88506">
        <ele>63.58</ele>
        <time>2017-02-05T12:30:23Z</time>
      </trkpt>
      <trkpt lat="50.52724" lon="3.88519">
        <ele>64.55</ele>
        <time>2017-02-05T12:30:43Z</time>
      </trkpt>
      <trkpt lat="50.52728" lon="3.88521">
        <ele>63.1</ele>
        <time>2017-02-05T12:30:46Z</time>
      </trkpt>
      <trkpt lat="50.52733" lon="3.88523">
        <ele>64.55</ele>
        <time>2017-02-05T12:30:49Z</time>
      </trkpt>
      <trkpt lat="50.52754" lon="3.88531">
        <ele>63.58</ele>
        <time>2017-02-05T12:31:06Z</time>
      </trkpt>
      <trkpt lat="50.52782" lon="3.88537">
        <ele>64.55</ele>
        <time>2017-02-05T12:31:27Z</time>
      </trkpt>
      <trkpt lat="50.5279" lon="3.88539">
        <ele>64.07</ele>
        <time>2017-02-05T12:31:33Z</time>
      </trkpt>
      <trkpt lat="50.52816" lon="3.88541">
        <ele>64.55</ele>
        <time>2017-02-05T12:31:53Z</time>
      </trkpt>
      <trkpt lat="50.52819" lon="3.88541">
        <ele>65.99</ele>
        <time>2017-02-05T12:31:55Z</time>
      </trkpt>
      <trkpt lat="50.5284" lon="3.88541">
        <ele>65.99</ele>
        <time>2017-02-05T12:32:12Z</time>
      </trkpt>
      <trkpt lat="50.52863" lon="3.88546">
        <ele>65.99</ele>
        <time>2017-02-05T12:32:28Z</time>
      </trkpt>
      <trkpt lat="50.52885" lon="3.88551">
        <ele>65.99</ele>
        <time>2017-02-05T12:32:44Z</time>
      </trkpt>
      <trkpt lat="50.52905" lon="3.88556">
        <ele>66.47</ele>
        <time>2017-02-05T12:33:01Z</time>
      </trkpt>
      <trkpt lat="50.52928" lon="3.88561">
        <ele>66.47</ele>
        <time>2017-02-05T12:33:18Z</time>
      </trkpt>
      <trkpt lat="50.52948" lon="3.88563">
        <ele>66.47</ele>
        <time>2017-02-05T12:33:33Z</time>
      </trkpt>
      <trkpt lat="50.52954" lon="3.88564">
        <ele>65.03</ele>
        <time>2017-02-05T12:33:39Z</time>
      </trkpt>
      <trkpt lat="50.52978" lon="3.88568">
        <ele>65.03</ele>
        <time>2017-02-05T12:33:57Z</time>
      </trkpt>
      <trkpt lat="50.5299" lon="3.88569">
        <ele>65.51</ele>
        <time>2017-02-05T12:34:05Z</time>
      </trkpt>
      <trkpt lat="50.53012" lon="3.8857">
        <ele>65.51</ele>
        <time>2017-02-05T12:34:21Z</time>
      </trkpt>
      <trkpt lat="50.53038" lon="3.88569">
        <ele>64.07</ele>
        <time>2017-02-05T12:34:38Z</time>
      </trkpt>
      <trkpt lat="50.53056" lon="3.88567">
        <ele>64.07</ele>
        <time>2017-02-05T12:34:55Z</time>
      </trkpt>
      <trkpt lat="50.53082" lon="3.88565">
        <ele>65.03</ele>
        <time>2017-02-05T12:35:12Z</time>
      </trkpt>
      <trkpt lat="50.53101" lon="3.88566">
        <ele>64.07</ele>
        <time>2017-02-05T12:35:27Z</time>
      </trkpt>
      <trkpt lat="50.53122" lon="3.88566">
        <ele>63.1</ele>
        <time>2017-02-05T12:35:43Z</time>
      </trkpt>
      <trkpt lat="50.53144" lon="3.88563">
        <ele>63.1</ele>
        <time>2017-02-05T12:36:01Z</time>
      </trkpt>
      <trkpt lat="50.53153" lon="3.88538">
        <ele>61.18</ele>
        <time>2017-02-05T12:36:15Z</time>
      </trkpt>
      <trkpt lat="50.53154" lon="3.88532">
        <ele>61.18</ele>
        <time>2017-02-05T12:36:18Z</time>
      </trkpt>
      <trkpt lat="50.53155" lon="3.8853">
        <ele>61.18</ele>
        <time>2017-02-05T12:36:19Z</time>
      </trkpt>
      <trkpt lat="50.53155" lon="3.88528">
        <ele>61.18</ele>
        <time>2017-02-05T12:36:20Z</time>
      </trkpt>
      <trkpt lat="50.53155" lon="3.88526">
        <ele>61.18</ele>
        <time>2017-02-05T12:36:21Z</time>
      </trkpt>
      <trkpt lat="50.53156" lon="3.88524">
        <ele>61.18</ele>
        <time>2017-02-05T12:36:22Z</time>
      </trkpt>
      <trkpt lat="50.5316" lon="3.88504">
        <ele>61.18</ele>
        <time>2017-02-05T12:36:34Z</time>
      </trkpt>
      <trkpt lat="50.53167" lon="3.88485">
        <ele>60.7</ele>
        <time>2017-02-05T12:36:47Z</time>
      </trkpt>
      <trkpt lat="50.53177" lon="3.88457">
        <ele>60.22</ele>
        <time>2017-02-05T12:37:02Z</time>
      </trkpt>
      <trkpt lat="50.53184" lon="3.88436">
        <ele>60.22</ele>
        <time>2017-02-05T12:37:13Z</time>
      </trkpt>
      <trkpt lat="50.53185" lon="3.88434">
        <ele>60.22</ele>
        <time>2017-02-05T12:37:14Z</time>
      </trkpt>
      <trkpt lat="50.53189" lon="3.88422">
        <ele>61.18</ele>
        <time>2017-02-05T12:37:20Z</time>
      </trkpt>
      <trkpt lat="50.53189" lon="3.8842">
        <ele>61.18</ele>
        <time>2017-02-05T12:37:21Z</time>
      </trkpt>
      <trkpt lat="50.53193" lon="3.88403">
        <ele>61.18</ele>
        <time>2017-02-05T12:37:30Z</time>
      </trkpt>
      <trkpt lat="50.53198" lon="3.88383">
        <ele>61.66</ele>
        <time>2017-02-05T12:37:42Z</time>
      </trkpt>
      <trkpt lat="50.53198" lon="3.88381">
        <ele>61.66</ele>
        <time>2017-02-05T12:37:43Z</time>
      </trkpt>
      <trkpt lat="50.53197" lon="3.88378">
        <ele>61.66</ele>
        <time>2017-02-05T12:37:44Z</time>
      </trkpt>
      <trkpt lat="50.53196" lon="3.88376">
        <ele>61.66</ele>
        <time>2017-02-05T12:37:45Z</time>
      </trkpt>
      <trkpt lat="50.53195" lon="3.88374">
        <ele>61.66</ele>
        <time>2017-02-05T12:37:46Z</time>
      </trkpt>
      <trkpt lat="50.53194" lon="3.88373">
        <ele>61.66</ele>
        <time>2017-02-05T12:37:47Z</time>
      </trkpt>
      <trkpt lat="50.53182" lon="3.88359">
        <ele>62.14</ele>
        <time>2017-02-05T12:38:00Z</time>
      </trkpt>
      <trkpt lat="50.53174" lon="3.88351">
        <ele>62.14</ele>
        <time>2017-02-05T12:38:09Z</time>
      </trkpt>
      <trkpt lat="50.53173" lon="3.8835">
        <ele>62.14</ele>
        <time>2017-02-05T12:38:10Z</time>
      </trkpt>
      <trkpt lat="50.53172" lon="3.8835">
        <ele>62.14</ele>
        <time>2017-02-05T12:38:11Z</time>
      </trkpt>
      <trkpt lat="50.53156" lon="3.88342">
        <ele>60.7</ele>
        <time>2017-02-05T12:38:23Z</time>
      </trkpt>
      <trkpt lat="50.53138" lon="3.88336">
        <ele>60.7</ele>
        <time>2017-02-05T12:38:36Z</time>
      </trkpt>
      <trkpt lat="50.53137" lon="3.88335">
        <ele>60.7</ele>
        <time>2017-02-05T12:38:37Z</time>
      </trkpt>
      <trkpt lat="50.53135" lon="3.88335">
        <ele>60.7</ele>
        <time>2017-02-05T12:38:38Z</time>
      </trkpt>
      <trkpt lat="50.53134" lon="3.88334">
        <ele>60.7</ele>
        <time>2017-02-05T12:38:39Z</time>
      </trkpt>
      <trkpt lat="50.53118" lon="3.88324">
        <ele>60.22</ele>
        <time>2017-02-05T12:38:53Z</time>
      </trkpt>
      <trkpt lat="50.53114" lon="3.8832">
        <ele>61.66</ele>
        <time>2017-02-05T12:38:56Z</time>
      </trkpt>
      <trkpt lat="50.531" lon="3.88308">
        <ele>62.14</ele>
        <time>2017-02-05T12:39:09Z</time>
      </trkpt>
      <trkpt lat="50.53084" lon="3.88292">
        <ele>62.14</ele>
        <time>2017-02-05T12:39:24Z</time>
      </trkpt>
      <trkpt lat="50.53069" lon="3.8828">
        <ele>61.18</ele>
        <time>2017-02-05T12:39:37Z</time>
      </trkpt>
      <trkpt lat="50.53068" lon="3.88279">
        <ele>62.14</ele>
        <time>2017-02-05T12:39:39Z</time>
      </trkpt>
      <trkpt lat="50.53055" lon="3.88266">
        <ele>61.18</ele>
        <time>2017-02-05T12:39:51Z</time>
      </trkpt>
      <trkpt lat="50.53054" lon="3.88265">
        <ele>61.18</ele>
        <time>2017-02-05T12:39:52Z</time>
      </trkpt>
      <trkpt lat="50.53053" lon="3.88264">
        <ele>61.18</ele>
        <time>2017-02-05T12:39:53Z</time>
      </trkpt>
      <trkpt lat="50.53038" lon="3.88254">
        <ele>62.14</ele>
        <time>2017-02-05T12:40:05Z</time>
      </trkpt>
      <trkpt lat="50.53037" lon="3.88253">
        <ele>62.14</ele>
        <time>2017-02-05T12:40:06Z</time>
      </trkpt>
      <trkpt lat="50.53036" lon="3.88252">
        <ele>62.14</ele>
        <time>2017-02-05T12:40:07Z</time>
      </trkpt>
      <trkpt lat="50.53017" lon="3.88235">
        <ele>62.14</ele>
        <time>2017-02-05T12:40:23Z</time>
      </trkpt>
      <trkpt lat="50.53" lon="3.8822">
        <ele>61.18</ele>
        <time>2017-02-05T12:40:38Z</time>
      </trkpt>
      <trkpt lat="50.52995" lon="3.88215">
        <ele>61.18</ele>
        <time>2017-02-05T12:40:43Z</time>
      </trkpt>
      <trkpt lat="50.52993" lon="3.88214">
        <ele>61.18</ele>
        <time>2017-02-05T12:40:45Z</time>
      </trkpt>
      <trkpt lat="50.52989" lon="3.88212">
        <ele>62.62</ele>
        <time>2017-02-05T12:40:48Z</time>
      </trkpt>
      <trkpt lat="50.52988" lon="3.88209">
        <ele>62.62</ele>
        <time>2017-02-05T12:40:50Z</time>
      </trkpt>
      <trkpt lat="50.52986" lon="3.88207">
        <ele>62.62</ele>
        <time>2017-02-05T12:40:51Z</time>
      </trkpt>
      <trkpt lat="50.52968" lon="3.88191">
        <ele>63.1</ele>
        <time>2017-02-05T12:41:05Z</time>
      </trkpt>
      <trkpt lat="50.52949" lon="3.88177">
        <ele>63.58</ele>
        <time>2017-02-05T12:41:21Z</time>
      </trkpt>
      <trkpt lat="50.5293" lon="3.8816">
        <ele>64.07</ele>
        <time>2017-02-05T12:41:36Z</time>
      </trkpt>
      <trkpt lat="50.52913" lon="3.88148">
        <ele>64.55</ele>
        <time>2017-02-05T12:41:53Z</time>
      </trkpt>
      <trkpt lat="50.52897" lon="3.88127">
        <ele>63.58</ele>
        <time>2017-02-05T12:42:08Z</time>
      </trkpt>
      <trkpt lat="50.52895" lon="3.88123">
        <ele>65.03</ele>
        <time>2017-02-05T12:42:10Z</time>
      </trkpt>
      <trkpt lat="50.52889" lon="3.88104">
        <ele>63.58</ele>
        <time>2017-02-05T12:42:22Z</time>
      </trkpt>
      <trkpt lat="50.52888" lon="3.881">
        <ele>65.51</ele>
        <time>2017-02-05T12:42:24Z</time>
      </trkpt>
      <trkpt lat="50.52888" lon="3.88096">
        <ele>65.51</ele>
        <time>2017-02-05T12:42:26Z</time>
      </trkpt>
      <trkpt lat="50.52888" lon="3.88093">
        <ele>65.51</ele>
        <time>2017-02-05T12:42:27Z</time>
      </trkpt>
      <trkpt lat="50.52888" lon="3.88091">
        <ele>65.51</ele>
        <time>2017-02-05T12:42:28Z</time>
      </trkpt>
      <trkpt lat="50.52892" lon="3.88058">
        <ele>65.99</ele>
        <time>2017-02-05T12:42:43Z</time>
      </trkpt>
      <trkpt lat="50.52894" lon="3.88048">
        <ele>64.55</ele>
        <time>2017-02-05T12:42:48Z</time>
      </trkpt>
      <trkpt lat="50.52895" lon="3.88044">
        <ele>65.99</ele>
        <time>2017-02-05T12:42:50Z</time>
      </trkpt>
      <trkpt lat="50.52902" lon="3.88008">
        <ele>67.91</ele>
        <time>2017-02-05T12:43:07Z</time>
      </trkpt>
      <trkpt lat="50.52908" lon="3.8797">
        <ele>65.99</ele>
        <time>2017-02-05T12:43:27Z</time>
      </trkpt>
      <trkpt lat="50.52911" lon="3.87934">
        <ele>65.99</ele>
        <time>2017-02-05T12:43:45Z</time>
      </trkpt>
      <trkpt lat="50.52909" lon="3.87903">
        <ele>66.95</ele>
        <time>2017-02-05T12:44:00Z</time>
      </trkpt>
      <trkpt lat="50.52908" lon="3.87886">
        <ele>67.43</ele>
        <time>2017-02-05T12:44:09Z</time>
      </trkpt>
      <trkpt lat="50.52909" lon="3.87854">
        <ele>67.91</ele>
        <time>2017-02-05T12:44:26Z</time>
      </trkpt>
      <trkpt lat="50.52913" lon="3.87824">
        <ele>67.91</ele>
        <time>2017-02-05T12:44:40Z</time>
      </trkpt>
      <trkpt lat="50.52918" lon="3.87792">
        <ele>67.91</ele>
        <time>2017-02-05T12:44:56Z</time>
      </trkpt>
      <trkpt lat="50.52924" lon="3.87766">
        <ele>66.47</ele>
        <time>2017-02-05T12:45:09Z</time>
      </trkpt>
      <trkpt lat="50.52921" lon="3.87739">
        <ele>66.47</ele>
        <time>2017-02-05T12:45:22Z</time>
      </trkpt>
      <trkpt lat="50.52913" lon="3.87707">
        <ele>67.43</ele>
        <time>2017-02-05T12:45:40Z</time>
      </trkpt>
      <trkpt lat="50.52899" lon="3.87672">
        <ele>67.43</ele>
        <time>2017-02-05T12:45:59Z</time>
      </trkpt>
      <trkpt lat="50.5289" lon="3.87642">
        <ele>67.91</ele>
        <time>2017-02-05T12:46:15Z</time>
      </trkpt>
      <trkpt lat="50.5289" lon="3.87632">
        <ele>67.91</ele>
        <time>2017-02-05T12:46:22Z</time>
      </trkpt>
      <trkpt lat="50.52892" lon="3.87612">
        <ele>67.91</ele>
        <time>2017-02-05T12:46:33Z</time>
      </trkpt>
      <trkpt lat="50.52891" lon="3.87585">
        <ele>66.95</ele>
        <time>2017-02-05T12:46:47Z</time>
      </trkpt>
      <trkpt lat="50.5289" lon="3.87571">
        <ele>66.95</ele>
        <time>2017-02-05T12:46:52Z</time>
      </trkpt>
      <trkpt lat="50.52889" lon="3.87568">
        <ele>66.95</ele>
        <time>2017-02-05T12:46:53Z</time>
      </trkpt>
      <trkpt lat="50.52887" lon="3.87558">
        <ele>66.95</ele>
        <time>2017-02-05T12:46:57Z</time>
      </trkpt>
      <trkpt lat="50.52886" lon="3.87556">
        <ele>66.95</ele>
        <time>2017-02-05T12:46:58Z</time>
      </trkpt>
      <trkpt lat="50.52883" lon="3.8755">
        <ele>66.95</ele>
        <time>2017-02-05T12:47:01Z</time>
      </trkpt>
      <trkpt lat="50.52882" lon="3.87547">
        <ele>66.95</ele>
        <time>2017-02-05T12:47:02Z</time>
      </trkpt>
      <trkpt lat="50.52872" lon="3.87511">
        <ele>67.91</ele>
        <time>2017-02-05T12:47:23Z</time>
      </trkpt>
      <trkpt lat="50.52871" lon="3.8751">
        <ele>67.91</ele>
        <time>2017-02-05T12:47:24Z</time>
      </trkpt>
      <trkpt lat="50.5287" lon="3.87508">
        <ele>67.91</ele>
        <time>2017-02-05T12:47:25Z</time>
      </trkpt>
      <trkpt lat="50.52866" lon="3.8749">
        <ele>68.39</ele>
        <time>2017-02-05T12:47:35Z</time>
      </trkpt>
      <trkpt lat="50.52865" lon="3.87488">
        <ele>68.39</ele>
        <time>2017-02-05T12:47:36Z</time>
      </trkpt>
      <trkpt lat="50.52864" lon="3.87486">
        <ele>68.39</ele>
        <time>2017-02-05T12:47:37Z</time>
      </trkpt>
      <trkpt lat="50.52864" lon="3.87483">
        <ele>68.39</ele>
        <time>2017-02-05T12:47:38Z</time>
      </trkpt>
      <trkpt lat="50.52863" lon="3.87482">
        <ele>68.39</ele>
        <time>2017-02-05T12:47:39Z</time>
      </trkpt>
      <trkpt lat="50.52854" lon="3.87456">
        <ele>68.39</ele>
        <time>2017-02-05T12:47:52Z</time>
      </trkpt>
      <trkpt lat="50.52841" lon="3.87424">
        <ele>68.39</ele>
        <time>2017-02-05T12:48:12Z</time>
      </trkpt>
      <trkpt lat="50.52822" lon="3.87401">
        <ele>68.87</ele>
        <time>2017-02-05T12:48:29Z</time>
      </trkpt>
      <trkpt lat="50.52802" lon="3.87383">
        <ele>69.35</ele>
        <time>2017-02-05T12:48:46Z</time>
      </trkpt>
      <trkpt lat="50.52779" lon="3.8736">
        <ele>69.35</ele>
        <time>2017-02-05T12:49:04Z</time>
      </trkpt>
      <trkpt lat="50.52762" lon="3.87339">
        <ele>69.83</ele>
        <time>2017-02-05T12:49:22Z</time>
      </trkpt>
      <trkpt lat="50.5274" lon="3.87309">
        <ele>69.83</ele>
        <time>2017-02-05T12:49:43Z</time>
      </trkpt>
      <trkpt lat="50.52726" lon="3.8728">
        <ele>69.83</ele>
        <time>2017-02-05T12:50:01Z</time>
      </trkpt>
      <trkpt lat="50.52713" lon="3.8725">
        <ele>69.83</ele>
        <time>2017-02-05T12:50:19Z</time>
      </trkpt>
      <trkpt lat="50.52702" lon="3.87221">
        <ele>69.83</ele>
        <time>2017-02-05T12:50:34Z</time>
      </trkpt>
      <trkpt lat="50.52694" lon="3.87199">
        <ele>69.83</ele>
        <time>2017-02-05T12:50:47Z</time>
      </trkpt>
      <trkpt lat="50.52689" lon="3.87184">
        <ele>69.83</ele>
        <time>2017-02-05T12:50:54Z</time>
      </trkpt>
      <trkpt lat="50.52688" lon="3.87182">
        <ele>69.83</ele>
        <time>2017-02-05T12:50:55Z</time>
      </trkpt>
      <trkpt lat="50.52687" lon="3.8718">
        <ele>69.83</ele>
        <time>2017-02-05T12:50:56Z</time>
      </trkpt>
      <trkpt lat="50.52686" lon="3.87178">
        <ele>69.83</ele>
        <time>2017-02-05T12:50:57Z</time>
      </trkpt>
      <trkpt lat="50.52685" lon="3.87176">
        <ele>69.83</ele>
        <time>2017-02-05T12:50:58Z</time>
      </trkpt>
      <trkpt lat="50.52684" lon="3.87174">
        <ele>69.83</ele>
        <time>2017-02-05T12:50:59Z</time>
      </trkpt>
      <trkpt lat="50.52684" lon="3.87172">
        <ele>69.83</ele>
        <time>2017-02-05T12:51:00Z</time>
      </trkpt>
      <trkpt lat="50.52679" lon="3.87156">
        <ele>69.83</ele>
        <time>2017-02-05T12:51:09Z</time>
      </trkpt>
      <trkpt lat="50.52679" lon="3.87154">
        <ele>69.83</ele>
        <time>2017-02-05T12:51:10Z</time>
      </trkpt>
      <trkpt lat="50.52679" lon="3.87152">
        <ele>69.83</ele>
        <time>2017-02-05T12:51:11Z</time>
      </trkpt>
      <trkpt lat="50.52676" lon="3.87131">
        <ele>69.83</ele>
        <time>2017-02-05T12:51:22Z</time>
      </trkpt>
      <trkpt lat="50.52675" lon="3.87121">
        <ele>69.83</ele>
        <time>2017-02-05T12:51:27Z</time>
      </trkpt>
      <trkpt lat="50.52674" lon="3.8712">
        <ele>69.83</ele>
        <time>2017-02-05T12:51:28Z</time>
      </trkpt>
      <trkpt lat="50.52674" lon="3.87118">
        <ele>69.83</ele>
        <time>2017-02-05T12:51:29Z</time>
      </trkpt>
      <trkpt lat="50.52673" lon="3.87116">
        <ele>69.83</ele>
        <time>2017-02-05T12:51:30Z</time>
      </trkpt>
      <trkpt lat="50.52673" lon="3.87114">
        <ele>69.83</ele>
        <time>2017-02-05T12:51:31Z</time>
      </trkpt>
      <trkpt lat="50.52664" lon="3.87088">
        <ele>69.83</ele>
        <time>2017-02-05T12:51:47Z</time>
      </trkpt>
      <trkpt lat="50.52655" lon="3.87057">
        <ele>69.83</ele>
        <time>2017-02-05T12:52:03Z</time>
      </trkpt>
      <trkpt lat="50.52642" lon="3.87024">
        <ele>69.83</ele>
        <time>2017-02-05T12:52:19Z</time>
      </trkpt>
      <trkpt lat="50.52631" lon="3.86991">
        <ele>68.87</ele>
        <time>2017-02-05T12:52:35Z</time>
      </trkpt>
      <trkpt lat="50.52609" lon="3.8697">
        <ele>68.87</ele>
        <time>2017-02-05T12:52:51Z</time>
      </trkpt>
      <trkpt lat="50.52587" lon="3.86971">
        <ele>68.87</ele>
        <time>2017-02-05T12:53:07Z</time>
      </trkpt>
      <trkpt lat="50.52565" lon="3.86974">
        <ele>70.31</ele>
        <time>2017-02-05T12:53:23Z</time>
      </trkpt>
      <trkpt lat="50.52548" lon="3.86964">
        <ele>70.31</ele>
        <time>2017-02-05T12:53:38Z</time>
      </trkpt>
      <trkpt lat="50.52538" lon="3.86933">
        <ele>70.31</ele>
        <time>2017-02-05T12:53:54Z</time>
      </trkpt>
      <trkpt lat="50.52531" lon="3.86901">
        <ele>70.31</ele>
        <time>2017-02-05T12:54:10Z</time>
      </trkpt>
      <trkpt lat="50.52537" lon="3.8687">
        <ele>70.31</ele>
        <time>2017-02-05T12:54:26Z</time>
      </trkpt>
      <trkpt lat="50.52538" lon="3.86868">
        <ele>70.31</ele>
        <time>2017-02-05T12:54:27Z</time>
      </trkpt>
      <trkpt lat="50.52539" lon="3.86866">
        <ele>70.31</ele>
        <time>2017-02-05T12:54:28Z</time>
      </trkpt>
      <trkpt lat="50.5254" lon="3.86864">
        <ele>70.31</ele>
        <time>2017-02-05T12:54:29Z</time>
      </trkpt>
      <trkpt lat="50.52543" lon="3.86859">
        <ele>68.39</ele>
        <time>2017-02-05T12:54:32Z</time>
      </trkpt>
      <trkpt lat="50.52559" lon="3.86831">
        <ele>68.39</ele>
        <time>2017-02-05T12:54:50Z</time>
      </trkpt>
      <trkpt lat="50.52572" lon="3.86807">
        <ele>68.39</ele>
        <time>2017-02-05T12:55:05Z</time>
      </trkpt>
      <trkpt lat="50.52581" lon="3.86786">
        <ele>67.91</ele>
        <time>2017-02-05T12:55:18Z</time>
      </trkpt>
      <trkpt lat="50.52582" lon="3.86758">
        <ele>67.91</ele>
        <time>2017-02-05T12:55:32Z</time>
      </trkpt>
      <trkpt lat="50.52574" lon="3.86734">
        <ele>67.91</ele>
        <time>2017-02-05T12:55:47Z</time>
      </trkpt>
      <trkpt lat="50.52573" lon="3.86732">
        <ele>67.91</ele>
        <time>2017-02-05T12:55:48Z</time>
      </trkpt>
      <trkpt lat="50.5256" lon="3.86706">
        <ele>67.91</ele>
        <time>2017-02-05T12:56:03Z</time>
      </trkpt>
      <trkpt lat="50.52549" lon="3.86677">
        <ele>67.91</ele>
        <time>2017-02-05T12:56:19Z</time>
      </trkpt>
      <trkpt lat="50.52545" lon="3.86671">
        <ele>69.35</ele>
        <time>2017-02-05T12:56:23Z</time>
      </trkpt>
      <trkpt lat="50.52533" lon="3.86651">
        <ele>69.83</ele>
        <time>2017-02-05T12:56:36Z</time>
      </trkpt>
      <trkpt lat="50.5253" lon="3.86644">
        <ele>69.35</ele>
        <time>2017-02-05T12:56:40Z</time>
      </trkpt>
      <trkpt lat="50.52529" lon="3.86643">
        <ele>69.35</ele>
        <time>2017-02-05T12:56:41Z</time>
      </trkpt>
      <trkpt lat="50.52515" lon="3.86616">
        <ele>69.83</ele>
        <time>2017-02-05T12:56:56Z</time>
      </trkpt>
      <trkpt lat="50.525" lon="3.86583">
        <ele>69.35</ele>
        <time>2017-02-05T12:57:14Z</time>
      </trkpt>
      <trkpt lat="50.52488" lon="3.86552">
        <ele>69.35</ele>
        <time>2017-02-05T12:57:31Z</time>
      </trkpt>
      <trkpt lat="50.52478" lon="3.86523">
        <ele>69.35</ele>
        <time>2017-02-05T12:57:47Z</time>
      </trkpt>
      <trkpt lat="50.52468" lon="3.86492">
        <ele>69.35</ele>
        <time>2017-02-05T12:58:03Z</time>
      </trkpt>
      <trkpt lat="50.52458" lon="3.86459">
        <ele>69.35</ele>
        <time>2017-02-05T12:58:20Z</time>
      </trkpt>
      <trkpt lat="50.52446" lon="3.86437">
        <ele>69.35</ele>
        <time>2017-02-05T12:58:32Z</time>
      </trkpt>
      <trkpt lat="50.52437" lon="3.86416">
        <ele>69.35</ele>
        <time>2017-02-05T12:58:43Z</time>
      </trkpt>
      <trkpt lat="50.52436" lon="3.86414">
        <ele>69.35</ele>
        <time>2017-02-05T12:58:44Z</time>
      </trkpt>
      <trkpt lat="50.52436" lon="3.86412">
        <ele>69.35</ele>
        <time>2017-02-05T12:58:45Z</time>
      </trkpt>
      <trkpt lat="50.52429" lon="3.86385">
        <ele>69.35</ele>
        <time>2017-02-05T12:58:59Z</time>
      </trkpt>
      <trkpt lat="50.52423" lon="3.86356">
        <ele>69.35</ele>
        <time>2017-02-05T12:59:14Z</time>
      </trkpt>
      <trkpt lat="50.52414" lon="3.86323">
        <ele>69.35</ele>
        <time>2017-02-05T12:59:30Z</time>
      </trkpt>
      <trkpt lat="50.52408" lon="3.86298">
        <ele>69.35</ele>
        <time>2017-02-05T12:59:43Z</time>
      </trkpt>
      <trkpt lat="50.52402" lon="3.86269">
        <ele>69.35</ele>
        <time>2017-02-05T12:59:58Z</time>
      </trkpt>
      <trkpt lat="50.52402" lon="3.86267">
        <ele>69.35</ele>
        <time>2017-02-05T12:59:59Z</time>
      </trkpt>
      <trkpt lat="50.52401" lon="3.86261">
        <ele>69.35</ele>
        <time>2017-02-05T13:00:02Z</time>
      </trkpt>
      <trkpt lat="50.524" lon="3.86258">
        <ele>69.35</ele>
        <time>2017-02-05T13:00:03Z</time>
      </trkpt>
      <trkpt lat="50.524" lon="3.86257">
        <ele>69.35</ele>
        <time>2017-02-05T13:00:04Z</time>
      </trkpt>
      <trkpt lat="50.524" lon="3.86254">
        <ele>69.35</ele>
        <time>2017-02-05T13:00:05Z</time>
      </trkpt>
      <trkpt lat="50.524" lon="3.86252">
        <ele>69.35</ele>
        <time>2017-02-05T13:00:06Z</time>
      </trkpt>
      <trkpt lat="50.524" lon="3.86249">
        <ele>69.35</ele>
        <time>2017-02-05T13:00:07Z</time>
      </trkpt>
      <trkpt lat="50.524" lon="3.86247">
        <ele>69.35</ele>
        <time>2017-02-05T13:00:08Z</time>
      </trkpt>
      <trkpt lat="50.524" lon="3.86245">
        <ele>69.35</ele>
        <time>2017-02-05T13:00:09Z</time>
      </trkpt>
      <trkpt lat="50.52406" lon="3.86223">
        <ele>69.35</ele>
        <time>2017-02-05T13:00:21Z</time>
      </trkpt>
      <trkpt lat="50.52425" lon="3.86206">
        <ele>67.91</ele>
        <time>2017-02-05T13:00:37Z</time>
      </trkpt>
      <trkpt lat="50.52441" lon="3.86191">
        <ele>67.43</ele>
        <time>2017-02-05T13:00:53Z</time>
      </trkpt>
      <trkpt lat="50.52459" lon="3.86172">
        <ele>66.95</ele>
        <time>2017-02-05T13:01:08Z</time>
      </trkpt>
      <trkpt lat="50.52463" lon="3.86168">
        <ele>66.95</ele>
        <time>2017-02-05T13:01:12Z</time>
      </trkpt>
      <trkpt lat="50.52464" lon="3.86166">
        <ele>66.95</ele>
        <time>2017-02-05T13:01:13Z</time>
      </trkpt>
      <trkpt lat="50.52465" lon="3.86165">
        <ele>66.95</ele>
        <time>2017-02-05T13:01:14Z</time>
      </trkpt>
      <trkpt lat="50.52478" lon="3.86157">
        <ele>66.95</ele>
        <time>2017-02-05T13:01:30Z</time>
      </trkpt>
      <trkpt lat="50.52478" lon="3.86157">
        <ele>66.95</ele>
        <time>2017-02-05T13:01:46Z</time>
      </trkpt>
      <trkpt lat="50.52478" lon="3.86154">
        <ele>67.91</ele>
        <time>2017-02-05T13:02:03Z</time>
      </trkpt>
      <trkpt lat="50.52478" lon="3.86153">
        <ele>67.91</ele>
        <time>2017-02-05T13:02:21Z</time>
      </trkpt>
      <trkpt lat="50.52478" lon="3.86146">
        <ele>66.95</ele>
        <time>2017-02-05T13:02:32Z</time>
      </trkpt>
      <trkpt lat="50.52476" lon="3.86145">
        <ele>67.91</ele>
        <time>2017-02-05T13:02:45Z</time>
      </trkpt>
      <trkpt lat="50.52478" lon="3.86138">
        <ele>67.91</ele>
        <time>2017-02-05T13:02:55Z</time>
      </trkpt>
      <trkpt lat="50.52478" lon="3.86135">
        <ele>67.91</ele>
        <time>2017-02-05T13:03:05Z</time>
      </trkpt>
      <trkpt lat="50.52476" lon="3.86133">
        <ele>67.91</ele>
        <time>2017-02-05T13:03:21Z</time>
      </trkpt>
      <trkpt lat="50.52476" lon="3.86134">
        <ele>67.91</ele>
        <time>2017-02-05T13:03:38Z</time>
      </trkpt>
      <trkpt lat="50.52478" lon="3.86136">
        <ele>67.91</ele>
        <time>2017-02-05T13:03:55Z</time>
      </trkpt>
      <trkpt lat="50.52478" lon="3.86133">
        <ele>66.47</ele>
        <time>2017-02-05T13:03:57Z</time>
      </trkpt>
      <trkpt lat="50.52478" lon="3.86131">
        <ele>66.47</ele>
        <time>2017-02-05T13:03:58Z</time>
      </trkpt>
      <trkpt lat="50.52477" lon="3.86129">
        <ele>66.47</ele>
        <time>2017-02-05T13:03:59Z</time>
      </trkpt>
      <trkpt lat="50.52474" lon="3.86118">
        <ele>66.47</ele>
        <time>2017-02-05T13:04:11Z</time>
      </trkpt>
      <trkpt lat="50.52471" lon="3.86105">
        <ele>66.95</ele>
        <time>2017-02-05T13:04:19Z</time>
      </trkpt>
      <trkpt lat="50.52463" lon="3.86079">
        <ele>65.51</ele>
        <time>2017-02-05T13:04:31Z</time>
      </trkpt>
      <trkpt lat="50.52459" lon="3.86052">
        <ele>65.51</ele>
        <time>2017-02-05T13:04:45Z</time>
      </trkpt>
      <trkpt lat="50.52457" lon="3.86022">
        <ele>65.99</ele>
        <time>2017-02-05T13:05:01Z</time>
      </trkpt>
      <trkpt lat="50.52444" lon="3.85997">
        <ele>66.95</ele>
        <time>2017-02-05T13:05:16Z</time>
      </trkpt>
      <trkpt lat="50.52423" lon="3.8598">
        <ele>66.95</ele>
        <time>2017-02-05T13:05:32Z</time>
      </trkpt>
      <trkpt lat="50.52407" lon="3.85963">
        <ele>66.95</ele>
        <time>2017-02-05T13:05:47Z</time>
      </trkpt>
      <trkpt lat="50.52384" lon="3.85925">
        <ele>66.95</ele>
        <time>2017-02-05T13:06:10Z</time>
      </trkpt>
      <trkpt lat="50.52371" lon="3.85897">
        <ele>66.95</ele>
        <time>2017-02-05T13:06:28Z</time>
      </trkpt>
      <trkpt lat="50.52354" lon="3.85867">
        <ele>67.43</ele>
        <time>2017-02-05T13:06:47Z</time>
      </trkpt>
      <trkpt lat="50.52338" lon="3.8584">
        <ele>67.43</ele>
        <time>2017-02-05T13:07:04Z</time>
      </trkpt>
      <trkpt lat="50.52322" lon="3.85814">
        <ele>67.43</ele>
        <time>2017-02-05T13:07:20Z</time>
      </trkpt>
      <trkpt lat="50.52311" lon="3.8579">
        <ele>67.43</ele>
        <time>2017-02-05T13:07:35Z</time>
      </trkpt>
      <trkpt lat="50.52295" lon="3.85763">
        <ele>67.91</ele>
        <time>2017-02-05T13:07:54Z</time>
      </trkpt>
      <trkpt lat="50.52281" lon="3.85739">
        <ele>67.91</ele>
        <time>2017-02-05T13:08:12Z</time>
      </trkpt>
      <trkpt lat="50.52263" lon="3.85715">
        <ele>67.91</ele>
        <time>2017-02-05T13:08:28Z</time>
      </trkpt>
      <trkpt lat="50.52258" lon="3.85707">
        <ele>67.91</ele>
        <time>2017-02-05T13:08:33Z</time>
      </trkpt>
      <trkpt lat="50.52257" lon="3.85706">
        <ele>67.91</ele>
        <time>2017-02-05T13:08:34Z</time>
      </trkpt>
      <trkpt lat="50.52256" lon="3.85704">
        <ele>67.91</ele>
        <time>2017-02-05T13:08:35Z</time>
      </trkpt>
      <trkpt lat="50.52255" lon="3.85702">
        <ele>67.91</ele>
        <time>2017-02-05T13:08:36Z</time>
      </trkpt>
      <trkpt lat="50.52254" lon="3.857">
        <ele>67.91</ele>
        <time>2017-02-05T13:08:37Z</time>
      </trkpt>
      <trkpt lat="50.52253" lon="3.85699">
        <ele>67.91</ele>
        <time>2017-02-05T13:08:38Z</time>
      </trkpt>
      <trkpt lat="50.52237" lon="3.85676">
        <ele>68.39</ele>
        <time>2017-02-05T13:08:54Z</time>
      </trkpt>
      <trkpt lat="50.52235" lon="3.85674">
        <ele>68.39</ele>
        <time>2017-02-05T13:08:56Z</time>
      </trkpt>
      <trkpt lat="50.52224" lon="3.85651">
        <ele>68.39</ele>
        <time>2017-02-05T13:09:12Z</time>
      </trkpt>
      <trkpt lat="50.52218" lon="3.85633">
        <ele>68.39</ele>
        <time>2017-02-05T13:09:21Z</time>
      </trkpt>
      <trkpt lat="50.52219" lon="3.85626">
        <ele>68.39</ele>
        <time>2017-02-05T13:09:26Z</time>
      </trkpt>
      <trkpt lat="50.5222" lon="3.85625">
        <ele>68.39</ele>
        <time>2017-02-05T13:09:27Z</time>
      </trkpt>
      <trkpt lat="50.52231" lon="3.85611">
        <ele>68.39</ele>
        <time>2017-02-05T13:09:39Z</time>
      </trkpt>
      <trkpt lat="50.52243" lon="3.85591">
        <ele>68.39</ele>
        <time>2017-02-05T13:09:52Z</time>
      </trkpt>
      <trkpt lat="50.5225" lon="3.85575">
        <ele>68.39</ele>
        <time>2017-02-05T13:10:05Z</time>
      </trkpt>
      <trkpt lat="50.52262" lon="3.85551">
        <ele>68.39</ele>
        <time>2017-02-05T13:10:19Z</time>
      </trkpt>
      <trkpt lat="50.52271" lon="3.85537">
        <ele>68.39</ele>
        <time>2017-02-05T13:10:32Z</time>
      </trkpt>
      <trkpt lat="50.52285" lon="3.85512">
        <ele>68.39</ele>
        <time>2017-02-05T13:10:47Z</time>
      </trkpt>
      <trkpt lat="50.52286" lon="3.8551">
        <ele>68.39</ele>
        <time>2017-02-05T13:10:48Z</time>
      </trkpt>
      <trkpt lat="50.52287" lon="3.85508">
        <ele>68.39</ele>
        <time>2017-02-05T13:10:49Z</time>
      </trkpt>
      <trkpt lat="50.52288" lon="3.85506">
        <ele>68.39</ele>
        <time>2017-02-05T13:10:50Z</time>
      </trkpt>
      <trkpt lat="50.52289" lon="3.85504">
        <ele>68.39</ele>
        <time>2017-02-05T13:10:51Z</time>
      </trkpt>
      <trkpt lat="50.5229" lon="3.85503">
        <ele>68.39</ele>
        <time>2017-02-05T13:10:52Z</time>
      </trkpt>
      <trkpt lat="50.52291" lon="3.85502">
        <ele>68.39</ele>
        <time>2017-02-05T13:10:53Z</time>
      </trkpt>
      <trkpt lat="50.52292" lon="3.855">
        <ele>68.39</ele>
        <time>2017-02-05T13:10:54Z</time>
      </trkpt>
      <trkpt lat="50.52293" lon="3.85498">
        <ele>68.39</ele>
        <time>2017-02-05T13:10:55Z</time>
      </trkpt>
      <trkpt lat="50.52304" lon="3.85474">
        <ele>68.39</ele>
        <time>2017-02-05T13:11:10Z</time>
      </trkpt>
      <trkpt lat="50.52309" lon="3.8547">
        <ele>68.39</ele>
        <time>2017-02-05T13:11:15Z</time>
      </trkpt>
      <trkpt lat="50.52311" lon="3.85471">
        <ele>68.39</ele>
        <time>2017-02-05T13:11:16Z</time>
      </trkpt>
      <trkpt lat="50.52312" lon="3.85472">
        <ele>68.39</ele>
        <time>2017-02-05T13:11:17Z</time>
      </trkpt>
      <trkpt lat="50.52314" lon="3.85474">
        <ele>68.39</ele>
        <time>2017-02-05T13:11:18Z</time>
      </trkpt>
      <trkpt lat="50.52328" lon="3.85492">
        <ele>67.91</ele>
        <time>2017-02-05T13:11:31Z</time>
      </trkpt>
      <trkpt lat="50.52347" lon="3.85505">
        <ele>67.91</ele>
        <time>2017-02-05T13:11:46Z</time>
      </trkpt>
      <trkpt lat="50.52365" lon="3.85524">
        <ele>67.43</ele>
        <time>2017-02-05T13:12:02Z</time>
      </trkpt>
      <trkpt lat="50.52371" lon="3.85526">
        <ele>67.43</ele>
        <time>2017-02-05T13:12:07Z</time>
      </trkpt>
      <trkpt lat="50.52372" lon="3.85525">
        <ele>67.43</ele>
        <time>2017-02-05T13:12:08Z</time>
      </trkpt>
      <trkpt lat="50.52373" lon="3.85525">
        <ele>67.43</ele>
        <time>2017-02-05T13:12:09Z</time>
      </trkpt>
      <trkpt lat="50.52393" lon="3.85523">
        <ele>66.95</ele>
        <time>2017-02-05T13:12:26Z</time>
      </trkpt>
      <trkpt lat="50.52413" lon="3.85522">
        <ele>66.95</ele>
        <time>2017-02-05T13:12:41Z</time>
      </trkpt>
      <trkpt lat="50.5244" lon="3.85528">
        <ele>66.95</ele>
        <time>2017-02-05T13:12:59Z</time>
      </trkpt>
      <trkpt lat="50.52458" lon="3.85539">
        <ele>66.95</ele>
        <time>2017-02-05T13:13:17Z</time>
      </trkpt>
      <trkpt lat="50.52476" lon="3.85533">
        <ele>66.95</ele>
        <time>2017-02-05T13:13:33Z</time>
      </trkpt>
      <trkpt lat="50.52484" lon="3.85525">
        <ele>66.95</ele>
        <time>2017-02-05T13:13:41Z</time>
      </trkpt>
      <trkpt lat="50.52486" lon="3.85522">
        <ele>66.95</ele>
        <time>2017-02-05T13:13:43Z</time>
      </trkpt>
      <trkpt lat="50.52495" lon="3.85511">
        <ele>66.95</ele>
        <time>2017-02-05T13:13:52Z</time>
      </trkpt>
      <trkpt lat="50.52499" lon="3.85506">
        <ele>66.95</ele>
        <time>2017-02-05T13:13:56Z</time>
      </trkpt>
      <trkpt lat="50.52512" lon="3.85499">
        <ele>66.95</ele>
        <time>2017-02-05T13:14:04Z</time>
      </trkpt>
      <trkpt lat="50.52531" lon="3.85481">
        <ele>66.95</ele>
        <time>2017-02-05T13:14:20Z</time>
      </trkpt>
      <trkpt lat="50.52538" lon="3.85474">
        <ele>68.39</ele>
        <time>2017-02-05T13:14:27Z</time>
      </trkpt>
      <trkpt lat="50.52546" lon="3.85464">
        <ele>68.39</ele>
        <time>2017-02-05T13:14:40Z</time>
      </trkpt>
      <trkpt lat="50.52568" lon="3.85444">
        <ele>68.39</ele>
        <time>2017-02-05T13:14:58Z</time>
      </trkpt>
      <trkpt lat="50.52576" lon="3.85435">
        <ele>68.39</ele>
        <time>2017-02-05T13:15:05Z</time>
      </trkpt>
      <trkpt lat="50.52578" lon="3.85435">
        <ele>68.39</ele>
        <time>2017-02-05T13:15:06Z</time>
      </trkpt>
      <trkpt lat="50.52579" lon="3.85434">
        <ele>68.39</ele>
        <time>2017-02-05T13:15:07Z</time>
      </trkpt>
      <trkpt lat="50.5258" lon="3.85433">
        <ele>68.39</ele>
        <time>2017-02-05T13:15:08Z</time>
      </trkpt>
      <trkpt lat="50.52581" lon="3.85431">
        <ele>68.39</ele>
        <time>2017-02-05T13:15:09Z</time>
      </trkpt>
      <trkpt lat="50.52596" lon="3.85421">
        <ele>68.87</ele>
        <time>2017-02-05T13:15:23Z</time>
      </trkpt>
      <trkpt lat="50.52616" lon="3.85403">
        <ele>68.87</ele>
        <time>2017-02-05T13:15:40Z</time>
      </trkpt>
      <trkpt lat="50.52618" lon="3.85404">
        <ele>68.87</ele>
        <time>2017-02-05T13:15:42Z</time>
      </trkpt>
      <trkpt lat="50.5262" lon="3.85406">
        <ele>68.87</ele>
        <time>2017-02-05T13:15:43Z</time>
      </trkpt>
      <trkpt lat="50.52625" lon="3.85413">
        <ele>68.87</ele>
        <time>2017-02-05T13:15:48Z</time>
      </trkpt>
      <trkpt lat="50.52625" lon="3.85415">
        <ele>68.87</ele>
        <time>2017-02-05T13:15:49Z</time>
      </trkpt>
      <trkpt lat="50.52638" lon="3.85437">
        <ele>68.87</ele>
        <time>2017-02-05T13:16:03Z</time>
      </trkpt>
      <trkpt lat="50.52652" lon="3.85461">
        <ele>69.35</ele>
        <time>2017-02-05T13:16:19Z</time>
      </trkpt>
      <trkpt lat="50.52649" lon="3.85458">
        <ele>69.35</ele>
        <time>2017-02-05T13:16:37Z</time>
      </trkpt>
      <trkpt lat="50.52656" lon="3.85472">
        <ele>69.35</ele>
        <time>2017-02-05T13:16:48Z</time>
      </trkpt>
      <trkpt lat="50.52668" lon="3.85497">
        <ele>69.35</ele>
        <time>2017-02-05T13:17:03Z</time>
      </trkpt>
      <trkpt lat="50.52684" lon="3.85529">
        <ele>69.35</ele>
        <time>2017-02-05T13:17:22Z</time>
      </trkpt>
      <trkpt lat="50.52687" lon="3.85534">
        <ele>69.35</ele>
        <time>2017-02-05T13:17:25Z</time>
      </trkpt>
      <trkpt lat="50.52688" lon="3.85535">
        <ele>69.35</ele>
        <time>2017-02-05T13:17:26Z</time>
      </trkpt>
      <trkpt lat="50.527" lon="3.8556">
        <ele>69.35</ele>
        <time>2017-02-05T13:17:42Z</time>
      </trkpt>
      <trkpt lat="50.52714" lon="3.85588">
        <ele>68.39</ele>
        <time>2017-02-05T13:18:00Z</time>
      </trkpt>
      <trkpt lat="50.52725" lon="3.85616">
        <ele>67.91</ele>
        <time>2017-02-05T13:18:16Z</time>
      </trkpt>
      <trkpt lat="50.52729" lon="3.85647">
        <ele>67.91</ele>
        <time>2017-02-05T13:18:32Z</time>
      </trkpt>
      <trkpt lat="50.52732" lon="3.85668">
        <ele>67.43</ele>
        <time>2017-02-05T13:18:43Z</time>
      </trkpt>
      <trkpt lat="50.52734" lon="3.8567">
        <ele>67.43</ele>
        <time>2017-02-05T13:18:45Z</time>
      </trkpt>
      <trkpt lat="50.52754" lon="3.85694">
        <ele>67.43</ele>
        <time>2017-02-05T13:19:04Z</time>
      </trkpt>
      <trkpt lat="50.52773" lon="3.85718">
        <ele>67.43</ele>
        <time>2017-02-05T13:19:23Z</time>
      </trkpt>
      <trkpt lat="50.52771" lon="3.85734">
        <ele>66.47</ele>
        <time>2017-02-05T13:19:34Z</time>
      </trkpt>
      <trkpt lat="50.5277" lon="3.85735">
        <ele>66.47</ele>
        <time>2017-02-05T13:19:35Z</time>
      </trkpt>
      <trkpt lat="50.52766" lon="3.85741">
        <ele>66.47</ele>
        <time>2017-02-05T13:19:39Z</time>
      </trkpt>
      <trkpt lat="50.52751" lon="3.85761">
        <ele>66.47</ele>
        <time>2017-02-05T13:19:55Z</time>
      </trkpt>
      <trkpt lat="50.52746" lon="3.85763">
        <ele>66.47</ele>
        <time>2017-02-05T13:20:00Z</time>
      </trkpt>
      <trkpt lat="50.52736" lon="3.85761">
        <ele>66.47</ele>
        <time>2017-02-05T13:20:11Z</time>
      </trkpt>
      <trkpt lat="50.52733" lon="3.85762">
        <ele>66.47</ele>
        <time>2017-02-05T13:20:17Z</time>
      </trkpt>
      <trkpt lat="50.52732" lon="3.85762">
        <ele>66.47</ele>
        <time>2017-02-05T13:20:18Z</time>
      </trkpt>
      <trkpt lat="50.5273" lon="3.85761">
        <ele>66.47</ele>
        <time>2017-02-05T13:20:19Z</time>
      </trkpt>
      <trkpt lat="50.5271" lon="3.85768">
        <ele>66.47</ele>
        <time>2017-02-05T13:20:32Z</time>
      </trkpt>
      <trkpt lat="50.52695" lon="3.85772">
        <ele>66.47</ele>
        <time>2017-02-05T13:20:46Z</time>
      </trkpt>
      <trkpt lat="50.52686" lon="3.85771">
        <ele>66.47</ele>
        <time>2017-02-05T13:20:53Z</time>
      </trkpt>
      <trkpt lat="50.52685" lon="3.8577">
        <ele>66.47</ele>
        <time>2017-02-05T13:20:54Z</time>
      </trkpt>
      <trkpt lat="50.52684" lon="3.8577">
        <ele>66.47</ele>
        <time>2017-02-05T13:20:55Z</time>
      </trkpt>
      <trkpt lat="50.52683" lon="3.85771">
        <ele>66.47</ele>
        <time>2017-02-05T13:20:56Z</time>
      </trkpt>
      <trkpt lat="50.52681" lon="3.85771">
        <ele>66.47</ele>
        <time>2017-02-05T13:20:57Z</time>
      </trkpt>
      <trkpt lat="50.5268" lon="3.85772">
        <ele>66.47</ele>
        <time>2017-02-05T13:20:58Z</time>
      </trkpt>
      <trkpt lat="50.52668" lon="3.85767">
        <ele>66.47</ele>
        <time>2017-02-05T13:21:12Z</time>
      </trkpt>
      <trkpt lat="50.52668" lon="3.85756">
        <ele>67.91</ele>
        <time>2017-02-05T13:21:23Z</time>
      </trkpt>
      <trkpt lat="50.52668" lon="3.8575">
        <ele>67.43</ele>
        <time>2017-02-05T13:21:44Z</time>
      </trkpt>
      <trkpt lat="50.52668" lon="3.85734">
        <ele>67.43</ele>
        <time>2017-02-05T13:21:59Z</time>
      </trkpt>
      <trkpt lat="50.52668" lon="3.85732">
        <ele>67.43</ele>
        <time>2017-02-05T13:22:00Z</time>
      </trkpt>
      <trkpt lat="50.52667" lon="3.85729">
        <ele>67.43</ele>
        <time>2017-02-05T13:22:12Z</time>
      </trkpt>
    </trkseg>
  </trk>
</gpx>